<?xml version="1.0" encoding="UTF-8" standalone="no" ?>
<gpx xmlns="http://www.topografix.com/GPX/1/1" xmlns:xsi="http://www.w3.org/2001/XMLSchema-instance" xsi:schemaLocation="http://www.topografix.com/GPX/1/1 http://www.topografix.com/GPX/1/1/gpx.xsd" version="1.1" creator="VisuGPX - https://www.visugpx.com">
  <metadata>
    <name>Revel-golf de bresson-uriage-revel</name>
    <desc><![CDATA[File with points/tracks from Locus Map/3.46.1]]></desc>
  </metadata>
  <trk>
    <name><![CDATA[2020-06-06 10:40:38]]></name>
    <desc><![CDATA[Golf bresson]]></desc>
    <extensions>
      <line xmlns="http://www.topografix.com/GPX/gpx_style/0/2">
        <color>0000FF</color>
        <opacity>0.59</opacity>
        <width>6.0</width>
      </line>
    </extensions>
    <trkseg>
      <trkpt lat="45.18377" lon="5.87379">
        <ele>704.79</ele>
        <time>2020-06-06T08:41:14.000Z</time>
      </trkpt>
      <trkpt lat="45.18386" lon="5.87384">
        <ele>701.44</ele>
        <time>2020-06-06T08:41:51.000Z</time>
      </trkpt>
      <trkpt lat="45.18377" lon="5.87385">
        <ele>695.3</ele>
        <time>2020-06-06T08:41:58.000Z</time>
      </trkpt>
      <trkpt lat="45.18386" lon="5.87383">
        <ele>700.15</ele>
        <time>2020-06-06T08:46:22.000Z</time>
      </trkpt>
      <trkpt lat="45.1839" lon="5.87363">
        <ele>698.43</ele>
        <time>2020-06-06T08:46:27.000Z</time>
      </trkpt>
      <trkpt lat="45.18393" lon="5.87329">
        <ele>701.07</ele>
        <time>2020-06-06T08:46:32.000Z</time>
      </trkpt>
      <trkpt lat="45.18389" lon="5.87307">
        <ele>699.68</ele>
        <time>2020-06-06T08:46:37.000Z</time>
      </trkpt>
      <trkpt lat="45.18387" lon="5.87287">
        <ele>697.01</ele>
        <time>2020-06-06T08:46:42.000Z</time>
      </trkpt>
      <trkpt lat="45.18385" lon="5.87271">
        <ele>694.87</ele>
        <time>2020-06-06T08:46:49.000Z</time>
      </trkpt>
      <trkpt lat="45.18398" lon="5.87239">
        <ele>690.28</ele>
        <time>2020-06-06T08:46:54.000Z</time>
      </trkpt>
      <trkpt lat="45.18417" lon="5.87209">
        <ele>685.03</ele>
        <time>2020-06-06T08:46:59.000Z</time>
      </trkpt>
      <trkpt lat="45.18433" lon="5.8719">
        <ele>680.74</ele>
        <time>2020-06-06T08:47:04.000Z</time>
      </trkpt>
      <trkpt lat="45.18435" lon="5.87176">
        <ele>682.24</ele>
        <time>2020-06-06T08:47:17.000Z</time>
      </trkpt>
      <trkpt lat="45.18405" lon="5.87143">
        <ele>679.61</ele>
        <time>2020-06-06T08:47:22.000Z</time>
      </trkpt>
      <trkpt lat="45.18438" lon="5.87107">
        <ele>675.1</ele>
        <time>2020-06-06T08:47:27.000Z</time>
      </trkpt>
      <trkpt lat="45.18475" lon="5.87092">
        <ele>668.93</ele>
        <time>2020-06-06T08:47:32.000Z</time>
      </trkpt>
      <trkpt lat="45.18498" lon="5.87081">
        <ele>662.96</ele>
        <time>2020-06-06T08:47:37.000Z</time>
      </trkpt>
      <trkpt lat="45.18519" lon="5.87059">
        <ele>662.62</ele>
        <time>2020-06-06T08:47:42.000Z</time>
      </trkpt>
      <trkpt lat="45.18564" lon="5.8706">
        <ele>662.73</ele>
        <time>2020-06-06T08:47:47.000Z</time>
      </trkpt>
      <trkpt lat="45.18586" lon="5.87014">
        <ele>658.63</ele>
        <time>2020-06-06T08:47:52.000Z</time>
      </trkpt>
      <trkpt lat="45.1859" lon="5.86946">
        <ele>652.67</ele>
        <time>2020-06-06T08:47:57.000Z</time>
      </trkpt>
      <trkpt lat="45.18582" lon="5.86899">
        <ele>650</ele>
        <time>2020-06-06T08:48:02.000Z</time>
      </trkpt>
      <trkpt lat="45.18572" lon="5.86879">
        <ele>649.37</ele>
        <time>2020-06-06T08:48:07.000Z</time>
      </trkpt>
      <trkpt lat="45.18562" lon="5.86868">
        <ele>650.44</ele>
        <time>2020-06-06T08:48:12.000Z</time>
      </trkpt>
      <trkpt lat="45.1855" lon="5.86844">
        <ele>651.09</ele>
        <time>2020-06-06T08:48:17.000Z</time>
      </trkpt>
      <trkpt lat="45.18539" lon="5.86805">
        <ele>652.4</ele>
        <time>2020-06-06T08:48:22.000Z</time>
      </trkpt>
      <trkpt lat="45.1853" lon="5.86772">
        <ele>650.03</ele>
        <time>2020-06-06T08:48:27.000Z</time>
      </trkpt>
      <trkpt lat="45.18515" lon="5.86727">
        <ele>639.22</ele>
        <time>2020-06-06T08:48:32.000Z</time>
      </trkpt>
      <trkpt lat="45.18497" lon="5.86677">
        <ele>630.48</ele>
        <time>2020-06-06T08:48:37.000Z</time>
      </trkpt>
      <trkpt lat="45.18475" lon="5.86639">
        <ele>631.23</ele>
        <time>2020-06-06T08:48:42.000Z</time>
      </trkpt>
      <trkpt lat="45.18442" lon="5.86612">
        <ele>630.77</ele>
        <time>2020-06-06T08:48:47.000Z</time>
      </trkpt>
      <trkpt lat="45.18412" lon="5.86588">
        <ele>628.33</ele>
        <time>2020-06-06T08:48:52.000Z</time>
      </trkpt>
      <trkpt lat="45.18377" lon="5.86609">
        <ele>623.38</ele>
        <time>2020-06-06T08:48:57.000Z</time>
      </trkpt>
      <trkpt lat="45.18345" lon="5.8666">
        <ele>616.38</ele>
        <time>2020-06-06T08:49:02.000Z</time>
      </trkpt>
      <trkpt lat="45.18302" lon="5.86711">
        <ele>612.65</ele>
        <time>2020-06-06T08:49:07.000Z</time>
      </trkpt>
      <trkpt lat="45.18285" lon="5.86789">
        <ele>603.4</ele>
        <time>2020-06-06T08:49:12.000Z</time>
      </trkpt>
      <trkpt lat="45.18265" lon="5.86874">
        <ele>597.65</ele>
        <time>2020-06-06T08:49:17.000Z</time>
      </trkpt>
      <trkpt lat="45.18237" lon="5.86966">
        <ele>596.17</ele>
        <time>2020-06-06T08:49:22.000Z</time>
      </trkpt>
      <trkpt lat="45.18223" lon="5.87048">
        <ele>593.94</ele>
        <time>2020-06-06T08:49:27.000Z</time>
      </trkpt>
      <trkpt lat="45.18196" lon="5.87108">
        <ele>592.93</ele>
        <time>2020-06-06T08:49:32.000Z</time>
      </trkpt>
      <trkpt lat="45.18151" lon="5.87127">
        <ele>593.66</ele>
        <time>2020-06-06T08:49:37.000Z</time>
      </trkpt>
      <trkpt lat="45.18111" lon="5.8717">
        <ele>589.7</ele>
        <time>2020-06-06T08:49:42.000Z</time>
      </trkpt>
      <trkpt lat="45.18074" lon="5.87219">
        <ele>580.35</ele>
        <time>2020-06-06T08:49:47.000Z</time>
      </trkpt>
      <trkpt lat="45.18049" lon="5.87205">
        <ele>581.44</ele>
        <time>2020-06-06T08:49:52.000Z</time>
      </trkpt>
      <trkpt lat="45.18046" lon="5.87175">
        <ele>575.23</ele>
        <time>2020-06-06T08:49:57.000Z</time>
      </trkpt>
      <trkpt lat="45.18047" lon="5.87152">
        <ele>574.23</ele>
        <time>2020-06-06T08:50:02.000Z</time>
      </trkpt>
      <trkpt lat="45.18041" lon="5.87125">
        <ele>572.21</ele>
        <time>2020-06-06T08:50:07.000Z</time>
      </trkpt>
      <trkpt lat="45.18045" lon="5.87097">
        <ele>579.35</ele>
        <time>2020-06-06T08:50:12.000Z</time>
      </trkpt>
      <trkpt lat="45.18042" lon="5.87073">
        <ele>580.41</ele>
        <time>2020-06-06T08:50:17.000Z</time>
      </trkpt>
      <trkpt lat="45.18039" lon="5.87046">
        <ele>577.07</ele>
        <time>2020-06-06T08:50:22.000Z</time>
      </trkpt>
      <trkpt lat="45.18043" lon="5.87005">
        <ele>576.28</ele>
        <time>2020-06-06T08:50:27.000Z</time>
      </trkpt>
      <trkpt lat="45.18038" lon="5.86979">
        <ele>572.81</ele>
        <time>2020-06-06T08:50:32.000Z</time>
      </trkpt>
      <trkpt lat="45.18036" lon="5.86947">
        <ele>573.12</ele>
        <time>2020-06-06T08:50:37.000Z</time>
      </trkpt>
      <trkpt lat="45.18037" lon="5.86924">
        <ele>574.86</ele>
        <time>2020-06-06T08:50:42.000Z</time>
      </trkpt>
      <trkpt lat="45.18034" lon="5.86895">
        <ele>576.18</ele>
        <time>2020-06-06T08:50:47.000Z</time>
      </trkpt>
      <trkpt lat="45.18031" lon="5.8687">
        <ele>579.84</ele>
        <time>2020-06-06T08:50:52.000Z</time>
      </trkpt>
      <trkpt lat="45.18024" lon="5.86844">
        <ele>581.49</ele>
        <time>2020-06-06T08:50:57.000Z</time>
      </trkpt>
      <trkpt lat="45.18028" lon="5.86823">
        <ele>584.58</ele>
        <time>2020-06-06T08:51:02.000Z</time>
      </trkpt>
      <trkpt lat="45.18028" lon="5.86796">
        <ele>586.54</ele>
        <time>2020-06-06T08:51:07.000Z</time>
      </trkpt>
      <trkpt lat="45.18024" lon="5.86766">
        <ele>591.1</ele>
        <time>2020-06-06T08:51:12.000Z</time>
      </trkpt>
      <trkpt lat="45.18021" lon="5.86737">
        <ele>589.84</ele>
        <time>2020-06-06T08:51:17.000Z</time>
      </trkpt>
      <trkpt lat="45.18021" lon="5.86706">
        <ele>593.12</ele>
        <time>2020-06-06T08:51:22.000Z</time>
      </trkpt>
      <trkpt lat="45.18015" lon="5.86676">
        <ele>593.7</ele>
        <time>2020-06-06T08:51:27.000Z</time>
      </trkpt>
      <trkpt lat="45.18017" lon="5.86647">
        <ele>600.53</ele>
        <time>2020-06-06T08:51:32.000Z</time>
      </trkpt>
      <trkpt lat="45.18017" lon="5.86626">
        <ele>600.41</ele>
        <time>2020-06-06T08:51:37.000Z</time>
      </trkpt>
      <trkpt lat="45.18014" lon="5.86597">
        <ele>599.3</ele>
        <time>2020-06-06T08:51:42.000Z</time>
      </trkpt>
      <trkpt lat="45.18009" lon="5.86567">
        <ele>600.28</ele>
        <time>2020-06-06T08:51:47.000Z</time>
      </trkpt>
      <trkpt lat="45.18008" lon="5.86541">
        <ele>602.36</ele>
        <time>2020-06-06T08:51:52.000Z</time>
      </trkpt>
      <trkpt lat="45.1801" lon="5.86515">
        <ele>601.28</ele>
        <time>2020-06-06T08:51:57.000Z</time>
      </trkpt>
      <trkpt lat="45.18012" lon="5.8649">
        <ele>605.07</ele>
        <time>2020-06-06T08:52:02.000Z</time>
      </trkpt>
      <trkpt lat="45.18014" lon="5.86462">
        <ele>606.54</ele>
        <time>2020-06-06T08:52:07.000Z</time>
      </trkpt>
      <trkpt lat="45.18015" lon="5.86431">
        <ele>611.33</ele>
        <time>2020-06-06T08:52:12.000Z</time>
      </trkpt>
      <trkpt lat="45.18015" lon="5.86398">
        <ele>612.6</ele>
        <time>2020-06-06T08:52:17.000Z</time>
      </trkpt>
      <trkpt lat="45.18011" lon="5.86369">
        <ele>615.18</ele>
        <time>2020-06-06T08:52:22.000Z</time>
      </trkpt>
      <trkpt lat="45.17989" lon="5.86358">
        <ele>619.97</ele>
        <time>2020-06-06T08:52:27.000Z</time>
      </trkpt>
      <trkpt lat="45.17967" lon="5.86358">
        <ele>621.62</ele>
        <time>2020-06-06T08:52:32.000Z</time>
      </trkpt>
      <trkpt lat="45.17946" lon="5.86361">
        <ele>623.21</ele>
        <time>2020-06-06T08:52:37.000Z</time>
      </trkpt>
      <trkpt lat="45.17926" lon="5.86363">
        <ele>623.01</ele>
        <time>2020-06-06T08:52:42.000Z</time>
      </trkpt>
      <trkpt lat="45.17906" lon="5.86366">
        <ele>624.49</ele>
        <time>2020-06-06T08:52:47.000Z</time>
      </trkpt>
      <trkpt lat="45.1789" lon="5.86368">
        <ele>624.61</ele>
        <time>2020-06-06T08:52:52.000Z</time>
      </trkpt>
      <trkpt lat="45.17878" lon="5.86371">
        <ele>621.39</ele>
        <time>2020-06-06T08:52:57.000Z</time>
      </trkpt>
      <trkpt lat="45.17869" lon="5.86371">
        <ele>621.03</ele>
        <time>2020-06-06T08:53:03.000Z</time>
      </trkpt>
      <trkpt lat="45.17858" lon="5.86372">
        <ele>621.71</ele>
        <time>2020-06-06T08:53:10.000Z</time>
      </trkpt>
      <trkpt lat="45.17849" lon="5.86376">
        <ele>621.98</ele>
        <time>2020-06-06T08:53:15.000Z</time>
      </trkpt>
      <trkpt lat="45.1784" lon="5.86377">
        <ele>623.21</ele>
        <time>2020-06-06T08:53:20.000Z</time>
      </trkpt>
      <trkpt lat="45.17831" lon="5.86378">
        <ele>624.01</ele>
        <time>2020-06-06T08:53:25.000Z</time>
      </trkpt>
      <trkpt lat="45.17821" lon="5.8638">
        <ele>624.84</ele>
        <time>2020-06-06T08:53:33.000Z</time>
      </trkpt>
      <trkpt lat="45.17812" lon="5.86374">
        <ele>620.24</ele>
        <time>2020-06-06T08:54:30.000Z</time>
      </trkpt>
      <trkpt lat="45.17802" lon="5.86371">
        <ele>623.58</ele>
        <time>2020-06-06T08:54:36.000Z</time>
      </trkpt>
      <trkpt lat="45.17795" lon="5.86362">
        <ele>625.43</ele>
        <time>2020-06-06T09:01:04.000Z</time>
      </trkpt>
      <trkpt lat="45.17776" lon="5.86342">
        <ele>625.83</ele>
        <time>2020-06-06T09:01:09.000Z</time>
      </trkpt>
      <trkpt lat="45.17744" lon="5.86325">
        <ele>622.32</ele>
        <time>2020-06-06T09:01:14.000Z</time>
      </trkpt>
      <trkpt lat="45.17716" lon="5.86297">
        <ele>620.86</ele>
        <time>2020-06-06T09:01:19.000Z</time>
      </trkpt>
      <trkpt lat="45.17699" lon="5.86256">
        <ele>620.3</ele>
        <time>2020-06-06T09:01:24.000Z</time>
      </trkpt>
      <trkpt lat="45.17684" lon="5.86234">
        <ele>617.52</ele>
        <time>2020-06-06T09:01:29.000Z</time>
      </trkpt>
      <trkpt lat="45.17672" lon="5.86206">
        <ele>620.48</ele>
        <time>2020-06-06T09:01:34.000Z</time>
      </trkpt>
      <trkpt lat="45.17661" lon="5.8618">
        <ele>619.96</ele>
        <time>2020-06-06T09:01:39.000Z</time>
      </trkpt>
      <trkpt lat="45.17645" lon="5.86157">
        <ele>619.4</ele>
        <time>2020-06-06T09:01:44.000Z</time>
      </trkpt>
      <trkpt lat="45.17635" lon="5.86127">
        <ele>620.82</ele>
        <time>2020-06-06T09:01:49.000Z</time>
      </trkpt>
      <trkpt lat="45.17628" lon="5.86099">
        <ele>621.93</ele>
        <time>2020-06-06T09:01:54.000Z</time>
      </trkpt>
      <trkpt lat="45.17632" lon="5.86079">
        <ele>618.85</ele>
        <time>2020-06-06T09:01:59.000Z</time>
      </trkpt>
      <trkpt lat="45.17628" lon="5.86052">
        <ele>619.58</ele>
        <time>2020-06-06T09:02:04.000Z</time>
      </trkpt>
      <trkpt lat="45.17608" lon="5.86029">
        <ele>621.33</ele>
        <time>2020-06-06T09:02:09.000Z</time>
      </trkpt>
      <trkpt lat="45.17595" lon="5.85998">
        <ele>625.05</ele>
        <time>2020-06-06T09:02:14.000Z</time>
      </trkpt>
      <trkpt lat="45.17572" lon="5.85969">
        <ele>622.94</ele>
        <time>2020-06-06T09:02:19.000Z</time>
      </trkpt>
      <trkpt lat="45.17541" lon="5.85938">
        <ele>621.92</ele>
        <time>2020-06-06T09:02:24.000Z</time>
      </trkpt>
      <trkpt lat="45.17522" lon="5.85902">
        <ele>620.79</ele>
        <time>2020-06-06T09:02:29.000Z</time>
      </trkpt>
      <trkpt lat="45.17515" lon="5.85874">
        <ele>618.79</ele>
        <time>2020-06-06T09:02:34.000Z</time>
      </trkpt>
      <trkpt lat="45.17504" lon="5.85848">
        <ele>617.5</ele>
        <time>2020-06-06T09:02:39.000Z</time>
      </trkpt>
      <trkpt lat="45.17496" lon="5.85822">
        <ele>619.74</ele>
        <time>2020-06-06T09:02:44.000Z</time>
      </trkpt>
      <trkpt lat="45.1749" lon="5.85791">
        <ele>620.42</ele>
        <time>2020-06-06T09:02:49.000Z</time>
      </trkpt>
      <trkpt lat="45.17478" lon="5.85762">
        <ele>618.32</ele>
        <time>2020-06-06T09:02:54.000Z</time>
      </trkpt>
      <trkpt lat="45.17468" lon="5.85726">
        <ele>617.27</ele>
        <time>2020-06-06T09:02:59.000Z</time>
      </trkpt>
      <trkpt lat="45.17449" lon="5.85685">
        <ele>616.82</ele>
        <time>2020-06-06T09:03:04.000Z</time>
      </trkpt>
      <trkpt lat="45.17443" lon="5.85636">
        <ele>616.73</ele>
        <time>2020-06-06T09:03:09.000Z</time>
      </trkpt>
      <trkpt lat="45.17446" lon="5.85597">
        <ele>615.55</ele>
        <time>2020-06-06T09:03:14.000Z</time>
      </trkpt>
      <trkpt lat="45.17462" lon="5.85563">
        <ele>614.79</ele>
        <time>2020-06-06T09:03:19.000Z</time>
      </trkpt>
      <trkpt lat="45.17487" lon="5.85559">
        <ele>615.6</ele>
        <time>2020-06-06T09:03:24.000Z</time>
      </trkpt>
      <trkpt lat="45.17514" lon="5.85554">
        <ele>617.98</ele>
        <time>2020-06-06T09:03:29.000Z</time>
      </trkpt>
      <trkpt lat="45.1754" lon="5.85547">
        <ele>618.79</ele>
        <time>2020-06-06T09:03:34.000Z</time>
      </trkpt>
      <trkpt lat="45.17567" lon="5.85538">
        <ele>620.06</ele>
        <time>2020-06-06T09:03:39.000Z</time>
      </trkpt>
      <trkpt lat="45.17591" lon="5.85519">
        <ele>620.42</ele>
        <time>2020-06-06T09:03:44.000Z</time>
      </trkpt>
      <trkpt lat="45.17603" lon="5.85492">
        <ele>616.99</ele>
        <time>2020-06-06T09:03:49.000Z</time>
      </trkpt>
      <trkpt lat="45.17611" lon="5.85454">
        <ele>614.53</ele>
        <time>2020-06-06T09:03:54.000Z</time>
      </trkpt>
      <trkpt lat="45.1761" lon="5.85415">
        <ele>615.9</ele>
        <time>2020-06-06T09:03:59.000Z</time>
      </trkpt>
      <trkpt lat="45.17598" lon="5.85382">
        <ele>615.84</ele>
        <time>2020-06-06T09:04:04.000Z</time>
      </trkpt>
      <trkpt lat="45.17609" lon="5.85346">
        <ele>616.32</ele>
        <time>2020-06-06T09:04:09.000Z</time>
      </trkpt>
      <trkpt lat="45.1764" lon="5.85336">
        <ele>617.13</ele>
        <time>2020-06-06T09:04:14.000Z</time>
      </trkpt>
      <trkpt lat="45.17666" lon="5.85343">
        <ele>619.7</ele>
        <time>2020-06-06T09:04:19.000Z</time>
      </trkpt>
      <trkpt lat="45.1769" lon="5.85343">
        <ele>618.47</ele>
        <time>2020-06-06T09:04:24.000Z</time>
      </trkpt>
      <trkpt lat="45.17718" lon="5.85338">
        <ele>621.16</ele>
        <time>2020-06-06T09:04:29.000Z</time>
      </trkpt>
      <trkpt lat="45.17743" lon="5.85348">
        <ele>620.13</ele>
        <time>2020-06-06T09:04:34.000Z</time>
      </trkpt>
      <trkpt lat="45.17769" lon="5.85363">
        <ele>621.36</ele>
        <time>2020-06-06T09:04:39.000Z</time>
      </trkpt>
      <trkpt lat="45.17795" lon="5.85386">
        <ele>623.8</ele>
        <time>2020-06-06T09:04:44.000Z</time>
      </trkpt>
      <trkpt lat="45.17819" lon="5.85412">
        <ele>623.08</ele>
        <time>2020-06-06T09:04:49.000Z</time>
      </trkpt>
      <trkpt lat="45.17848" lon="5.85427">
        <ele>622.56</ele>
        <time>2020-06-06T09:04:54.000Z</time>
      </trkpt>
      <trkpt lat="45.17879" lon="5.85436">
        <ele>620.59</ele>
        <time>2020-06-06T09:04:59.000Z</time>
      </trkpt>
      <trkpt lat="45.17918" lon="5.85446">
        <ele>616.96</ele>
        <time>2020-06-06T09:05:04.000Z</time>
      </trkpt>
      <trkpt lat="45.17942" lon="5.8545">
        <ele>616.9</ele>
        <time>2020-06-06T09:05:09.000Z</time>
      </trkpt>
      <trkpt lat="45.17963" lon="5.8545">
        <ele>614.65</ele>
        <time>2020-06-06T09:05:14.000Z</time>
      </trkpt>
      <trkpt lat="45.17982" lon="5.85446">
        <ele>616.05</ele>
        <time>2020-06-06T09:05:19.000Z</time>
      </trkpt>
      <trkpt lat="45.18006" lon="5.85436">
        <ele>619.03</ele>
        <time>2020-06-06T09:05:24.000Z</time>
      </trkpt>
      <trkpt lat="45.18031" lon="5.85423">
        <ele>620.3</ele>
        <time>2020-06-06T09:05:29.000Z</time>
      </trkpt>
      <trkpt lat="45.18047" lon="5.85398">
        <ele>622.53</ele>
        <time>2020-06-06T09:05:34.000Z</time>
      </trkpt>
      <trkpt lat="45.18059" lon="5.85367">
        <ele>620.25</ele>
        <time>2020-06-06T09:05:39.000Z</time>
      </trkpt>
      <trkpt lat="45.1807" lon="5.85323">
        <ele>618.85</ele>
        <time>2020-06-06T09:05:44.000Z</time>
      </trkpt>
      <trkpt lat="45.18072" lon="5.85269">
        <ele>615.15</ele>
        <time>2020-06-06T09:05:49.000Z</time>
      </trkpt>
      <trkpt lat="45.18078" lon="5.8523">
        <ele>614.79</ele>
        <time>2020-06-06T09:05:54.000Z</time>
      </trkpt>
      <trkpt lat="45.18092" lon="5.85191">
        <ele>615.87</ele>
        <time>2020-06-06T09:05:59.000Z</time>
      </trkpt>
      <trkpt lat="45.18112" lon="5.8515">
        <ele>614.39</ele>
        <time>2020-06-06T09:06:04.000Z</time>
      </trkpt>
      <trkpt lat="45.18147" lon="5.85142">
        <ele>613.93</ele>
        <time>2020-06-06T09:06:09.000Z</time>
      </trkpt>
      <trkpt lat="45.18177" lon="5.85152">
        <ele>614.5</ele>
        <time>2020-06-06T09:06:14.000Z</time>
      </trkpt>
      <trkpt lat="45.18214" lon="5.85156">
        <ele>614.67</ele>
        <time>2020-06-06T09:06:19.000Z</time>
      </trkpt>
      <trkpt lat="45.18243" lon="5.8516">
        <ele>616.8</ele>
        <time>2020-06-06T09:06:24.000Z</time>
      </trkpt>
      <trkpt lat="45.18277" lon="5.85163">
        <ele>616.85</ele>
        <time>2020-06-06T09:06:29.000Z</time>
      </trkpt>
      <trkpt lat="45.18312" lon="5.85157">
        <ele>617.03</ele>
        <time>2020-06-06T09:06:34.000Z</time>
      </trkpt>
      <trkpt lat="45.18338" lon="5.85158">
        <ele>614.21</ele>
        <time>2020-06-06T09:06:39.000Z</time>
      </trkpt>
      <trkpt lat="45.18366" lon="5.85162">
        <ele>612.67</ele>
        <time>2020-06-06T09:06:44.000Z</time>
      </trkpt>
      <trkpt lat="45.18393" lon="5.85157">
        <ele>612.73</ele>
        <time>2020-06-06T09:06:49.000Z</time>
      </trkpt>
      <trkpt lat="45.18422" lon="5.85149">
        <ele>609.42</ele>
        <time>2020-06-06T09:06:54.000Z</time>
      </trkpt>
      <trkpt lat="45.18449" lon="5.85144">
        <ele>611.12</ele>
        <time>2020-06-06T09:06:59.000Z</time>
      </trkpt>
      <trkpt lat="45.18467" lon="5.85141">
        <ele>609.24</ele>
        <time>2020-06-06T09:07:04.000Z</time>
      </trkpt>
      <trkpt lat="45.185" lon="5.85122">
        <ele>610.04</ele>
        <time>2020-06-06T09:07:09.000Z</time>
      </trkpt>
      <trkpt lat="45.18525" lon="5.85106">
        <ele>609.09</ele>
        <time>2020-06-06T09:07:14.000Z</time>
      </trkpt>
      <trkpt lat="45.18556" lon="5.85101">
        <ele>608.56</ele>
        <time>2020-06-06T09:07:19.000Z</time>
      </trkpt>
      <trkpt lat="45.1858" lon="5.85084">
        <ele>607.25</ele>
        <time>2020-06-06T09:07:24.000Z</time>
      </trkpt>
      <trkpt lat="45.18612" lon="5.8508">
        <ele>606.89</ele>
        <time>2020-06-06T09:07:29.000Z</time>
      </trkpt>
      <trkpt lat="45.1864" lon="5.85066">
        <ele>609.39</ele>
        <time>2020-06-06T09:07:34.000Z</time>
      </trkpt>
      <trkpt lat="45.18663" lon="5.85044">
        <ele>602.84</ele>
        <time>2020-06-06T09:07:39.000Z</time>
      </trkpt>
      <trkpt lat="45.18656" lon="5.85005">
        <ele>595.89</ele>
        <time>2020-06-06T09:07:44.000Z</time>
      </trkpt>
      <trkpt lat="45.18646" lon="5.84968">
        <ele>596.24</ele>
        <time>2020-06-06T09:07:49.000Z</time>
      </trkpt>
      <trkpt lat="45.18636" lon="5.8493">
        <ele>596.96</ele>
        <time>2020-06-06T09:07:54.000Z</time>
      </trkpt>
      <trkpt lat="45.1863" lon="5.84888">
        <ele>597.38</ele>
        <time>2020-06-06T09:07:59.000Z</time>
      </trkpt>
      <trkpt lat="45.1863" lon="5.84845">
        <ele>593.71</ele>
        <time>2020-06-06T09:08:04.000Z</time>
      </trkpt>
      <trkpt lat="45.18626" lon="5.84806">
        <ele>595.89</ele>
        <time>2020-06-06T09:08:09.000Z</time>
      </trkpt>
      <trkpt lat="45.18604" lon="5.84769">
        <ele>592.9</ele>
        <time>2020-06-06T09:08:14.000Z</time>
      </trkpt>
      <trkpt lat="45.18599" lon="5.84734">
        <ele>594.65</ele>
        <time>2020-06-06T09:08:19.000Z</time>
      </trkpt>
      <trkpt lat="45.18591" lon="5.8469">
        <ele>595.25</ele>
        <time>2020-06-06T09:08:24.000Z</time>
      </trkpt>
      <trkpt lat="45.18619" lon="5.84671">
        <ele>594.59</ele>
        <time>2020-06-06T09:08:29.000Z</time>
      </trkpt>
      <trkpt lat="45.18658" lon="5.84682">
        <ele>597.33</ele>
        <time>2020-06-06T09:08:34.000Z</time>
      </trkpt>
      <trkpt lat="45.18691" lon="5.84685">
        <ele>592.34</ele>
        <time>2020-06-06T09:08:39.000Z</time>
      </trkpt>
      <trkpt lat="45.18707" lon="5.84661">
        <ele>588.69</ele>
        <time>2020-06-06T09:08:44.000Z</time>
      </trkpt>
      <trkpt lat="45.18717" lon="5.84631">
        <ele>589.83</ele>
        <time>2020-06-06T09:08:49.000Z</time>
      </trkpt>
      <trkpt lat="45.18727" lon="5.84592">
        <ele>591.08</ele>
        <time>2020-06-06T09:08:54.000Z</time>
      </trkpt>
      <trkpt lat="45.18765" lon="5.8456">
        <ele>593.03</ele>
        <time>2020-06-06T09:08:59.000Z</time>
      </trkpt>
      <trkpt lat="45.18804" lon="5.84541">
        <ele>593.79</ele>
        <time>2020-06-06T09:09:04.000Z</time>
      </trkpt>
      <trkpt lat="45.18843" lon="5.84534">
        <ele>598.57</ele>
        <time>2020-06-06T09:09:09.000Z</time>
      </trkpt>
      <trkpt lat="45.1887" lon="5.84537">
        <ele>593.76</ele>
        <time>2020-06-06T09:09:14.000Z</time>
      </trkpt>
      <trkpt lat="45.18902" lon="5.84539">
        <ele>587.2</ele>
        <time>2020-06-06T09:09:19.000Z</time>
      </trkpt>
      <trkpt lat="45.18919" lon="5.84518">
        <ele>590.79</ele>
        <time>2020-06-06T09:09:24.000Z</time>
      </trkpt>
      <trkpt lat="45.18921" lon="5.84471">
        <ele>586.01</ele>
        <time>2020-06-06T09:09:29.000Z</time>
      </trkpt>
      <trkpt lat="45.189" lon="5.84411">
        <ele>582.94</ele>
        <time>2020-06-06T09:09:34.000Z</time>
      </trkpt>
      <trkpt lat="45.18903" lon="5.84345">
        <ele>577.65</ele>
        <time>2020-06-06T09:09:39.000Z</time>
      </trkpt>
      <trkpt lat="45.18914" lon="5.84274">
        <ele>576.07</ele>
        <time>2020-06-06T09:09:44.000Z</time>
      </trkpt>
      <trkpt lat="45.18922" lon="5.84203">
        <ele>573.82</ele>
        <time>2020-06-06T09:09:49.000Z</time>
      </trkpt>
      <trkpt lat="45.18938" lon="5.84146">
        <ele>573.64</ele>
        <time>2020-06-06T09:09:54.000Z</time>
      </trkpt>
      <trkpt lat="45.18972" lon="5.84122">
        <ele>573.26</ele>
        <time>2020-06-06T09:09:59.000Z</time>
      </trkpt>
      <trkpt lat="45.19008" lon="5.84102">
        <ele>571.32</ele>
        <time>2020-06-06T09:10:04.000Z</time>
      </trkpt>
      <trkpt lat="45.1903" lon="5.84081">
        <ele>572.82</ele>
        <time>2020-06-06T09:10:09.000Z</time>
      </trkpt>
      <trkpt lat="45.19048" lon="5.84058">
        <ele>572.27</ele>
        <time>2020-06-06T09:10:14.000Z</time>
      </trkpt>
      <trkpt lat="45.19045" lon="5.84026">
        <ele>570.58</ele>
        <time>2020-06-06T09:10:19.000Z</time>
      </trkpt>
      <trkpt lat="45.19034" lon="5.83981">
        <ele>564.4</ele>
        <time>2020-06-06T09:10:24.000Z</time>
      </trkpt>
      <trkpt lat="45.19024" lon="5.83922">
        <ele>564.12</ele>
        <time>2020-06-06T09:10:29.000Z</time>
      </trkpt>
      <trkpt lat="45.19014" lon="5.8385">
        <ele>560.75</ele>
        <time>2020-06-06T09:10:34.000Z</time>
      </trkpt>
      <trkpt lat="45.18986" lon="5.8379">
        <ele>557.46</ele>
        <time>2020-06-06T09:10:39.000Z</time>
      </trkpt>
      <trkpt lat="45.18954" lon="5.83733">
        <ele>558.36</ele>
        <time>2020-06-06T09:10:44.000Z</time>
      </trkpt>
      <trkpt lat="45.18938" lon="5.83671">
        <ele>558.68</ele>
        <time>2020-06-06T09:10:49.000Z</time>
      </trkpt>
      <trkpt lat="45.18904" lon="5.83659">
        <ele>557.7</ele>
        <time>2020-06-06T09:10:54.000Z</time>
      </trkpt>
      <trkpt lat="45.18866" lon="5.83666">
        <ele>553.36</ele>
        <time>2020-06-06T09:10:59.000Z</time>
      </trkpt>
      <trkpt lat="45.18831" lon="5.8367">
        <ele>548.07</ele>
        <time>2020-06-06T09:11:04.000Z</time>
      </trkpt>
      <trkpt lat="45.18796" lon="5.83651">
        <ele>548.3</ele>
        <time>2020-06-06T09:11:09.000Z</time>
      </trkpt>
      <trkpt lat="45.18759" lon="5.83638">
        <ele>549.46</ele>
        <time>2020-06-06T09:11:14.000Z</time>
      </trkpt>
      <trkpt lat="45.18718" lon="5.83641">
        <ele>546.44</ele>
        <time>2020-06-06T09:11:19.000Z</time>
      </trkpt>
      <trkpt lat="45.18707" lon="5.83617">
        <ele>546.32</ele>
        <time>2020-06-06T09:11:24.000Z</time>
      </trkpt>
      <trkpt lat="45.18728" lon="5.83562">
        <ele>547.77</ele>
        <time>2020-06-06T09:11:29.000Z</time>
      </trkpt>
      <trkpt lat="45.18742" lon="5.83504">
        <ele>543.54</ele>
        <time>2020-06-06T09:11:34.000Z</time>
      </trkpt>
      <trkpt lat="45.18754" lon="5.83454">
        <ele>538.92</ele>
        <time>2020-06-06T09:11:39.000Z</time>
      </trkpt>
      <trkpt lat="45.18793" lon="5.83423">
        <ele>537.12</ele>
        <time>2020-06-06T09:11:44.000Z</time>
      </trkpt>
      <trkpt lat="45.18822" lon="5.83374">
        <ele>534.4</ele>
        <time>2020-06-06T09:11:49.000Z</time>
      </trkpt>
      <trkpt lat="45.18818" lon="5.83313">
        <ele>528.25</ele>
        <time>2020-06-06T09:11:54.000Z</time>
      </trkpt>
      <trkpt lat="45.18839" lon="5.83253">
        <ele>527.48</ele>
        <time>2020-06-06T09:11:59.000Z</time>
      </trkpt>
      <trkpt lat="45.18868" lon="5.83193">
        <ele>529.29</ele>
        <time>2020-06-06T09:12:04.000Z</time>
      </trkpt>
      <trkpt lat="45.18887" lon="5.83128">
        <ele>527.84</ele>
        <time>2020-06-06T09:12:09.000Z</time>
      </trkpt>
      <trkpt lat="45.18884" lon="5.83051">
        <ele>523.86</ele>
        <time>2020-06-06T09:12:14.000Z</time>
      </trkpt>
      <trkpt lat="45.18906" lon="5.82974">
        <ele>515.31</ele>
        <time>2020-06-06T09:12:19.000Z</time>
      </trkpt>
      <trkpt lat="45.18895" lon="5.82888">
        <ele>509.3</ele>
        <time>2020-06-06T09:12:24.000Z</time>
      </trkpt>
      <trkpt lat="45.18865" lon="5.82808">
        <ele>507.29</ele>
        <time>2020-06-06T09:12:29.000Z</time>
      </trkpt>
      <trkpt lat="45.1883" lon="5.82735">
        <ele>504.47</ele>
        <time>2020-06-06T09:12:34.000Z</time>
      </trkpt>
      <trkpt lat="45.18792" lon="5.82669">
        <ele>497.48</ele>
        <time>2020-06-06T09:12:39.000Z</time>
      </trkpt>
      <trkpt lat="45.18744" lon="5.82657">
        <ele>496.41</ele>
        <time>2020-06-06T09:12:44.000Z</time>
      </trkpt>
      <trkpt lat="45.18689" lon="5.82664">
        <ele>489.08</ele>
        <time>2020-06-06T09:12:49.000Z</time>
      </trkpt>
      <trkpt lat="45.18639" lon="5.82621">
        <ele>483.45</ele>
        <time>2020-06-06T09:12:54.000Z</time>
      </trkpt>
      <trkpt lat="45.18589" lon="5.82575">
        <ele>480.15</ele>
        <time>2020-06-06T09:12:59.000Z</time>
      </trkpt>
      <trkpt lat="45.1855" lon="5.82531">
        <ele>477.52</ele>
        <time>2020-06-06T09:13:04.000Z</time>
      </trkpt>
      <trkpt lat="45.18502" lon="5.82535">
        <ele>472.06</ele>
        <time>2020-06-06T09:13:09.000Z</time>
      </trkpt>
      <trkpt lat="45.18459" lon="5.82581">
        <ele>466.23</ele>
        <time>2020-06-06T09:13:14.000Z</time>
      </trkpt>
      <trkpt lat="45.18406" lon="5.82643">
        <ele>459.74</ele>
        <time>2020-06-06T09:13:19.000Z</time>
      </trkpt>
      <trkpt lat="45.18403" lon="5.82606">
        <ele>456.51</ele>
        <time>2020-06-06T09:13:24.000Z</time>
      </trkpt>
      <trkpt lat="45.18417" lon="5.82565">
        <ele>455.39</ele>
        <time>2020-06-06T09:13:29.000Z</time>
      </trkpt>
      <trkpt lat="45.18421" lon="5.8254">
        <ele>453.92</ele>
        <time>2020-06-06T09:13:34.000Z</time>
      </trkpt>
      <trkpt lat="45.18436" lon="5.82507">
        <ele>455.73</ele>
        <time>2020-06-06T09:13:39.000Z</time>
      </trkpt>
      <trkpt lat="45.18447" lon="5.82481">
        <ele>456.93</ele>
        <time>2020-06-06T09:13:44.000Z</time>
      </trkpt>
      <trkpt lat="45.18443" lon="5.82455">
        <ele>458.66</ele>
        <time>2020-06-06T09:13:49.000Z</time>
      </trkpt>
      <trkpt lat="45.18458" lon="5.82422">
        <ele>462.07</ele>
        <time>2020-06-06T09:13:54.000Z</time>
      </trkpt>
      <trkpt lat="45.18476" lon="5.82402">
        <ele>461.72</ele>
        <time>2020-06-06T09:13:59.000Z</time>
      </trkpt>
      <trkpt lat="45.18488" lon="5.82377">
        <ele>457.82</ele>
        <time>2020-06-06T09:14:04.000Z</time>
      </trkpt>
      <trkpt lat="45.18512" lon="5.82353">
        <ele>460.55</ele>
        <time>2020-06-06T09:14:09.000Z</time>
      </trkpt>
      <trkpt lat="45.18526" lon="5.82341">
        <ele>458.55</ele>
        <time>2020-06-06T09:14:14.000Z</time>
      </trkpt>
      <trkpt lat="45.18529" lon="5.82327">
        <ele>455.85</ele>
        <time>2020-06-06T09:14:19.000Z</time>
      </trkpt>
      <trkpt lat="45.18531" lon="5.82313">
        <ele>459.03</ele>
        <time>2020-06-06T09:16:05.000Z</time>
      </trkpt>
      <trkpt lat="45.18533" lon="5.82292">
        <ele>458.1</ele>
        <time>2020-06-06T09:16:10.000Z</time>
      </trkpt>
      <trkpt lat="45.18534" lon="5.82257">
        <ele>457.05</ele>
        <time>2020-06-06T09:16:15.000Z</time>
      </trkpt>
      <trkpt lat="45.18539" lon="5.82208">
        <ele>454.42</ele>
        <time>2020-06-06T09:16:20.000Z</time>
      </trkpt>
      <trkpt lat="45.18552" lon="5.82145">
        <ele>454.26</ele>
        <time>2020-06-06T09:16:25.000Z</time>
      </trkpt>
      <trkpt lat="45.18549" lon="5.82086">
        <ele>447.33</ele>
        <time>2020-06-06T09:16:30.000Z</time>
      </trkpt>
      <trkpt lat="45.18568" lon="5.82036">
        <ele>442.72</ele>
        <time>2020-06-06T09:16:35.000Z</time>
      </trkpt>
      <trkpt lat="45.18541" lon="5.81975">
        <ele>442.2</ele>
        <time>2020-06-06T09:16:40.000Z</time>
      </trkpt>
      <trkpt lat="45.18509" lon="5.81904">
        <ele>439</ele>
        <time>2020-06-06T09:16:45.000Z</time>
      </trkpt>
      <trkpt lat="45.18483" lon="5.81841">
        <ele>437.34</ele>
        <time>2020-06-06T09:16:50.000Z</time>
      </trkpt>
      <trkpt lat="45.18501" lon="5.81841">
        <ele>435.58</ele>
        <time>2020-06-06T09:16:55.000Z</time>
      </trkpt>
      <trkpt lat="45.18525" lon="5.81883">
        <ele>430.61</ele>
        <time>2020-06-06T09:17:00.000Z</time>
      </trkpt>
      <trkpt lat="45.18563" lon="5.81929">
        <ele>424.34</ele>
        <time>2020-06-06T09:17:05.000Z</time>
      </trkpt>
      <trkpt lat="45.186" lon="5.81983">
        <ele>422.37</ele>
        <time>2020-06-06T09:17:10.000Z</time>
      </trkpt>
      <trkpt lat="45.18631" lon="5.82035">
        <ele>419.14</ele>
        <time>2020-06-06T09:17:15.000Z</time>
      </trkpt>
      <trkpt lat="45.18652" lon="5.82074">
        <ele>415.21</ele>
        <time>2020-06-06T09:17:20.000Z</time>
      </trkpt>
      <trkpt lat="45.18672" lon="5.82036">
        <ele>413.53</ele>
        <time>2020-06-06T09:17:25.000Z</time>
      </trkpt>
      <trkpt lat="45.18682" lon="5.81984">
        <ele>411.11</ele>
        <time>2020-06-06T09:17:30.000Z</time>
      </trkpt>
      <trkpt lat="45.18664" lon="5.81927">
        <ele>412.02</ele>
        <time>2020-06-06T09:17:35.000Z</time>
      </trkpt>
      <trkpt lat="45.18643" lon="5.8187">
        <ele>409.46</ele>
        <time>2020-06-06T09:17:40.000Z</time>
      </trkpt>
      <trkpt lat="45.18602" lon="5.81841">
        <ele>408.04</ele>
        <time>2020-06-06T09:17:45.000Z</time>
      </trkpt>
      <trkpt lat="45.18595" lon="5.818">
        <ele>406.85</ele>
        <time>2020-06-06T09:17:50.000Z</time>
      </trkpt>
      <trkpt lat="45.18618" lon="5.81742">
        <ele>401.04</ele>
        <time>2020-06-06T09:17:55.000Z</time>
      </trkpt>
      <trkpt lat="45.18609" lon="5.81667">
        <ele>395.94</ele>
        <time>2020-06-06T09:18:00.000Z</time>
      </trkpt>
      <trkpt lat="45.18603" lon="5.81583">
        <ele>390.49</ele>
        <time>2020-06-06T09:18:05.000Z</time>
      </trkpt>
      <trkpt lat="45.18597" lon="5.81492">
        <ele>386.89</ele>
        <time>2020-06-06T09:18:10.000Z</time>
      </trkpt>
      <trkpt lat="45.1859" lon="5.81405">
        <ele>378.16</ele>
        <time>2020-06-06T09:18:15.000Z</time>
      </trkpt>
      <trkpt lat="45.18565" lon="5.81348">
        <ele>372.31</ele>
        <time>2020-06-06T09:18:20.000Z</time>
      </trkpt>
      <trkpt lat="45.18547" lon="5.81316">
        <ele>370.39</ele>
        <time>2020-06-06T09:18:25.000Z</time>
      </trkpt>
      <trkpt lat="45.18576" lon="5.81344">
        <ele>365.87</ele>
        <time>2020-06-06T09:18:30.000Z</time>
      </trkpt>
      <trkpt lat="45.18599" lon="5.81392">
        <ele>362.3</ele>
        <time>2020-06-06T09:18:35.000Z</time>
      </trkpt>
      <trkpt lat="45.18625" lon="5.81451">
        <ele>357.58</ele>
        <time>2020-06-06T09:18:40.000Z</time>
      </trkpt>
      <trkpt lat="45.18665" lon="5.8152">
        <ele>348.85</ele>
        <time>2020-06-06T09:18:45.000Z</time>
      </trkpt>
      <trkpt lat="45.18694" lon="5.81598">
        <ele>345.12</ele>
        <time>2020-06-06T09:18:50.000Z</time>
      </trkpt>
      <trkpt lat="45.18726" lon="5.81679">
        <ele>342.41</ele>
        <time>2020-06-06T09:18:55.000Z</time>
      </trkpt>
      <trkpt lat="45.18741" lon="5.81748">
        <ele>338.47</ele>
        <time>2020-06-06T09:19:00.000Z</time>
      </trkpt>
      <trkpt lat="45.18747" lon="5.81736">
        <ele>333.1</ele>
        <time>2020-06-06T09:19:05.000Z</time>
      </trkpt>
      <trkpt lat="45.18739" lon="5.81716">
        <ele>331.11</ele>
        <time>2020-06-06T09:19:10.000Z</time>
      </trkpt>
      <trkpt lat="45.18733" lon="5.81691">
        <ele>326.77</ele>
        <time>2020-06-06T09:19:15.000Z</time>
      </trkpt>
      <trkpt lat="45.18731" lon="5.8163">
        <ele>325.11</ele>
        <time>2020-06-06T09:19:20.000Z</time>
      </trkpt>
      <trkpt lat="45.18724" lon="5.81559">
        <ele>317.13</ele>
        <time>2020-06-06T09:19:25.000Z</time>
      </trkpt>
      <trkpt lat="45.18735" lon="5.81475">
        <ele>317.91</ele>
        <time>2020-06-06T09:19:30.000Z</time>
      </trkpt>
      <trkpt lat="45.18712" lon="5.81406">
        <ele>309.47</ele>
        <time>2020-06-06T09:19:35.000Z</time>
      </trkpt>
      <trkpt lat="45.18701" lon="5.81371">
        <ele>307.58</ele>
        <time>2020-06-06T09:19:40.000Z</time>
      </trkpt>
      <trkpt lat="45.18726" lon="5.81396">
        <ele>304.85</ele>
        <time>2020-06-06T09:19:45.000Z</time>
      </trkpt>
      <trkpt lat="45.18745" lon="5.81436">
        <ele>302.07</ele>
        <time>2020-06-06T09:19:50.000Z</time>
      </trkpt>
      <trkpt lat="45.1876" lon="5.81471">
        <ele>299.8</ele>
        <time>2020-06-06T09:19:55.000Z</time>
      </trkpt>
      <trkpt lat="45.18789" lon="5.81517">
        <ele>298.73</ele>
        <time>2020-06-06T09:20:00.000Z</time>
      </trkpt>
      <trkpt lat="45.18804" lon="5.81578">
        <ele>288.17</ele>
        <time>2020-06-06T09:20:05.000Z</time>
      </trkpt>
      <trkpt lat="45.18827" lon="5.81653">
        <ele>282.94</ele>
        <time>2020-06-06T09:20:10.000Z</time>
      </trkpt>
      <trkpt lat="45.18849" lon="5.81693">
        <ele>279.38</ele>
        <time>2020-06-06T09:20:15.000Z</time>
      </trkpt>
      <trkpt lat="45.18891" lon="5.81743">
        <ele>278.99</ele>
        <time>2020-06-06T09:20:20.000Z</time>
      </trkpt>
      <trkpt lat="45.1893" lon="5.81812">
        <ele>269.74</ele>
        <time>2020-06-06T09:20:25.000Z</time>
      </trkpt>
      <trkpt lat="45.18967" lon="5.81876">
        <ele>261.98</ele>
        <time>2020-06-06T09:20:30.000Z</time>
      </trkpt>
      <trkpt lat="45.19007" lon="5.81907">
        <ele>257.56</ele>
        <time>2020-06-06T09:20:35.000Z</time>
      </trkpt>
      <trkpt lat="45.19029" lon="5.81925">
        <ele>249.43</ele>
        <time>2020-06-06T09:20:40.000Z</time>
      </trkpt>
      <trkpt lat="45.1906" lon="5.81908">
        <ele>247.8</ele>
        <time>2020-06-06T09:20:45.000Z</time>
      </trkpt>
      <trkpt lat="45.19098" lon="5.81887">
        <ele>245.25</ele>
        <time>2020-06-06T09:20:50.000Z</time>
      </trkpt>
      <trkpt lat="45.19124" lon="5.81856">
        <ele>241.85</ele>
        <time>2020-06-06T09:20:55.000Z</time>
      </trkpt>
      <trkpt lat="45.19151" lon="5.81812">
        <ele>241.55</ele>
        <time>2020-06-06T09:21:00.000Z</time>
      </trkpt>
      <trkpt lat="45.19174" lon="5.81772">
        <ele>238.89</ele>
        <time>2020-06-06T09:21:05.000Z</time>
      </trkpt>
      <trkpt lat="45.192" lon="5.81738">
        <ele>238.41</ele>
        <time>2020-06-06T09:21:10.000Z</time>
      </trkpt>
      <trkpt lat="45.19214" lon="5.81717">
        <ele>234.96</ele>
        <time>2020-06-06T09:21:15.000Z</time>
      </trkpt>
      <trkpt lat="45.19203" lon="5.81685">
        <ele>230.99</ele>
        <time>2020-06-06T09:21:20.000Z</time>
      </trkpt>
      <trkpt lat="45.19195" lon="5.8165">
        <ele>229.02</ele>
        <time>2020-06-06T09:21:25.000Z</time>
      </trkpt>
      <trkpt lat="45.19182" lon="5.81616">
        <ele>221.68</ele>
        <time>2020-06-06T09:21:30.000Z</time>
      </trkpt>
      <trkpt lat="45.19161" lon="5.81585">
        <ele>220.05</ele>
        <time>2020-06-06T09:21:35.000Z</time>
      </trkpt>
      <trkpt lat="45.19143" lon="5.81544">
        <ele>219.39</ele>
        <time>2020-06-06T09:21:40.000Z</time>
      </trkpt>
      <trkpt lat="45.19125" lon="5.81504">
        <ele>217.4</ele>
        <time>2020-06-06T09:21:45.000Z</time>
      </trkpt>
      <trkpt lat="45.19111" lon="5.81461">
        <ele>217.04</ele>
        <time>2020-06-06T09:21:50.000Z</time>
      </trkpt>
      <trkpt lat="45.19095" lon="5.81421">
        <ele>217.86</ele>
        <time>2020-06-06T09:21:55.000Z</time>
      </trkpt>
      <trkpt lat="45.19074" lon="5.8138">
        <ele>216.32</ele>
        <time>2020-06-06T09:22:00.000Z</time>
      </trkpt>
      <trkpt lat="45.1906" lon="5.81345">
        <ele>216.87</ele>
        <time>2020-06-06T09:22:05.000Z</time>
      </trkpt>
      <trkpt lat="45.19046" lon="5.81312">
        <ele>213.52</ele>
        <time>2020-06-06T09:22:10.000Z</time>
      </trkpt>
      <trkpt lat="45.19026" lon="5.8128">
        <ele>214.04</ele>
        <time>2020-06-06T09:22:15.000Z</time>
      </trkpt>
      <trkpt lat="45.19011" lon="5.81244">
        <ele>217.5</ele>
        <time>2020-06-06T09:22:20.000Z</time>
      </trkpt>
      <trkpt lat="45.18999" lon="5.81214">
        <ele>215.24</ele>
        <time>2020-06-06T09:22:25.000Z</time>
      </trkpt>
      <trkpt lat="45.18986" lon="5.8118">
        <ele>212.39</ele>
        <time>2020-06-06T09:22:30.000Z</time>
      </trkpt>
      <trkpt lat="45.18971" lon="5.81147">
        <ele>210.22</ele>
        <time>2020-06-06T09:22:35.000Z</time>
      </trkpt>
      <trkpt lat="45.18956" lon="5.81118">
        <ele>209.13</ele>
        <time>2020-06-06T09:22:40.000Z</time>
      </trkpt>
      <trkpt lat="45.18941" lon="5.81089">
        <ele>210.06</ele>
        <time>2020-06-06T09:22:45.000Z</time>
      </trkpt>
      <trkpt lat="45.18929" lon="5.81062">
        <ele>209.87</ele>
        <time>2020-06-06T09:22:50.000Z</time>
      </trkpt>
      <trkpt lat="45.18915" lon="5.81037">
        <ele>212.95</ele>
        <time>2020-06-06T09:22:55.000Z</time>
      </trkpt>
      <trkpt lat="45.18907" lon="5.81009">
        <ele>207.93</ele>
        <time>2020-06-06T09:23:00.000Z</time>
      </trkpt>
      <trkpt lat="45.18896" lon="5.8098">
        <ele>206.34</ele>
        <time>2020-06-06T09:23:05.000Z</time>
      </trkpt>
      <trkpt lat="45.18882" lon="5.80946">
        <ele>201.53</ele>
        <time>2020-06-06T09:23:10.000Z</time>
      </trkpt>
      <trkpt lat="45.18868" lon="5.8091">
        <ele>202.03</ele>
        <time>2020-06-06T09:23:15.000Z</time>
      </trkpt>
      <trkpt lat="45.18851" lon="5.80877">
        <ele>201.61</ele>
        <time>2020-06-06T09:23:20.000Z</time>
      </trkpt>
      <trkpt lat="45.18837" lon="5.80845">
        <ele>206.08</ele>
        <time>2020-06-06T09:23:25.000Z</time>
      </trkpt>
      <trkpt lat="45.18817" lon="5.80817">
        <ele>205.92</ele>
        <time>2020-06-06T09:23:30.000Z</time>
      </trkpt>
      <trkpt lat="45.18807" lon="5.8079">
        <ele>207.94</ele>
        <time>2020-06-06T09:23:35.000Z</time>
      </trkpt>
      <trkpt lat="45.1879" lon="5.80764">
        <ele>208.56</ele>
        <time>2020-06-06T09:23:40.000Z</time>
      </trkpt>
      <trkpt lat="45.18774" lon="5.80749">
        <ele>211.43</ele>
        <time>2020-06-06T09:23:45.000Z</time>
      </trkpt>
      <trkpt lat="45.18778" lon="5.80733">
        <ele>215.96</ele>
        <time>2020-06-06T09:23:50.000Z</time>
      </trkpt>
      <trkpt lat="45.18794" lon="5.80724">
        <ele>215.1</ele>
        <time>2020-06-06T09:23:55.000Z</time>
      </trkpt>
      <trkpt lat="45.18813" lon="5.80724">
        <ele>219.44</ele>
        <time>2020-06-06T09:24:00.000Z</time>
      </trkpt>
      <trkpt lat="45.18832" lon="5.80711">
        <ele>219.54</ele>
        <time>2020-06-06T09:24:05.000Z</time>
      </trkpt>
      <trkpt lat="45.18847" lon="5.80695">
        <ele>224.23</ele>
        <time>2020-06-06T09:24:10.000Z</time>
      </trkpt>
      <trkpt lat="45.18844" lon="5.80673">
        <ele>224.03</ele>
        <time>2020-06-06T09:24:15.000Z</time>
      </trkpt>
      <trkpt lat="45.1883" lon="5.80662">
        <ele>223.26</ele>
        <time>2020-06-06T09:24:20.000Z</time>
      </trkpt>
      <trkpt lat="45.18812" lon="5.80653">
        <ele>223.02</ele>
        <time>2020-06-06T09:24:25.000Z</time>
      </trkpt>
      <trkpt lat="45.1879" lon="5.80644">
        <ele>221.23</ele>
        <time>2020-06-06T09:24:30.000Z</time>
      </trkpt>
      <trkpt lat="45.18766" lon="5.80633">
        <ele>225.3</ele>
        <time>2020-06-06T09:24:35.000Z</time>
      </trkpt>
      <trkpt lat="45.18746" lon="5.80616">
        <ele>226.46</ele>
        <time>2020-06-06T09:24:40.000Z</time>
      </trkpt>
      <trkpt lat="45.18727" lon="5.80594">
        <ele>223.14</ele>
        <time>2020-06-06T09:24:45.000Z</time>
      </trkpt>
      <trkpt lat="45.18708" lon="5.80563">
        <ele>223.56</ele>
        <time>2020-06-06T09:24:50.000Z</time>
      </trkpt>
      <trkpt lat="45.18696" lon="5.80534">
        <ele>222.74</ele>
        <time>2020-06-06T09:24:55.000Z</time>
      </trkpt>
      <trkpt lat="45.18686" lon="5.80505">
        <ele>225.1</ele>
        <time>2020-06-06T09:25:00.000Z</time>
      </trkpt>
      <trkpt lat="45.18672" lon="5.80474">
        <ele>224.41</ele>
        <time>2020-06-06T09:25:05.000Z</time>
      </trkpt>
      <trkpt lat="45.18671" lon="5.80437">
        <ele>225.81</ele>
        <time>2020-06-06T09:25:10.000Z</time>
      </trkpt>
      <trkpt lat="45.18667" lon="5.804">
        <ele>226.02</ele>
        <time>2020-06-06T09:25:15.000Z</time>
      </trkpt>
      <trkpt lat="45.18663" lon="5.80363">
        <ele>227.56</ele>
        <time>2020-06-06T09:25:20.000Z</time>
      </trkpt>
      <trkpt lat="45.18655" lon="5.80337">
        <ele>225.43</ele>
        <time>2020-06-06T09:25:25.000Z</time>
      </trkpt>
      <trkpt lat="45.18655" lon="5.80324">
        <ele>224.74</ele>
        <time>2020-06-06T09:27:39.000Z</time>
      </trkpt>
      <trkpt lat="45.18654" lon="5.80303">
        <ele>224.26</ele>
        <time>2020-06-06T09:27:44.000Z</time>
      </trkpt>
      <trkpt lat="45.18655" lon="5.80275">
        <ele>222.01</ele>
        <time>2020-06-06T09:27:49.000Z</time>
      </trkpt>
      <trkpt lat="45.18655" lon="5.80248">
        <ele>218.91</ele>
        <time>2020-06-06T09:27:54.000Z</time>
      </trkpt>
      <trkpt lat="45.18667" lon="5.80215">
        <ele>218.88</ele>
        <time>2020-06-06T09:27:59.000Z</time>
      </trkpt>
      <trkpt lat="45.18679" lon="5.80183">
        <ele>215.78</ele>
        <time>2020-06-06T09:28:04.000Z</time>
      </trkpt>
      <trkpt lat="45.1869" lon="5.80146">
        <ele>218.35</ele>
        <time>2020-06-06T09:28:09.000Z</time>
      </trkpt>
      <trkpt lat="45.18699" lon="5.80112">
        <ele>221.02</ele>
        <time>2020-06-06T09:28:14.000Z</time>
      </trkpt>
      <trkpt lat="45.18699" lon="5.80092">
        <ele>219.38</ele>
        <time>2020-06-06T09:28:19.000Z</time>
      </trkpt>
      <trkpt lat="45.18694" lon="5.80069">
        <ele>216.06</ele>
        <time>2020-06-06T09:28:24.000Z</time>
      </trkpt>
      <trkpt lat="45.18685" lon="5.80044">
        <ele>218.36</ele>
        <time>2020-06-06T09:28:29.000Z</time>
      </trkpt>
      <trkpt lat="45.18681" lon="5.80022">
        <ele>217.56</ele>
        <time>2020-06-06T09:28:34.000Z</time>
      </trkpt>
      <trkpt lat="45.18668" lon="5.79991">
        <ele>217.88</ele>
        <time>2020-06-06T09:28:39.000Z</time>
      </trkpt>
      <trkpt lat="45.18656" lon="5.79958">
        <ele>218</ele>
        <time>2020-06-06T09:28:44.000Z</time>
      </trkpt>
      <trkpt lat="45.18638" lon="5.79935">
        <ele>218.74</ele>
        <time>2020-06-06T09:28:49.000Z</time>
      </trkpt>
      <trkpt lat="45.18618" lon="5.79922">
        <ele>217.04</ele>
        <time>2020-06-06T09:28:54.000Z</time>
      </trkpt>
      <trkpt lat="45.18597" lon="5.79914">
        <ele>220.11</ele>
        <time>2020-06-06T09:28:59.000Z</time>
      </trkpt>
      <trkpt lat="45.18576" lon="5.79903">
        <ele>218.59</ele>
        <time>2020-06-06T09:29:04.000Z</time>
      </trkpt>
      <trkpt lat="45.18561" lon="5.7989">
        <ele>218.76</ele>
        <time>2020-06-06T09:29:09.000Z</time>
      </trkpt>
      <trkpt lat="45.18547" lon="5.79887">
        <ele>216.72</ele>
        <time>2020-06-06T09:29:14.000Z</time>
      </trkpt>
      <trkpt lat="45.18546" lon="5.7987">
        <ele>215.45</ele>
        <time>2020-06-06T09:29:39.000Z</time>
      </trkpt>
      <trkpt lat="45.18546" lon="5.79847">
        <ele>218.88</ele>
        <time>2020-06-06T09:29:44.000Z</time>
      </trkpt>
      <trkpt lat="45.18546" lon="5.79821">
        <ele>218.33</ele>
        <time>2020-06-06T09:29:49.000Z</time>
      </trkpt>
      <trkpt lat="45.1855" lon="5.79783">
        <ele>220.34</ele>
        <time>2020-06-06T09:29:54.000Z</time>
      </trkpt>
      <trkpt lat="45.18549" lon="5.79754">
        <ele>220.98</ele>
        <time>2020-06-06T09:29:59.000Z</time>
      </trkpt>
      <trkpt lat="45.18557" lon="5.7971">
        <ele>219.21</ele>
        <time>2020-06-06T09:30:04.000Z</time>
      </trkpt>
      <trkpt lat="45.18558" lon="5.79673">
        <ele>218.39</ele>
        <time>2020-06-06T09:30:09.000Z</time>
      </trkpt>
      <trkpt lat="45.18558" lon="5.79638">
        <ele>218.9</ele>
        <time>2020-06-06T09:30:14.000Z</time>
      </trkpt>
      <trkpt lat="45.1856" lon="5.796">
        <ele>225.64</ele>
        <time>2020-06-06T09:30:19.000Z</time>
      </trkpt>
      <trkpt lat="45.18555" lon="5.7957">
        <ele>224.96</ele>
        <time>2020-06-06T09:30:24.000Z</time>
      </trkpt>
      <trkpt lat="45.18549" lon="5.7954">
        <ele>221.78</ele>
        <time>2020-06-06T09:30:29.000Z</time>
      </trkpt>
      <trkpt lat="45.18539" lon="5.7952">
        <ele>221.04</ele>
        <time>2020-06-06T09:30:34.000Z</time>
      </trkpt>
      <trkpt lat="45.18533" lon="5.795">
        <ele>220.72</ele>
        <time>2020-06-06T09:30:39.000Z</time>
      </trkpt>
      <trkpt lat="45.18533" lon="5.79481">
        <ele>218.54</ele>
        <time>2020-06-06T09:30:44.000Z</time>
      </trkpt>
      <trkpt lat="45.1853" lon="5.79463">
        <ele>217.7</ele>
        <time>2020-06-06T09:30:49.000Z</time>
      </trkpt>
      <trkpt lat="45.18529" lon="5.79448">
        <ele>216.06</ele>
        <time>2020-06-06T09:30:54.000Z</time>
      </trkpt>
      <trkpt lat="45.18528" lon="5.79431">
        <ele>215.12</ele>
        <time>2020-06-06T09:30:59.000Z</time>
      </trkpt>
      <trkpt lat="45.18525" lon="5.79407">
        <ele>215.67</ele>
        <time>2020-06-06T09:31:04.000Z</time>
      </trkpt>
      <trkpt lat="45.18522" lon="5.79383">
        <ele>216.94</ele>
        <time>2020-06-06T09:31:09.000Z</time>
      </trkpt>
      <trkpt lat="45.1852" lon="5.79358">
        <ele>218.52</ele>
        <time>2020-06-06T09:31:14.000Z</time>
      </trkpt>
      <trkpt lat="45.18525" lon="5.79332">
        <ele>217.25</ele>
        <time>2020-06-06T09:31:19.000Z</time>
      </trkpt>
      <trkpt lat="45.18532" lon="5.79303">
        <ele>218.74</ele>
        <time>2020-06-06T09:31:24.000Z</time>
      </trkpt>
      <trkpt lat="45.18537" lon="5.79274">
        <ele>216.01</ele>
        <time>2020-06-06T09:31:29.000Z</time>
      </trkpt>
      <trkpt lat="45.1855" lon="5.7924">
        <ele>217.31</ele>
        <time>2020-06-06T09:31:34.000Z</time>
      </trkpt>
      <trkpt lat="45.18554" lon="5.79205">
        <ele>219.39</ele>
        <time>2020-06-06T09:31:39.000Z</time>
      </trkpt>
      <trkpt lat="45.18539" lon="5.7918">
        <ele>223.12</ele>
        <time>2020-06-06T09:31:44.000Z</time>
      </trkpt>
      <trkpt lat="45.18521" lon="5.79153">
        <ele>235.48</ele>
        <time>2020-06-06T09:31:49.000Z</time>
      </trkpt>
      <trkpt lat="45.18508" lon="5.79125">
        <ele>231.22</ele>
        <time>2020-06-06T09:31:54.000Z</time>
      </trkpt>
      <trkpt lat="45.18505" lon="5.79091">
        <ele>227.63</ele>
        <time>2020-06-06T09:31:59.000Z</time>
      </trkpt>
      <trkpt lat="45.18501" lon="5.79065">
        <ele>224.24</ele>
        <time>2020-06-06T09:32:04.000Z</time>
      </trkpt>
      <trkpt lat="45.18495" lon="5.79049">
        <ele>220.38</ele>
        <time>2020-06-06T09:32:09.000Z</time>
      </trkpt>
      <trkpt lat="45.1848" lon="5.79047">
        <ele>221.5</ele>
        <time>2020-06-06T09:32:14.000Z</time>
      </trkpt>
      <trkpt lat="45.1846" lon="5.79054">
        <ele>221.22</ele>
        <time>2020-06-06T09:32:19.000Z</time>
      </trkpt>
      <trkpt lat="45.18441" lon="5.79058">
        <ele>220.31</ele>
        <time>2020-06-06T09:32:24.000Z</time>
      </trkpt>
      <trkpt lat="45.18421" lon="5.7906">
        <ele>221.25</ele>
        <time>2020-06-06T09:32:29.000Z</time>
      </trkpt>
      <trkpt lat="45.18402" lon="5.79065">
        <ele>223.16</ele>
        <time>2020-06-06T09:32:34.000Z</time>
      </trkpt>
      <trkpt lat="45.18386" lon="5.79077">
        <ele>229.08</ele>
        <time>2020-06-06T09:32:39.000Z</time>
      </trkpt>
      <trkpt lat="45.1837" lon="5.79093">
        <ele>232.41</ele>
        <time>2020-06-06T09:32:44.000Z</time>
      </trkpt>
      <trkpt lat="45.18358" lon="5.79105">
        <ele>234.89</ele>
        <time>2020-06-06T09:32:49.000Z</time>
      </trkpt>
      <trkpt lat="45.18347" lon="5.79122">
        <ele>231.22</ele>
        <time>2020-06-06T09:32:54.000Z</time>
      </trkpt>
      <trkpt lat="45.18335" lon="5.79138">
        <ele>227.81</ele>
        <time>2020-06-06T09:32:59.000Z</time>
      </trkpt>
      <trkpt lat="45.18322" lon="5.79153">
        <ele>228.2</ele>
        <time>2020-06-06T09:33:04.000Z</time>
      </trkpt>
      <trkpt lat="45.18301" lon="5.79171">
        <ele>229.55</ele>
        <time>2020-06-06T09:33:09.000Z</time>
      </trkpt>
      <trkpt lat="45.18281" lon="5.79183">
        <ele>228.98</ele>
        <time>2020-06-06T09:33:14.000Z</time>
      </trkpt>
      <trkpt lat="45.18265" lon="5.79191">
        <ele>230.37</ele>
        <time>2020-06-06T09:33:19.000Z</time>
      </trkpt>
      <trkpt lat="45.18248" lon="5.79201">
        <ele>232.38</ele>
        <time>2020-06-06T09:33:24.000Z</time>
      </trkpt>
      <trkpt lat="45.18228" lon="5.79212">
        <ele>234.09</ele>
        <time>2020-06-06T09:33:29.000Z</time>
      </trkpt>
      <trkpt lat="45.18212" lon="5.79227">
        <ele>235.08</ele>
        <time>2020-06-06T09:33:34.000Z</time>
      </trkpt>
      <trkpt lat="45.18204" lon="5.79235">
        <ele>235.03</ele>
        <time>2020-06-06T09:33:39.000Z</time>
      </trkpt>
      <trkpt lat="45.18199" lon="5.7922">
        <ele>231.18</ele>
        <time>2020-06-06T09:33:49.000Z</time>
      </trkpt>
      <trkpt lat="45.1819" lon="5.79197">
        <ele>231.79</ele>
        <time>2020-06-06T09:33:54.000Z</time>
      </trkpt>
      <trkpt lat="45.18178" lon="5.79179">
        <ele>230.85</ele>
        <time>2020-06-06T09:33:59.000Z</time>
      </trkpt>
      <trkpt lat="45.18171" lon="5.79151">
        <ele>233.88</ele>
        <time>2020-06-06T09:34:04.000Z</time>
      </trkpt>
      <trkpt lat="45.18169" lon="5.7912">
        <ele>235.62</ele>
        <time>2020-06-06T09:34:09.000Z</time>
      </trkpt>
      <trkpt lat="45.18164" lon="5.79093">
        <ele>234.31</ele>
        <time>2020-06-06T09:34:14.000Z</time>
      </trkpt>
      <trkpt lat="45.18165" lon="5.79065">
        <ele>235.07</ele>
        <time>2020-06-06T09:34:19.000Z</time>
      </trkpt>
      <trkpt lat="45.18175" lon="5.79028">
        <ele>233.47</ele>
        <time>2020-06-06T09:34:24.000Z</time>
      </trkpt>
      <trkpt lat="45.18176" lon="5.78989">
        <ele>227.22</ele>
        <time>2020-06-06T09:34:29.000Z</time>
      </trkpt>
      <trkpt lat="45.18165" lon="5.78948">
        <ele>229.88</ele>
        <time>2020-06-06T09:34:34.000Z</time>
      </trkpt>
      <trkpt lat="45.18161" lon="5.78911">
        <ele>229.36</ele>
        <time>2020-06-06T09:34:39.000Z</time>
      </trkpt>
      <trkpt lat="45.18158" lon="5.78877">
        <ele>229.79</ele>
        <time>2020-06-06T09:34:44.000Z</time>
      </trkpt>
      <trkpt lat="45.18156" lon="5.78839">
        <ele>229.89</ele>
        <time>2020-06-06T09:34:49.000Z</time>
      </trkpt>
      <trkpt lat="45.18149" lon="5.78796">
        <ele>228.34</ele>
        <time>2020-06-06T09:34:54.000Z</time>
      </trkpt>
      <trkpt lat="45.18145" lon="5.78753">
        <ele>229.74</ele>
        <time>2020-06-06T09:34:59.000Z</time>
      </trkpt>
      <trkpt lat="45.18145" lon="5.78712">
        <ele>227.83</ele>
        <time>2020-06-06T09:35:04.000Z</time>
      </trkpt>
      <trkpt lat="45.18145" lon="5.78672">
        <ele>227.51</ele>
        <time>2020-06-06T09:35:09.000Z</time>
      </trkpt>
      <trkpt lat="45.18115" lon="5.78667">
        <ele>226.78</ele>
        <time>2020-06-06T09:35:14.000Z</time>
      </trkpt>
      <trkpt lat="45.18097" lon="5.78628">
        <ele>226.7</ele>
        <time>2020-06-06T09:35:19.000Z</time>
      </trkpt>
      <trkpt lat="45.18086" lon="5.78592">
        <ele>224.53</ele>
        <time>2020-06-06T09:35:24.000Z</time>
      </trkpt>
      <trkpt lat="45.18075" lon="5.78555">
        <ele>223.38</ele>
        <time>2020-06-06T09:35:29.000Z</time>
      </trkpt>
      <trkpt lat="45.18067" lon="5.78526">
        <ele>220.19</ele>
        <time>2020-06-06T09:35:34.000Z</time>
      </trkpt>
      <trkpt lat="45.18057" lon="5.78499">
        <ele>219.99</ele>
        <time>2020-06-06T09:35:39.000Z</time>
      </trkpt>
      <trkpt lat="45.18047" lon="5.78468">
        <ele>222.42</ele>
        <time>2020-06-06T09:35:44.000Z</time>
      </trkpt>
      <trkpt lat="45.18035" lon="5.78435">
        <ele>223.72</ele>
        <time>2020-06-06T09:35:49.000Z</time>
      </trkpt>
      <trkpt lat="45.18015" lon="5.78402">
        <ele>225.06</ele>
        <time>2020-06-06T09:35:54.000Z</time>
      </trkpt>
      <trkpt lat="45.18003" lon="5.78362">
        <ele>223.75</ele>
        <time>2020-06-06T09:35:59.000Z</time>
      </trkpt>
      <trkpt lat="45.17986" lon="5.78322">
        <ele>220.88</ele>
        <time>2020-06-06T09:36:04.000Z</time>
      </trkpt>
      <trkpt lat="45.17969" lon="5.78288">
        <ele>219.42</ele>
        <time>2020-06-06T09:36:09.000Z</time>
      </trkpt>
      <trkpt lat="45.17958" lon="5.78249">
        <ele>218.44</ele>
        <time>2020-06-06T09:36:14.000Z</time>
      </trkpt>
      <trkpt lat="45.17946" lon="5.78212">
        <ele>220.47</ele>
        <time>2020-06-06T09:36:19.000Z</time>
      </trkpt>
      <trkpt lat="45.17931" lon="5.78175">
        <ele>221.9</ele>
        <time>2020-06-06T09:36:24.000Z</time>
      </trkpt>
      <trkpt lat="45.17918" lon="5.78141">
        <ele>223.14</ele>
        <time>2020-06-06T09:36:29.000Z</time>
      </trkpt>
      <trkpt lat="45.17907" lon="5.78103">
        <ele>222.5</ele>
        <time>2020-06-06T09:36:34.000Z</time>
      </trkpt>
      <trkpt lat="45.17892" lon="5.78076">
        <ele>220.66</ele>
        <time>2020-06-06T09:36:39.000Z</time>
      </trkpt>
      <trkpt lat="45.17881" lon="5.78056">
        <ele>220.1</ele>
        <time>2020-06-06T09:36:44.000Z</time>
      </trkpt>
      <trkpt lat="45.17869" lon="5.78027">
        <ele>219.53</ele>
        <time>2020-06-06T09:36:49.000Z</time>
      </trkpt>
      <trkpt lat="45.17862" lon="5.78002">
        <ele>216.06</ele>
        <time>2020-06-06T09:36:54.000Z</time>
      </trkpt>
      <trkpt lat="45.17848" lon="5.77975">
        <ele>218.11</ele>
        <time>2020-06-06T09:36:59.000Z</time>
      </trkpt>
      <trkpt lat="45.17841" lon="5.77947">
        <ele>216</ele>
        <time>2020-06-06T09:37:04.000Z</time>
      </trkpt>
      <trkpt lat="45.1783" lon="5.77917">
        <ele>214.69</ele>
        <time>2020-06-06T09:37:09.000Z</time>
      </trkpt>
      <trkpt lat="45.17819" lon="5.77885">
        <ele>216.28</ele>
        <time>2020-06-06T09:37:14.000Z</time>
      </trkpt>
      <trkpt lat="45.17808" lon="5.77852">
        <ele>216.32</ele>
        <time>2020-06-06T09:37:19.000Z</time>
      </trkpt>
      <trkpt lat="45.17795" lon="5.77818">
        <ele>219.97</ele>
        <time>2020-06-06T09:37:24.000Z</time>
      </trkpt>
      <trkpt lat="45.1778" lon="5.77788">
        <ele>219.29</ele>
        <time>2020-06-06T09:37:29.000Z</time>
      </trkpt>
      <trkpt lat="45.1777" lon="5.77757">
        <ele>218.83</ele>
        <time>2020-06-06T09:37:34.000Z</time>
      </trkpt>
      <trkpt lat="45.17767" lon="5.77726">
        <ele>217.57</ele>
        <time>2020-06-06T09:37:39.000Z</time>
      </trkpt>
      <trkpt lat="45.17755" lon="5.7771">
        <ele>217.43</ele>
        <time>2020-06-06T09:37:44.000Z</time>
      </trkpt>
      <trkpt lat="45.17748" lon="5.77697">
        <ele>218.47</ele>
        <time>2020-06-06T09:37:49.000Z</time>
      </trkpt>
      <trkpt lat="45.17745" lon="5.77678">
        <ele>217.53</ele>
        <time>2020-06-06T09:37:54.000Z</time>
      </trkpt>
      <trkpt lat="45.17735" lon="5.77654">
        <ele>219.21</ele>
        <time>2020-06-06T09:37:59.000Z</time>
      </trkpt>
      <trkpt lat="45.1772" lon="5.77623">
        <ele>219.41</ele>
        <time>2020-06-06T09:38:04.000Z</time>
      </trkpt>
      <trkpt lat="45.17692" lon="5.77596">
        <ele>218.17</ele>
        <time>2020-06-06T09:38:09.000Z</time>
      </trkpt>
      <trkpt lat="45.1768" lon="5.77572">
        <ele>218.25</ele>
        <time>2020-06-06T09:38:14.000Z</time>
      </trkpt>
      <trkpt lat="45.17666" lon="5.77541">
        <ele>215.61</ele>
        <time>2020-06-06T09:38:19.000Z</time>
      </trkpt>
      <trkpt lat="45.1765" lon="5.77509">
        <ele>214.83</ele>
        <time>2020-06-06T09:38:24.000Z</time>
      </trkpt>
      <trkpt lat="45.1765" lon="5.7746">
        <ele>214.82</ele>
        <time>2020-06-06T09:38:29.000Z</time>
      </trkpt>
      <trkpt lat="45.17639" lon="5.77423">
        <ele>215.58</ele>
        <time>2020-06-06T09:38:34.000Z</time>
      </trkpt>
      <trkpt lat="45.17631" lon="5.77384">
        <ele>216.48</ele>
        <time>2020-06-06T09:38:39.000Z</time>
      </trkpt>
      <trkpt lat="45.1761" lon="5.77351">
        <ele>214.59</ele>
        <time>2020-06-06T09:38:44.000Z</time>
      </trkpt>
      <trkpt lat="45.17598" lon="5.77317">
        <ele>214.2</ele>
        <time>2020-06-06T09:38:49.000Z</time>
      </trkpt>
      <trkpt lat="45.17577" lon="5.77304">
        <ele>213.78</ele>
        <time>2020-06-06T09:38:54.000Z</time>
      </trkpt>
      <trkpt lat="45.17559" lon="5.77289">
        <ele>217.18</ele>
        <time>2020-06-06T09:38:59.000Z</time>
      </trkpt>
      <trkpt lat="45.17543" lon="5.77265">
        <ele>216.75</ele>
        <time>2020-06-06T09:39:04.000Z</time>
      </trkpt>
      <trkpt lat="45.17522" lon="5.7724">
        <ele>215.54</ele>
        <time>2020-06-06T09:39:09.000Z</time>
      </trkpt>
      <trkpt lat="45.17506" lon="5.77209">
        <ele>218.45</ele>
        <time>2020-06-06T09:39:14.000Z</time>
      </trkpt>
      <trkpt lat="45.17487" lon="5.77165">
        <ele>222.63</ele>
        <time>2020-06-06T09:39:19.000Z</time>
      </trkpt>
      <trkpt lat="45.17459" lon="5.77126">
        <ele>225.47</ele>
        <time>2020-06-06T09:39:24.000Z</time>
      </trkpt>
      <trkpt lat="45.17431" lon="5.77093">
        <ele>224.93</ele>
        <time>2020-06-06T09:39:29.000Z</time>
      </trkpt>
      <trkpt lat="45.17403" lon="5.77063">
        <ele>226.57</ele>
        <time>2020-06-06T09:39:34.000Z</time>
      </trkpt>
      <trkpt lat="45.17378" lon="5.77035">
        <ele>226.23</ele>
        <time>2020-06-06T09:39:39.000Z</time>
      </trkpt>
      <trkpt lat="45.17356" lon="5.77009">
        <ele>225.06</ele>
        <time>2020-06-06T09:39:44.000Z</time>
      </trkpt>
      <trkpt lat="45.17339" lon="5.76985">
        <ele>225.17</ele>
        <time>2020-06-06T09:39:49.000Z</time>
      </trkpt>
      <trkpt lat="45.17324" lon="5.76963">
        <ele>225.48</ele>
        <time>2020-06-06T09:39:54.000Z</time>
      </trkpt>
      <trkpt lat="45.17307" lon="5.76938">
        <ele>224.7</ele>
        <time>2020-06-06T09:39:59.000Z</time>
      </trkpt>
      <trkpt lat="45.17289" lon="5.76921">
        <ele>224.53</ele>
        <time>2020-06-06T09:40:04.000Z</time>
      </trkpt>
      <trkpt lat="45.17266" lon="5.76897">
        <ele>221.72</ele>
        <time>2020-06-06T09:40:09.000Z</time>
      </trkpt>
      <trkpt lat="45.1724" lon="5.76886">
        <ele>222.77</ele>
        <time>2020-06-06T09:40:14.000Z</time>
      </trkpt>
      <trkpt lat="45.17214" lon="5.76878">
        <ele>225.89</ele>
        <time>2020-06-06T09:40:19.000Z</time>
      </trkpt>
      <trkpt lat="45.17188" lon="5.76877">
        <ele>224.69</ele>
        <time>2020-06-06T09:40:24.000Z</time>
      </trkpt>
      <trkpt lat="45.17165" lon="5.76869">
        <ele>223.04</ele>
        <time>2020-06-06T09:40:29.000Z</time>
      </trkpt>
      <trkpt lat="45.17139" lon="5.76866">
        <ele>226.31</ele>
        <time>2020-06-06T09:40:34.000Z</time>
      </trkpt>
      <trkpt lat="45.17112" lon="5.76865">
        <ele>225.28</ele>
        <time>2020-06-06T09:40:39.000Z</time>
      </trkpt>
      <trkpt lat="45.17083" lon="5.76866">
        <ele>223.13</ele>
        <time>2020-06-06T09:40:44.000Z</time>
      </trkpt>
      <trkpt lat="45.17057" lon="5.76866">
        <ele>220.64</ele>
        <time>2020-06-06T09:40:49.000Z</time>
      </trkpt>
      <trkpt lat="45.17026" lon="5.76867">
        <ele>221.74</ele>
        <time>2020-06-06T09:40:54.000Z</time>
      </trkpt>
      <trkpt lat="45.16995" lon="5.76868">
        <ele>222.08</ele>
        <time>2020-06-06T09:40:59.000Z</time>
      </trkpt>
      <trkpt lat="45.16965" lon="5.76858">
        <ele>225.83</ele>
        <time>2020-06-06T09:41:04.000Z</time>
      </trkpt>
      <trkpt lat="45.1694" lon="5.76859">
        <ele>227.58</ele>
        <time>2020-06-06T09:41:09.000Z</time>
      </trkpt>
      <trkpt lat="45.16916" lon="5.76857">
        <ele>226.76</ele>
        <time>2020-06-06T09:41:14.000Z</time>
      </trkpt>
      <trkpt lat="45.1689" lon="5.76853">
        <ele>224.88</ele>
        <time>2020-06-06T09:41:19.000Z</time>
      </trkpt>
      <trkpt lat="45.16866" lon="5.76837">
        <ele>225.09</ele>
        <time>2020-06-06T09:41:24.000Z</time>
      </trkpt>
      <trkpt lat="45.16844" lon="5.76822">
        <ele>227.36</ele>
        <time>2020-06-06T09:41:29.000Z</time>
      </trkpt>
      <trkpt lat="45.16824" lon="5.76808">
        <ele>228.21</ele>
        <time>2020-06-06T09:41:34.000Z</time>
      </trkpt>
      <trkpt lat="45.16803" lon="5.76796">
        <ele>227.34</ele>
        <time>2020-06-06T09:41:39.000Z</time>
      </trkpt>
      <trkpt lat="45.16788" lon="5.7679">
        <ele>224.93</ele>
        <time>2020-06-06T09:41:44.000Z</time>
      </trkpt>
      <trkpt lat="45.16779" lon="5.76796">
        <ele>227.72</ele>
        <time>2020-06-06T09:41:49.000Z</time>
      </trkpt>
      <trkpt lat="45.16763" lon="5.76784">
        <ele>229.67</ele>
        <time>2020-06-06T09:41:54.000Z</time>
      </trkpt>
      <trkpt lat="45.16744" lon="5.76774">
        <ele>231.57</ele>
        <time>2020-06-06T09:41:59.000Z</time>
      </trkpt>
      <trkpt lat="45.16724" lon="5.7676">
        <ele>228.12</ele>
        <time>2020-06-06T09:42:04.000Z</time>
      </trkpt>
      <trkpt lat="45.16704" lon="5.76745">
        <ele>226.01</ele>
        <time>2020-06-06T09:42:09.000Z</time>
      </trkpt>
      <trkpt lat="45.16686" lon="5.76727">
        <ele>225.47</ele>
        <time>2020-06-06T09:42:14.000Z</time>
      </trkpt>
      <trkpt lat="45.16665" lon="5.76707">
        <ele>227.09</ele>
        <time>2020-06-06T09:42:19.000Z</time>
      </trkpt>
      <trkpt lat="45.16647" lon="5.76686">
        <ele>222.98</ele>
        <time>2020-06-06T09:42:24.000Z</time>
      </trkpt>
      <trkpt lat="45.16625" lon="5.7667">
        <ele>224.92</ele>
        <time>2020-06-06T09:42:29.000Z</time>
      </trkpt>
      <trkpt lat="45.16607" lon="5.76653">
        <ele>225.44</ele>
        <time>2020-06-06T09:42:34.000Z</time>
      </trkpt>
      <trkpt lat="45.16589" lon="5.76635">
        <ele>227.68</ele>
        <time>2020-06-06T09:42:39.000Z</time>
      </trkpt>
      <trkpt lat="45.16572" lon="5.76619">
        <ele>227.32</ele>
        <time>2020-06-06T09:42:44.000Z</time>
      </trkpt>
      <trkpt lat="45.16558" lon="5.76604">
        <ele>227.1</ele>
        <time>2020-06-06T09:42:49.000Z</time>
      </trkpt>
      <trkpt lat="45.16551" lon="5.76595">
        <ele>226.47</ele>
        <time>2020-06-06T09:42:54.000Z</time>
      </trkpt>
      <trkpt lat="45.16549" lon="5.76578">
        <ele>226.48</ele>
        <time>2020-06-06T09:42:59.000Z</time>
      </trkpt>
      <trkpt lat="45.16536" lon="5.76565">
        <ele>224.89</ele>
        <time>2020-06-06T09:43:04.000Z</time>
      </trkpt>
      <trkpt lat="45.16523" lon="5.76552">
        <ele>228.26</ele>
        <time>2020-06-06T09:43:09.000Z</time>
      </trkpt>
      <trkpt lat="45.16509" lon="5.76537">
        <ele>230.66</ele>
        <time>2020-06-06T09:43:14.000Z</time>
      </trkpt>
      <trkpt lat="45.16494" lon="5.76523">
        <ele>228.48</ele>
        <time>2020-06-06T09:43:19.000Z</time>
      </trkpt>
      <trkpt lat="45.16476" lon="5.76503">
        <ele>227.7</ele>
        <time>2020-06-06T09:43:24.000Z</time>
      </trkpt>
      <trkpt lat="45.16456" lon="5.76479">
        <ele>227.85</ele>
        <time>2020-06-06T09:43:29.000Z</time>
      </trkpt>
      <trkpt lat="45.16438" lon="5.76462">
        <ele>225.65</ele>
        <time>2020-06-06T09:43:34.000Z</time>
      </trkpt>
      <trkpt lat="45.16428" lon="5.7645">
        <ele>224.26</ele>
        <time>2020-06-06T09:43:39.000Z</time>
      </trkpt>
      <trkpt lat="45.16414" lon="5.76439">
        <ele>224.11</ele>
        <time>2020-06-06T09:43:44.000Z</time>
      </trkpt>
      <trkpt lat="45.16395" lon="5.76429">
        <ele>228.62</ele>
        <time>2020-06-06T09:43:49.000Z</time>
      </trkpt>
      <trkpt lat="45.16381" lon="5.76414">
        <ele>227.91</ele>
        <time>2020-06-06T09:43:54.000Z</time>
      </trkpt>
      <trkpt lat="45.1637" lon="5.76397">
        <ele>226.02</ele>
        <time>2020-06-06T09:43:59.000Z</time>
      </trkpt>
      <trkpt lat="45.16356" lon="5.76385">
        <ele>223.85</ele>
        <time>2020-06-06T09:44:04.000Z</time>
      </trkpt>
      <trkpt lat="45.16348" lon="5.76375">
        <ele>222.87</ele>
        <time>2020-06-06T09:44:09.000Z</time>
      </trkpt>
      <trkpt lat="45.16338" lon="5.76368">
        <ele>224.06</ele>
        <time>2020-06-06T09:44:14.000Z</time>
      </trkpt>
      <trkpt lat="45.16323" lon="5.76356">
        <ele>223.99</ele>
        <time>2020-06-06T09:44:19.000Z</time>
      </trkpt>
      <trkpt lat="45.16305" lon="5.76339">
        <ele>224.18</ele>
        <time>2020-06-06T09:44:24.000Z</time>
      </trkpt>
      <trkpt lat="45.16286" lon="5.76325">
        <ele>224.46</ele>
        <time>2020-06-06T09:44:29.000Z</time>
      </trkpt>
      <trkpt lat="45.16269" lon="5.76309">
        <ele>223.63</ele>
        <time>2020-06-06T09:44:34.000Z</time>
      </trkpt>
      <trkpt lat="45.1625" lon="5.76301">
        <ele>219.91</ele>
        <time>2020-06-06T09:44:39.000Z</time>
      </trkpt>
      <trkpt lat="45.16236" lon="5.76287">
        <ele>217.5</ele>
        <time>2020-06-06T09:44:44.000Z</time>
      </trkpt>
      <trkpt lat="45.16229" lon="5.76274">
        <ele>215.88</ele>
        <time>2020-06-06T09:44:50.000Z</time>
      </trkpt>
      <trkpt lat="45.16224" lon="5.76262">
        <ele>211.95</ele>
        <time>2020-06-06T09:44:55.000Z</time>
      </trkpt>
      <trkpt lat="45.16231" lon="5.76244">
        <ele>215.64</ele>
        <time>2020-06-06T09:45:00.000Z</time>
      </trkpt>
      <trkpt lat="45.16244" lon="5.76223">
        <ele>216.14</ele>
        <time>2020-06-06T09:45:05.000Z</time>
      </trkpt>
      <trkpt lat="45.16266" lon="5.76199">
        <ele>218.91</ele>
        <time>2020-06-06T09:45:10.000Z</time>
      </trkpt>
      <trkpt lat="45.16286" lon="5.76177">
        <ele>218.68</ele>
        <time>2020-06-06T09:45:15.000Z</time>
      </trkpt>
      <trkpt lat="45.16311" lon="5.76158">
        <ele>219.2</ele>
        <time>2020-06-06T09:45:20.000Z</time>
      </trkpt>
      <trkpt lat="45.16334" lon="5.76133">
        <ele>221.67</ele>
        <time>2020-06-06T09:45:25.000Z</time>
      </trkpt>
      <trkpt lat="45.16361" lon="5.76113">
        <ele>220.83</ele>
        <time>2020-06-06T09:45:30.000Z</time>
      </trkpt>
      <trkpt lat="45.16382" lon="5.76084">
        <ele>221.34</ele>
        <time>2020-06-06T09:45:35.000Z</time>
      </trkpt>
      <trkpt lat="45.16405" lon="5.76063">
        <ele>221.76</ele>
        <time>2020-06-06T09:45:40.000Z</time>
      </trkpt>
      <trkpt lat="45.16428" lon="5.76037">
        <ele>224.37</ele>
        <time>2020-06-06T09:45:45.000Z</time>
      </trkpt>
      <trkpt lat="45.16448" lon="5.76017">
        <ele>228.23</ele>
        <time>2020-06-06T09:45:50.000Z</time>
      </trkpt>
      <trkpt lat="45.16463" lon="5.7603">
        <ele>227.28</ele>
        <time>2020-06-06T09:45:55.000Z</time>
      </trkpt>
      <trkpt lat="45.16475" lon="5.7605">
        <ele>224.07</ele>
        <time>2020-06-06T09:46:00.000Z</time>
      </trkpt>
      <trkpt lat="45.16482" lon="5.76076">
        <ele>222.21</ele>
        <time>2020-06-06T09:46:05.000Z</time>
      </trkpt>
      <trkpt lat="45.16493" lon="5.76104">
        <ele>223.65</ele>
        <time>2020-06-06T09:46:10.000Z</time>
      </trkpt>
      <trkpt lat="45.1651" lon="5.7611">
        <ele>223.98</ele>
        <time>2020-06-06T09:46:15.000Z</time>
      </trkpt>
      <trkpt lat="45.16534" lon="5.76085">
        <ele>222.44</ele>
        <time>2020-06-06T09:46:20.000Z</time>
      </trkpt>
      <trkpt lat="45.16559" lon="5.76076">
        <ele>222.17</ele>
        <time>2020-06-06T09:46:25.000Z</time>
      </trkpt>
      <trkpt lat="45.16587" lon="5.76068">
        <ele>228.77</ele>
        <time>2020-06-06T09:46:30.000Z</time>
      </trkpt>
      <trkpt lat="45.16614" lon="5.76063">
        <ele>230.1</ele>
        <time>2020-06-06T09:46:35.000Z</time>
      </trkpt>
      <trkpt lat="45.16639" lon="5.7605">
        <ele>227.38</ele>
        <time>2020-06-06T09:46:40.000Z</time>
      </trkpt>
      <trkpt lat="45.16668" lon="5.76042">
        <ele>228.43</ele>
        <time>2020-06-06T09:46:45.000Z</time>
      </trkpt>
      <trkpt lat="45.16696" lon="5.76043">
        <ele>230.25</ele>
        <time>2020-06-06T09:46:50.000Z</time>
      </trkpt>
      <trkpt lat="45.16717" lon="5.76053">
        <ele>230.94</ele>
        <time>2020-06-06T09:46:55.000Z</time>
      </trkpt>
      <trkpt lat="45.16728" lon="5.76047">
        <ele>229.73</ele>
        <time>2020-06-06T09:47:00.000Z</time>
      </trkpt>
      <trkpt lat="45.1673" lon="5.76033">
        <ele>230.36</ele>
        <time>2020-06-06T09:47:05.000Z</time>
      </trkpt>
      <trkpt lat="45.16738" lon="5.76022">
        <ele>234.59</ele>
        <time>2020-06-06T09:47:10.000Z</time>
      </trkpt>
      <trkpt lat="45.16747" lon="5.76009">
        <ele>235.5</ele>
        <time>2020-06-06T09:47:15.000Z</time>
      </trkpt>
      <trkpt lat="45.16753" lon="5.75994">
        <ele>237.52</ele>
        <time>2020-06-06T09:47:20.000Z</time>
      </trkpt>
      <trkpt lat="45.16761" lon="5.75976">
        <ele>235.9</ele>
        <time>2020-06-06T09:47:25.000Z</time>
      </trkpt>
      <trkpt lat="45.16754" lon="5.75968">
        <ele>225.67</ele>
        <time>2020-06-06T09:47:34.000Z</time>
      </trkpt>
      <trkpt lat="45.16765" lon="5.7597">
        <ele>226.66</ele>
        <time>2020-06-06T09:48:04.000Z</time>
      </trkpt>
      <trkpt lat="45.16771" lon="5.75985">
        <ele>224.51</ele>
        <time>2020-06-06T09:48:09.000Z</time>
      </trkpt>
      <trkpt lat="45.16756" lon="5.76003">
        <ele>223.28</ele>
        <time>2020-06-06T09:48:14.000Z</time>
      </trkpt>
      <trkpt lat="45.16748" lon="5.76012">
        <ele>226.36</ele>
        <time>2020-06-06T09:48:20.000Z</time>
      </trkpt>
      <trkpt lat="45.16738" lon="5.76026">
        <ele>228.97</ele>
        <time>2020-06-06T09:48:25.000Z</time>
      </trkpt>
      <trkpt lat="45.16724" lon="5.7603">
        <ele>226.53</ele>
        <time>2020-06-06T09:48:30.000Z</time>
      </trkpt>
      <trkpt lat="45.16709" lon="5.76028">
        <ele>222.72</ele>
        <time>2020-06-06T09:48:35.000Z</time>
      </trkpt>
      <trkpt lat="45.16694" lon="5.76029">
        <ele>219.58</ele>
        <time>2020-06-06T09:48:40.000Z</time>
      </trkpt>
      <trkpt lat="45.16685" lon="5.76024">
        <ele>221.57</ele>
        <time>2020-06-06T09:48:46.000Z</time>
      </trkpt>
      <trkpt lat="45.16676" lon="5.7603">
        <ele>224.55</ele>
        <time>2020-06-06T09:48:52.000Z</time>
      </trkpt>
      <trkpt lat="45.16666" lon="5.76034">
        <ele>221.39</ele>
        <time>2020-06-06T09:49:36.000Z</time>
      </trkpt>
      <trkpt lat="45.16654" lon="5.76038">
        <ele>224.05</ele>
        <time>2020-06-06T09:49:41.000Z</time>
      </trkpt>
      <trkpt lat="45.1664" lon="5.76042">
        <ele>221.52</ele>
        <time>2020-06-06T09:49:46.000Z</time>
      </trkpt>
      <trkpt lat="45.16623" lon="5.7605">
        <ele>220.5</ele>
        <time>2020-06-06T09:49:51.000Z</time>
      </trkpt>
      <trkpt lat="45.16605" lon="5.76057">
        <ele>219.86</ele>
        <time>2020-06-06T09:49:56.000Z</time>
      </trkpt>
      <trkpt lat="45.16587" lon="5.76064">
        <ele>222.76</ele>
        <time>2020-06-06T09:50:01.000Z</time>
      </trkpt>
      <trkpt lat="45.1656" lon="5.76074">
        <ele>220.25</ele>
        <time>2020-06-06T09:50:06.000Z</time>
      </trkpt>
      <trkpt lat="45.16538" lon="5.76084">
        <ele>218.77</ele>
        <time>2020-06-06T09:50:11.000Z</time>
      </trkpt>
      <trkpt lat="45.16516" lon="5.76099">
        <ele>219.91</ele>
        <time>2020-06-06T09:50:16.000Z</time>
      </trkpt>
      <trkpt lat="45.16493" lon="5.76123">
        <ele>224.05</ele>
        <time>2020-06-06T09:50:21.000Z</time>
      </trkpt>
      <trkpt lat="45.16478" lon="5.76148">
        <ele>225.42</ele>
        <time>2020-06-06T09:50:26.000Z</time>
      </trkpt>
      <trkpt lat="45.16466" lon="5.76177">
        <ele>225.19</ele>
        <time>2020-06-06T09:50:31.000Z</time>
      </trkpt>
      <trkpt lat="45.16458" lon="5.76208">
        <ele>224.23</ele>
        <time>2020-06-06T09:50:36.000Z</time>
      </trkpt>
      <trkpt lat="45.16453" lon="5.76239">
        <ele>224.45</ele>
        <time>2020-06-06T09:50:41.000Z</time>
      </trkpt>
      <trkpt lat="45.16451" lon="5.76271">
        <ele>222.42</ele>
        <time>2020-06-06T09:50:46.000Z</time>
      </trkpt>
      <trkpt lat="45.16444" lon="5.76304">
        <ele>219.86</ele>
        <time>2020-06-06T09:50:51.000Z</time>
      </trkpt>
      <trkpt lat="45.16439" lon="5.76338">
        <ele>221.93</ele>
        <time>2020-06-06T09:50:56.000Z</time>
      </trkpt>
      <trkpt lat="45.16435" lon="5.76368">
        <ele>224.37</ele>
        <time>2020-06-06T09:51:01.000Z</time>
      </trkpt>
      <trkpt lat="45.16431" lon="5.76397">
        <ele>222.99</ele>
        <time>2020-06-06T09:51:06.000Z</time>
      </trkpt>
      <trkpt lat="45.16426" lon="5.76427">
        <ele>226.5</ele>
        <time>2020-06-06T09:51:11.000Z</time>
      </trkpt>
      <trkpt lat="45.16417" lon="5.76441">
        <ele>224.59</ele>
        <time>2020-06-06T09:51:16.000Z</time>
      </trkpt>
      <trkpt lat="45.16401" lon="5.76435">
        <ele>220.76</ele>
        <time>2020-06-06T09:51:21.000Z</time>
      </trkpt>
      <trkpt lat="45.16383" lon="5.76412">
        <ele>220.18</ele>
        <time>2020-06-06T09:51:26.000Z</time>
      </trkpt>
      <trkpt lat="45.16363" lon="5.7639">
        <ele>221.06</ele>
        <time>2020-06-06T09:51:31.000Z</time>
      </trkpt>
      <trkpt lat="45.16343" lon="5.76368">
        <ele>218.93</ele>
        <time>2020-06-06T09:51:36.000Z</time>
      </trkpt>
      <trkpt lat="45.16321" lon="5.76347">
        <ele>215.6</ele>
        <time>2020-06-06T09:51:41.000Z</time>
      </trkpt>
      <trkpt lat="45.16297" lon="5.76333">
        <ele>216.93</ele>
        <time>2020-06-06T09:51:46.000Z</time>
      </trkpt>
      <trkpt lat="45.16276" lon="5.76317">
        <ele>216.82</ele>
        <time>2020-06-06T09:51:51.000Z</time>
      </trkpt>
      <trkpt lat="45.16251" lon="5.76304">
        <ele>219.88</ele>
        <time>2020-06-06T09:51:56.000Z</time>
      </trkpt>
      <trkpt lat="45.16235" lon="5.76284">
        <ele>218.97</ele>
        <time>2020-06-06T09:52:01.000Z</time>
      </trkpt>
      <trkpt lat="45.16226" lon="5.76267">
        <ele>217.27</ele>
        <time>2020-06-06T09:52:06.000Z</time>
      </trkpt>
      <trkpt lat="45.16218" lon="5.76252">
        <ele>216.9</ele>
        <time>2020-06-06T09:52:11.000Z</time>
      </trkpt>
      <trkpt lat="45.16212" lon="5.7624">
        <ele>217.28</ele>
        <time>2020-06-06T09:52:22.000Z</time>
      </trkpt>
      <trkpt lat="45.16199" lon="5.76235">
        <ele>212.99</ele>
        <time>2020-06-06T09:52:27.000Z</time>
      </trkpt>
      <trkpt lat="45.16184" lon="5.76226">
        <ele>214.41</ele>
        <time>2020-06-06T09:52:32.000Z</time>
      </trkpt>
      <trkpt lat="45.16168" lon="5.76208">
        <ele>214.92</ele>
        <time>2020-06-06T09:52:37.000Z</time>
      </trkpt>
      <trkpt lat="45.16147" lon="5.76203">
        <ele>215.64</ele>
        <time>2020-06-06T09:52:42.000Z</time>
      </trkpt>
      <trkpt lat="45.16129" lon="5.76189">
        <ele>218.25</ele>
        <time>2020-06-06T09:52:47.000Z</time>
      </trkpt>
      <trkpt lat="45.16112" lon="5.76172">
        <ele>218.75</ele>
        <time>2020-06-06T09:52:52.000Z</time>
      </trkpt>
      <trkpt lat="45.16095" lon="5.76158">
        <ele>217.61</ele>
        <time>2020-06-06T09:52:57.000Z</time>
      </trkpt>
      <trkpt lat="45.16078" lon="5.76141">
        <ele>218.45</ele>
        <time>2020-06-06T09:53:02.000Z</time>
      </trkpt>
      <trkpt lat="45.1606" lon="5.76124">
        <ele>220.99</ele>
        <time>2020-06-06T09:53:07.000Z</time>
      </trkpt>
      <trkpt lat="45.16046" lon="5.7611">
        <ele>218.92</ele>
        <time>2020-06-06T09:53:12.000Z</time>
      </trkpt>
      <trkpt lat="45.16031" lon="5.761">
        <ele>221.77</ele>
        <time>2020-06-06T09:53:17.000Z</time>
      </trkpt>
      <trkpt lat="45.16021" lon="5.76085">
        <ele>220.37</ele>
        <time>2020-06-06T09:53:22.000Z</time>
      </trkpt>
      <trkpt lat="45.16004" lon="5.76069">
        <ele>219.28</ele>
        <time>2020-06-06T09:53:27.000Z</time>
      </trkpt>
      <trkpt lat="45.15988" lon="5.7605">
        <ele>218.39</ele>
        <time>2020-06-06T09:53:32.000Z</time>
      </trkpt>
      <trkpt lat="45.15972" lon="5.76031">
        <ele>220.66</ele>
        <time>2020-06-06T09:53:37.000Z</time>
      </trkpt>
      <trkpt lat="45.15958" lon="5.76016">
        <ele>219.98</ele>
        <time>2020-06-06T09:53:42.000Z</time>
      </trkpt>
      <trkpt lat="45.15946" lon="5.76001">
        <ele>219.83</ele>
        <time>2020-06-06T09:53:47.000Z</time>
      </trkpt>
      <trkpt lat="45.15931" lon="5.75991">
        <ele>218.6</ele>
        <time>2020-06-06T09:53:52.000Z</time>
      </trkpt>
      <trkpt lat="45.15922" lon="5.75981">
        <ele>221.43</ele>
        <time>2020-06-06T09:53:57.000Z</time>
      </trkpt>
      <trkpt lat="45.15912" lon="5.75968">
        <ele>218.94</ele>
        <time>2020-06-06T09:54:02.000Z</time>
      </trkpt>
      <trkpt lat="45.15903" lon="5.7595">
        <ele>219.55</ele>
        <time>2020-06-06T09:54:07.000Z</time>
      </trkpt>
      <trkpt lat="45.15892" lon="5.75934">
        <ele>219.35</ele>
        <time>2020-06-06T09:54:12.000Z</time>
      </trkpt>
      <trkpt lat="45.1588" lon="5.75918">
        <ele>220.59</ele>
        <time>2020-06-06T09:54:17.000Z</time>
      </trkpt>
      <trkpt lat="45.15876" lon="5.75906">
        <ele>217.92</ele>
        <time>2020-06-06T09:54:22.000Z</time>
      </trkpt>
      <trkpt lat="45.1587" lon="5.75895">
        <ele>218.87</ele>
        <time>2020-06-06T09:54:29.000Z</time>
      </trkpt>
      <trkpt lat="45.1586" lon="5.75893">
        <ele>220.87</ele>
        <time>2020-06-06T09:54:34.000Z</time>
      </trkpt>
      <trkpt lat="45.15848" lon="5.75875">
        <ele>221.52</ele>
        <time>2020-06-06T09:54:39.000Z</time>
      </trkpt>
      <trkpt lat="45.15836" lon="5.75854">
        <ele>221.29</ele>
        <time>2020-06-06T09:54:44.000Z</time>
      </trkpt>
      <trkpt lat="45.1582" lon="5.75836">
        <ele>224.4</ele>
        <time>2020-06-06T09:54:49.000Z</time>
      </trkpt>
      <trkpt lat="45.15811" lon="5.75815">
        <ele>226.26</ele>
        <time>2020-06-06T09:54:54.000Z</time>
      </trkpt>
      <trkpt lat="45.15802" lon="5.75794">
        <ele>226.63</ele>
        <time>2020-06-06T09:54:59.000Z</time>
      </trkpt>
      <trkpt lat="45.15789" lon="5.75775">
        <ele>227.26</ele>
        <time>2020-06-06T09:55:04.000Z</time>
      </trkpt>
      <trkpt lat="45.15777" lon="5.7575">
        <ele>229.18</ele>
        <time>2020-06-06T09:55:09.000Z</time>
      </trkpt>
      <trkpt lat="45.15765" lon="5.75728">
        <ele>229.72</ele>
        <time>2020-06-06T09:55:14.000Z</time>
      </trkpt>
      <trkpt lat="45.15752" lon="5.75706">
        <ele>227.67</ele>
        <time>2020-06-06T09:55:19.000Z</time>
      </trkpt>
      <trkpt lat="45.15738" lon="5.75681">
        <ele>228.22</ele>
        <time>2020-06-06T09:55:24.000Z</time>
      </trkpt>
      <trkpt lat="45.15724" lon="5.75657">
        <ele>227.38</ele>
        <time>2020-06-06T09:55:29.000Z</time>
      </trkpt>
      <trkpt lat="45.15711" lon="5.75631">
        <ele>226.71</ele>
        <time>2020-06-06T09:55:34.000Z</time>
      </trkpt>
      <trkpt lat="45.15697" lon="5.75612">
        <ele>225.12</ele>
        <time>2020-06-06T09:55:39.000Z</time>
      </trkpt>
      <trkpt lat="45.15684" lon="5.75592">
        <ele>223.9</ele>
        <time>2020-06-06T09:55:44.000Z</time>
      </trkpt>
      <trkpt lat="45.15672" lon="5.7557">
        <ele>224.75</ele>
        <time>2020-06-06T09:55:49.000Z</time>
      </trkpt>
      <trkpt lat="45.15662" lon="5.75545">
        <ele>221.78</ele>
        <time>2020-06-06T09:55:54.000Z</time>
      </trkpt>
      <trkpt lat="45.1565" lon="5.75524">
        <ele>221.49</ele>
        <time>2020-06-06T09:55:59.000Z</time>
      </trkpt>
      <trkpt lat="45.15639" lon="5.75505">
        <ele>223.17</ele>
        <time>2020-06-06T09:56:04.000Z</time>
      </trkpt>
      <trkpt lat="45.15627" lon="5.75483">
        <ele>226.53</ele>
        <time>2020-06-06T09:56:09.000Z</time>
      </trkpt>
      <trkpt lat="45.15618" lon="5.75462">
        <ele>222.1</ele>
        <time>2020-06-06T09:56:14.000Z</time>
      </trkpt>
      <trkpt lat="45.15607" lon="5.75442">
        <ele>225.47</ele>
        <time>2020-06-06T09:56:19.000Z</time>
      </trkpt>
      <trkpt lat="45.15594" lon="5.75422">
        <ele>225.45</ele>
        <time>2020-06-06T09:56:24.000Z</time>
      </trkpt>
      <trkpt lat="45.1558" lon="5.75401">
        <ele>224.06</ele>
        <time>2020-06-06T09:56:29.000Z</time>
      </trkpt>
      <trkpt lat="45.15565" lon="5.7538">
        <ele>225.99</ele>
        <time>2020-06-06T09:56:34.000Z</time>
      </trkpt>
      <trkpt lat="45.15549" lon="5.75359">
        <ele>225.47</ele>
        <time>2020-06-06T09:56:39.000Z</time>
      </trkpt>
      <trkpt lat="45.15535" lon="5.75336">
        <ele>226.71</ele>
        <time>2020-06-06T09:56:44.000Z</time>
      </trkpt>
      <trkpt lat="45.1552" lon="5.75315">
        <ele>229.3</ele>
        <time>2020-06-06T09:56:49.000Z</time>
      </trkpt>
      <trkpt lat="45.15505" lon="5.75295">
        <ele>229.99</ele>
        <time>2020-06-06T09:56:54.000Z</time>
      </trkpt>
      <trkpt lat="45.15488" lon="5.75279">
        <ele>231.36</ele>
        <time>2020-06-06T09:56:59.000Z</time>
      </trkpt>
      <trkpt lat="45.15473" lon="5.75262">
        <ele>228.45</ele>
        <time>2020-06-06T09:57:04.000Z</time>
      </trkpt>
      <trkpt lat="45.15457" lon="5.75242">
        <ele>229.37</ele>
        <time>2020-06-06T09:57:09.000Z</time>
      </trkpt>
      <trkpt lat="45.15443" lon="5.75221">
        <ele>229.44</ele>
        <time>2020-06-06T09:57:14.000Z</time>
      </trkpt>
      <trkpt lat="45.15427" lon="5.75206">
        <ele>228.32</ele>
        <time>2020-06-06T09:57:19.000Z</time>
      </trkpt>
      <trkpt lat="45.15415" lon="5.75186">
        <ele>225.63</ele>
        <time>2020-06-06T09:57:24.000Z</time>
      </trkpt>
      <trkpt lat="45.15401" lon="5.75161">
        <ele>225.91</ele>
        <time>2020-06-06T09:57:29.000Z</time>
      </trkpt>
      <trkpt lat="45.15391" lon="5.75135">
        <ele>227.33</ele>
        <time>2020-06-06T09:57:34.000Z</time>
      </trkpt>
      <trkpt lat="45.15386" lon="5.75125">
        <ele>233.31</ele>
        <time>2020-06-06T09:58:18.000Z</time>
      </trkpt>
      <trkpt lat="45.15377" lon="5.75129">
        <ele>233.9</ele>
        <time>2020-06-06T09:59:57.000Z</time>
      </trkpt>
      <trkpt lat="45.1537" lon="5.75138">
        <ele>232.08</ele>
        <time>2020-06-06T10:00:02.000Z</time>
      </trkpt>
      <trkpt lat="45.15359" lon="5.75137">
        <ele>232.32</ele>
        <time>2020-06-06T10:00:08.000Z</time>
      </trkpt>
      <trkpt lat="45.15349" lon="5.75129">
        <ele>229.01</ele>
        <time>2020-06-06T10:00:13.000Z</time>
      </trkpt>
      <trkpt lat="45.15336" lon="5.75121">
        <ele>231.09</ele>
        <time>2020-06-06T10:00:18.000Z</time>
      </trkpt>
      <trkpt lat="45.15321" lon="5.75112">
        <ele>231.22</ele>
        <time>2020-06-06T10:00:23.000Z</time>
      </trkpt>
      <trkpt lat="45.15303" lon="5.75103">
        <ele>230.53</ele>
        <time>2020-06-06T10:00:28.000Z</time>
      </trkpt>
      <trkpt lat="45.15291" lon="5.751">
        <ele>226.4</ele>
        <time>2020-06-06T10:00:33.000Z</time>
      </trkpt>
      <trkpt lat="45.1528" lon="5.75094">
        <ele>229.08</ele>
        <time>2020-06-06T10:00:38.000Z</time>
      </trkpt>
      <trkpt lat="45.15267" lon="5.75087">
        <ele>231.12</ele>
        <time>2020-06-06T10:00:43.000Z</time>
      </trkpt>
      <trkpt lat="45.15252" lon="5.75081">
        <ele>234.78</ele>
        <time>2020-06-06T10:00:48.000Z</time>
      </trkpt>
      <trkpt lat="45.15234" lon="5.75076">
        <ele>234.98</ele>
        <time>2020-06-06T10:00:53.000Z</time>
      </trkpt>
      <trkpt lat="45.15216" lon="5.75071">
        <ele>235.13</ele>
        <time>2020-06-06T10:00:58.000Z</time>
      </trkpt>
      <trkpt lat="45.15201" lon="5.75063">
        <ele>234.78</ele>
        <time>2020-06-06T10:01:03.000Z</time>
      </trkpt>
      <trkpt lat="45.15185" lon="5.75057">
        <ele>234.93</ele>
        <time>2020-06-06T10:01:08.000Z</time>
      </trkpt>
      <trkpt lat="45.15169" lon="5.75061">
        <ele>236.41</ele>
        <time>2020-06-06T10:01:13.000Z</time>
      </trkpt>
      <trkpt lat="45.15157" lon="5.75071">
        <ele>235.84</ele>
        <time>2020-06-06T10:01:18.000Z</time>
      </trkpt>
      <trkpt lat="45.15144" lon="5.75078">
        <ele>231.53</ele>
        <time>2020-06-06T10:01:23.000Z</time>
      </trkpt>
      <trkpt lat="45.1513" lon="5.75069">
        <ele>233.91</ele>
        <time>2020-06-06T10:01:28.000Z</time>
      </trkpt>
      <trkpt lat="45.15112" lon="5.75056">
        <ele>231.51</ele>
        <time>2020-06-06T10:01:33.000Z</time>
      </trkpt>
      <trkpt lat="45.15093" lon="5.75045">
        <ele>232.98</ele>
        <time>2020-06-06T10:01:38.000Z</time>
      </trkpt>
      <trkpt lat="45.15073" lon="5.75043">
        <ele>233.32</ele>
        <time>2020-06-06T10:01:43.000Z</time>
      </trkpt>
      <trkpt lat="45.15056" lon="5.75034">
        <ele>234.56</ele>
        <time>2020-06-06T10:01:48.000Z</time>
      </trkpt>
      <trkpt lat="45.1504" lon="5.75033">
        <ele>236.1</ele>
        <time>2020-06-06T10:01:53.000Z</time>
      </trkpt>
      <trkpt lat="45.15023" lon="5.75034">
        <ele>234.29</ele>
        <time>2020-06-06T10:01:58.000Z</time>
      </trkpt>
      <trkpt lat="45.15006" lon="5.75029">
        <ele>233.52</ele>
        <time>2020-06-06T10:02:03.000Z</time>
      </trkpt>
      <trkpt lat="45.14997" lon="5.75026">
        <ele>234.75</ele>
        <time>2020-06-06T10:02:08.000Z</time>
      </trkpt>
      <trkpt lat="45.14987" lon="5.75028">
        <ele>238.65</ele>
        <time>2020-06-06T10:02:14.000Z</time>
      </trkpt>
      <trkpt lat="45.14975" lon="5.75033">
        <ele>239.52</ele>
        <time>2020-06-06T10:02:19.000Z</time>
      </trkpt>
      <trkpt lat="45.14959" lon="5.75038">
        <ele>241.29</ele>
        <time>2020-06-06T10:02:24.000Z</time>
      </trkpt>
      <trkpt lat="45.14946" lon="5.75041">
        <ele>242</ele>
        <time>2020-06-06T10:02:29.000Z</time>
      </trkpt>
      <trkpt lat="45.14934" lon="5.75048">
        <ele>245.09</ele>
        <time>2020-06-06T10:02:34.000Z</time>
      </trkpt>
      <trkpt lat="45.14916" lon="5.75055">
        <ele>247.69</ele>
        <time>2020-06-06T10:02:39.000Z</time>
      </trkpt>
      <trkpt lat="45.14898" lon="5.75065">
        <ele>245.69</ele>
        <time>2020-06-06T10:02:44.000Z</time>
      </trkpt>
      <trkpt lat="45.14882" lon="5.75077">
        <ele>242.96</ele>
        <time>2020-06-06T10:02:49.000Z</time>
      </trkpt>
      <trkpt lat="45.14865" lon="5.7509">
        <ele>245.48</ele>
        <time>2020-06-06T10:02:54.000Z</time>
      </trkpt>
      <trkpt lat="45.14853" lon="5.75099">
        <ele>248.4</ele>
        <time>2020-06-06T10:02:59.000Z</time>
      </trkpt>
      <trkpt lat="45.14839" lon="5.75114">
        <ele>249.32</ele>
        <time>2020-06-06T10:03:04.000Z</time>
      </trkpt>
      <trkpt lat="45.14829" lon="5.75136">
        <ele>250.27</ele>
        <time>2020-06-06T10:03:09.000Z</time>
      </trkpt>
      <trkpt lat="45.14825" lon="5.75153">
        <ele>248.67</ele>
        <time>2020-06-06T10:03:14.000Z</time>
      </trkpt>
      <trkpt lat="45.1482" lon="5.75164">
        <ele>248.47</ele>
        <time>2020-06-06T10:03:21.000Z</time>
      </trkpt>
      <trkpt lat="45.14818" lon="5.75149">
        <ele>243.73</ele>
        <time>2020-06-06T10:03:58.000Z</time>
      </trkpt>
      <trkpt lat="45.14827" lon="5.75126">
        <ele>245.27</ele>
        <time>2020-06-06T10:04:03.000Z</time>
      </trkpt>
      <trkpt lat="45.14832" lon="5.75109">
        <ele>241.54</ele>
        <time>2020-06-06T10:04:08.000Z</time>
      </trkpt>
      <trkpt lat="45.14826" lon="5.75097">
        <ele>244.73</ele>
        <time>2020-06-06T10:04:27.000Z</time>
      </trkpt>
      <trkpt lat="45.14806" lon="5.751">
        <ele>243.97</ele>
        <time>2020-06-06T10:04:32.000Z</time>
      </trkpt>
      <trkpt lat="45.14787" lon="5.75113">
        <ele>245.85</ele>
        <time>2020-06-06T10:04:37.000Z</time>
      </trkpt>
      <trkpt lat="45.14768" lon="5.75124">
        <ele>244.89</ele>
        <time>2020-06-06T10:04:42.000Z</time>
      </trkpt>
      <trkpt lat="45.14753" lon="5.75135">
        <ele>247.78</ele>
        <time>2020-06-06T10:04:47.000Z</time>
      </trkpt>
      <trkpt lat="45.14742" lon="5.7513">
        <ele>245.04</ele>
        <time>2020-06-06T10:04:52.000Z</time>
      </trkpt>
      <trkpt lat="45.14738" lon="5.75108">
        <ele>244.38</ele>
        <time>2020-06-06T10:04:57.000Z</time>
      </trkpt>
      <trkpt lat="45.14735" lon="5.75083">
        <ele>247.96</ele>
        <time>2020-06-06T10:05:02.000Z</time>
      </trkpt>
      <trkpt lat="45.14732" lon="5.75054">
        <ele>247.4</ele>
        <time>2020-06-06T10:05:07.000Z</time>
      </trkpt>
      <trkpt lat="45.1473" lon="5.75014">
        <ele>245.97</ele>
        <time>2020-06-06T10:05:12.000Z</time>
      </trkpt>
      <trkpt lat="45.14729" lon="5.74978">
        <ele>250.7</ele>
        <time>2020-06-06T10:05:17.000Z</time>
      </trkpt>
      <trkpt lat="45.14717" lon="5.74948">
        <ele>249.44</ele>
        <time>2020-06-06T10:05:22.000Z</time>
      </trkpt>
      <trkpt lat="45.14713" lon="5.74921">
        <ele>252.59</ele>
        <time>2020-06-06T10:05:27.000Z</time>
      </trkpt>
      <trkpt lat="45.14718" lon="5.7489">
        <ele>252.4</ele>
        <time>2020-06-06T10:05:32.000Z</time>
      </trkpt>
      <trkpt lat="45.14723" lon="5.74865">
        <ele>251.89</ele>
        <time>2020-06-06T10:05:37.000Z</time>
      </trkpt>
      <trkpt lat="45.1473" lon="5.74842">
        <ele>250.11</ele>
        <time>2020-06-06T10:05:42.000Z</time>
      </trkpt>
      <trkpt lat="45.14734" lon="5.7482">
        <ele>249.62</ele>
        <time>2020-06-06T10:05:47.000Z</time>
      </trkpt>
      <trkpt lat="45.14729" lon="5.74793">
        <ele>252.2</ele>
        <time>2020-06-06T10:05:52.000Z</time>
      </trkpt>
      <trkpt lat="45.14716" lon="5.74774">
        <ele>257.52</ele>
        <time>2020-06-06T10:05:57.000Z</time>
      </trkpt>
      <trkpt lat="45.14697" lon="5.74765">
        <ele>258.62</ele>
        <time>2020-06-06T10:06:02.000Z</time>
      </trkpt>
      <trkpt lat="45.14676" lon="5.74765">
        <ele>258</ele>
        <time>2020-06-06T10:06:07.000Z</time>
      </trkpt>
      <trkpt lat="45.14657" lon="5.74771">
        <ele>259.42</ele>
        <time>2020-06-06T10:06:12.000Z</time>
      </trkpt>
      <trkpt lat="45.14639" lon="5.74779">
        <ele>254.58</ele>
        <time>2020-06-06T10:06:17.000Z</time>
      </trkpt>
      <trkpt lat="45.14622" lon="5.74788">
        <ele>254.36</ele>
        <time>2020-06-06T10:06:22.000Z</time>
      </trkpt>
      <trkpt lat="45.14605" lon="5.74799">
        <ele>253.87</ele>
        <time>2020-06-06T10:06:27.000Z</time>
      </trkpt>
      <trkpt lat="45.14587" lon="5.74811">
        <ele>255.59</ele>
        <time>2020-06-06T10:06:32.000Z</time>
      </trkpt>
      <trkpt lat="45.1457" lon="5.74818">
        <ele>255.24</ele>
        <time>2020-06-06T10:06:37.000Z</time>
      </trkpt>
      <trkpt lat="45.14545" lon="5.74825">
        <ele>254.83</ele>
        <time>2020-06-06T10:06:42.000Z</time>
      </trkpt>
      <trkpt lat="45.14518" lon="5.7483">
        <ele>260.57</ele>
        <time>2020-06-06T10:06:47.000Z</time>
      </trkpt>
      <trkpt lat="45.14492" lon="5.74836">
        <ele>263.73</ele>
        <time>2020-06-06T10:06:52.000Z</time>
      </trkpt>
      <trkpt lat="45.1447" lon="5.7484">
        <ele>268.26</ele>
        <time>2020-06-06T10:06:57.000Z</time>
      </trkpt>
      <trkpt lat="45.1445" lon="5.74841">
        <ele>268.77</ele>
        <time>2020-06-06T10:07:02.000Z</time>
      </trkpt>
      <trkpt lat="45.14431" lon="5.74843">
        <ele>266.36</ele>
        <time>2020-06-06T10:07:07.000Z</time>
      </trkpt>
      <trkpt lat="45.14412" lon="5.74847">
        <ele>266.61</ele>
        <time>2020-06-06T10:07:12.000Z</time>
      </trkpt>
      <trkpt lat="45.14384" lon="5.74858">
        <ele>263.39</ele>
        <time>2020-06-06T10:07:17.000Z</time>
      </trkpt>
      <trkpt lat="45.14357" lon="5.74867">
        <ele>263.29</ele>
        <time>2020-06-06T10:07:22.000Z</time>
      </trkpt>
      <trkpt lat="45.14322" lon="5.74878">
        <ele>259.77</ele>
        <time>2020-06-06T10:07:27.000Z</time>
      </trkpt>
      <trkpt lat="45.14291" lon="5.74889">
        <ele>259.36</ele>
        <time>2020-06-06T10:07:32.000Z</time>
      </trkpt>
      <trkpt lat="45.14259" lon="5.74896">
        <ele>254.92</ele>
        <time>2020-06-06T10:07:37.000Z</time>
      </trkpt>
      <trkpt lat="45.14228" lon="5.74909">
        <ele>252.02</ele>
        <time>2020-06-06T10:07:42.000Z</time>
      </trkpt>
      <trkpt lat="45.14196" lon="5.74926">
        <ele>253.68</ele>
        <time>2020-06-06T10:07:47.000Z</time>
      </trkpt>
      <trkpt lat="45.14163" lon="5.74945">
        <ele>257.15</ele>
        <time>2020-06-06T10:07:52.000Z</time>
      </trkpt>
      <trkpt lat="45.14134" lon="5.74966">
        <ele>258.08</ele>
        <time>2020-06-06T10:07:57.000Z</time>
      </trkpt>
      <trkpt lat="45.14107" lon="5.74979">
        <ele>258.32</ele>
        <time>2020-06-06T10:08:02.000Z</time>
      </trkpt>
      <trkpt lat="45.14078" lon="5.74997">
        <ele>262.73</ele>
        <time>2020-06-06T10:08:07.000Z</time>
      </trkpt>
      <trkpt lat="45.14058" lon="5.75011">
        <ele>262.63</ele>
        <time>2020-06-06T10:08:12.000Z</time>
      </trkpt>
      <trkpt lat="45.14037" lon="5.75022">
        <ele>259.58</ele>
        <time>2020-06-06T10:08:17.000Z</time>
      </trkpt>
      <trkpt lat="45.14013" lon="5.75035">
        <ele>258.17</ele>
        <time>2020-06-06T10:08:22.000Z</time>
      </trkpt>
      <trkpt lat="45.13987" lon="5.75046">
        <ele>258.04</ele>
        <time>2020-06-06T10:08:27.000Z</time>
      </trkpt>
      <trkpt lat="45.13964" lon="5.75054">
        <ele>263.13</ele>
        <time>2020-06-06T10:08:32.000Z</time>
      </trkpt>
      <trkpt lat="45.1394" lon="5.7506">
        <ele>265.29</ele>
        <time>2020-06-06T10:08:37.000Z</time>
      </trkpt>
      <trkpt lat="45.13911" lon="5.75064">
        <ele>267.55</ele>
        <time>2020-06-06T10:08:42.000Z</time>
      </trkpt>
      <trkpt lat="45.13883" lon="5.75058">
        <ele>267.66</ele>
        <time>2020-06-06T10:08:47.000Z</time>
      </trkpt>
      <trkpt lat="45.1386" lon="5.75042">
        <ele>266.98</ele>
        <time>2020-06-06T10:08:52.000Z</time>
      </trkpt>
      <trkpt lat="45.1384" lon="5.75028">
        <ele>266.9</ele>
        <time>2020-06-06T10:08:57.000Z</time>
      </trkpt>
      <trkpt lat="45.13821" lon="5.75002">
        <ele>268.78</ele>
        <time>2020-06-06T10:09:02.000Z</time>
      </trkpt>
      <trkpt lat="45.13803" lon="5.74975">
        <ele>273.08</ele>
        <time>2020-06-06T10:09:07.000Z</time>
      </trkpt>
      <trkpt lat="45.13788" lon="5.74946">
        <ele>273.45</ele>
        <time>2020-06-06T10:09:12.000Z</time>
      </trkpt>
      <trkpt lat="45.13774" lon="5.74914">
        <ele>274.02</ele>
        <time>2020-06-06T10:09:17.000Z</time>
      </trkpt>
      <trkpt lat="45.13763" lon="5.74896">
        <ele>272.94</ele>
        <time>2020-06-06T10:09:22.000Z</time>
      </trkpt>
      <trkpt lat="45.13755" lon="5.74879">
        <ele>273.03</ele>
        <time>2020-06-06T10:09:27.000Z</time>
      </trkpt>
      <trkpt lat="45.1375" lon="5.74868">
        <ele>276.24</ele>
        <time>2020-06-06T10:09:32.000Z</time>
      </trkpt>
      <trkpt lat="45.13736" lon="5.74866">
        <ele>275.08</ele>
        <time>2020-06-06T10:09:37.000Z</time>
      </trkpt>
      <trkpt lat="45.1372" lon="5.74873">
        <ele>274.19</ele>
        <time>2020-06-06T10:09:42.000Z</time>
      </trkpt>
      <trkpt lat="45.137" lon="5.74875">
        <ele>271.41</ele>
        <time>2020-06-06T10:09:47.000Z</time>
      </trkpt>
      <trkpt lat="45.13686" lon="5.74873">
        <ele>271.41</ele>
        <time>2020-06-06T10:09:52.000Z</time>
      </trkpt>
      <trkpt lat="45.13674" lon="5.74871">
        <ele>274.36</ele>
        <time>2020-06-06T10:09:57.000Z</time>
      </trkpt>
      <trkpt lat="45.13659" lon="5.74871">
        <ele>280.58</ele>
        <time>2020-06-06T10:10:02.000Z</time>
      </trkpt>
      <trkpt lat="45.13648" lon="5.74875">
        <ele>282.08</ele>
        <time>2020-06-06T10:10:07.000Z</time>
      </trkpt>
      <trkpt lat="45.13637" lon="5.74891">
        <ele>284.92</ele>
        <time>2020-06-06T10:10:12.000Z</time>
      </trkpt>
      <trkpt lat="45.13624" lon="5.74906">
        <ele>285.06</ele>
        <time>2020-06-06T10:10:17.000Z</time>
      </trkpt>
      <trkpt lat="45.13613" lon="5.74919">
        <ele>284.86</ele>
        <time>2020-06-06T10:10:22.000Z</time>
      </trkpt>
      <trkpt lat="45.13599" lon="5.74924">
        <ele>285.25</ele>
        <time>2020-06-06T10:10:27.000Z</time>
      </trkpt>
      <trkpt lat="45.13585" lon="5.74927">
        <ele>287.14</ele>
        <time>2020-06-06T10:10:32.000Z</time>
      </trkpt>
      <trkpt lat="45.1357" lon="5.7493">
        <ele>289.38</ele>
        <time>2020-06-06T10:10:37.000Z</time>
      </trkpt>
      <trkpt lat="45.13555" lon="5.74932">
        <ele>291.64</ele>
        <time>2020-06-06T10:10:42.000Z</time>
      </trkpt>
      <trkpt lat="45.13536" lon="5.74931">
        <ele>294.52</ele>
        <time>2020-06-06T10:10:47.000Z</time>
      </trkpt>
      <trkpt lat="45.1352" lon="5.74932">
        <ele>302.65</ele>
        <time>2020-06-06T10:10:52.000Z</time>
      </trkpt>
      <trkpt lat="45.13507" lon="5.74936">
        <ele>304.43</ele>
        <time>2020-06-06T10:10:57.000Z</time>
      </trkpt>
      <trkpt lat="45.13502" lon="5.74954">
        <ele>305.63</ele>
        <time>2020-06-06T10:11:02.000Z</time>
      </trkpt>
      <trkpt lat="45.13497" lon="5.74969">
        <ele>307.74</ele>
        <time>2020-06-06T10:11:07.000Z</time>
      </trkpt>
      <trkpt lat="45.13492" lon="5.74987">
        <ele>310.39</ele>
        <time>2020-06-06T10:11:12.000Z</time>
      </trkpt>
      <trkpt lat="45.13485" lon="5.75006">
        <ele>311.76</ele>
        <time>2020-06-06T10:11:17.000Z</time>
      </trkpt>
      <trkpt lat="45.13474" lon="5.75022">
        <ele>317.01</ele>
        <time>2020-06-06T10:11:22.000Z</time>
      </trkpt>
      <trkpt lat="45.13463" lon="5.75039">
        <ele>316.18</ele>
        <time>2020-06-06T10:11:27.000Z</time>
      </trkpt>
      <trkpt lat="45.1345" lon="5.75059">
        <ele>320.12</ele>
        <time>2020-06-06T10:11:32.000Z</time>
      </trkpt>
      <trkpt lat="45.13437" lon="5.75074">
        <ele>324.34</ele>
        <time>2020-06-06T10:11:37.000Z</time>
      </trkpt>
      <trkpt lat="45.13427" lon="5.75082">
        <ele>323.46</ele>
        <time>2020-06-06T10:11:42.000Z</time>
      </trkpt>
      <trkpt lat="45.1342" lon="5.75067">
        <ele>325.54</ele>
        <time>2020-06-06T10:11:47.000Z</time>
      </trkpt>
      <trkpt lat="45.1342" lon="5.75047">
        <ele>325.3</ele>
        <time>2020-06-06T10:11:52.000Z</time>
      </trkpt>
      <trkpt lat="45.13416" lon="5.75025">
        <ele>327.16</ele>
        <time>2020-06-06T10:11:57.000Z</time>
      </trkpt>
      <trkpt lat="45.13417" lon="5.75005">
        <ele>326.81</ele>
        <time>2020-06-06T10:12:02.000Z</time>
      </trkpt>
      <trkpt lat="45.13427" lon="5.74994">
        <ele>325.8</ele>
        <time>2020-06-06T10:12:07.000Z</time>
      </trkpt>
      <trkpt lat="45.1343" lon="5.74975">
        <ele>327.11</ele>
        <time>2020-06-06T10:12:12.000Z</time>
      </trkpt>
      <trkpt lat="45.13415" lon="5.74969">
        <ele>331.9</ele>
        <time>2020-06-06T10:12:17.000Z</time>
      </trkpt>
      <trkpt lat="45.13402" lon="5.74973">
        <ele>339.02</ele>
        <time>2020-06-06T10:12:22.000Z</time>
      </trkpt>
      <trkpt lat="45.13389" lon="5.74977">
        <ele>338.01</ele>
        <time>2020-06-06T10:12:27.000Z</time>
      </trkpt>
      <trkpt lat="45.13376" lon="5.74979">
        <ele>340.49</ele>
        <time>2020-06-06T10:12:32.000Z</time>
      </trkpt>
      <trkpt lat="45.1336" lon="5.74983">
        <ele>342.93</ele>
        <time>2020-06-06T10:12:37.000Z</time>
      </trkpt>
      <trkpt lat="45.13343" lon="5.74992">
        <ele>345.15</ele>
        <time>2020-06-06T10:12:42.000Z</time>
      </trkpt>
      <trkpt lat="45.13329" lon="5.75004">
        <ele>344.14</ele>
        <time>2020-06-06T10:12:47.000Z</time>
      </trkpt>
      <trkpt lat="45.13316" lon="5.75013">
        <ele>347.93</ele>
        <time>2020-06-06T10:12:52.000Z</time>
      </trkpt>
      <trkpt lat="45.13305" lon="5.75023">
        <ele>351.03</ele>
        <time>2020-06-06T10:12:57.000Z</time>
      </trkpt>
      <trkpt lat="45.13289" lon="5.75025">
        <ele>348.32</ele>
        <time>2020-06-06T10:13:02.000Z</time>
      </trkpt>
      <trkpt lat="45.13277" lon="5.75035">
        <ele>352.62</ele>
        <time>2020-06-06T10:13:07.000Z</time>
      </trkpt>
      <trkpt lat="45.13266" lon="5.75042">
        <ele>358.99</ele>
        <time>2020-06-06T10:13:12.000Z</time>
      </trkpt>
      <trkpt lat="45.13259" lon="5.75052">
        <ele>359.79</ele>
        <time>2020-06-06T10:13:18.000Z</time>
      </trkpt>
      <trkpt lat="45.13256" lon="5.75064">
        <ele>361.35</ele>
        <time>2020-06-06T10:13:34.000Z</time>
      </trkpt>
      <trkpt lat="45.13246" lon="5.75071">
        <ele>365.85</ele>
        <time>2020-06-06T10:14:11.000Z</time>
      </trkpt>
      <trkpt lat="45.13231" lon="5.7508">
        <ele>363.69</ele>
        <time>2020-06-06T10:14:16.000Z</time>
      </trkpt>
      <trkpt lat="45.13217" lon="5.75087">
        <ele>364.01</ele>
        <time>2020-06-06T10:14:21.000Z</time>
      </trkpt>
      <trkpt lat="45.13202" lon="5.75094">
        <ele>367.73</ele>
        <time>2020-06-06T10:14:26.000Z</time>
      </trkpt>
      <trkpt lat="45.13184" lon="5.75106">
        <ele>373.12</ele>
        <time>2020-06-06T10:14:31.000Z</time>
      </trkpt>
      <trkpt lat="45.13166" lon="5.75118">
        <ele>374.55</ele>
        <time>2020-06-06T10:14:36.000Z</time>
      </trkpt>
      <trkpt lat="45.13152" lon="5.75129">
        <ele>374.3</ele>
        <time>2020-06-06T10:14:41.000Z</time>
      </trkpt>
      <trkpt lat="45.13135" lon="5.7514">
        <ele>374.98</ele>
        <time>2020-06-06T10:14:46.000Z</time>
      </trkpt>
      <trkpt lat="45.13117" lon="5.75153">
        <ele>373.51</ele>
        <time>2020-06-06T10:14:51.000Z</time>
      </trkpt>
      <trkpt lat="45.13093" lon="5.75166">
        <ele>373.64</ele>
        <time>2020-06-06T10:14:56.000Z</time>
      </trkpt>
      <trkpt lat="45.13066" lon="5.75173">
        <ele>372.46</ele>
        <time>2020-06-06T10:15:01.000Z</time>
      </trkpt>
      <trkpt lat="45.13041" lon="5.75185">
        <ele>373.6</ele>
        <time>2020-06-06T10:15:06.000Z</time>
      </trkpt>
      <trkpt lat="45.13014" lon="5.75192">
        <ele>369.25</ele>
        <time>2020-06-06T10:15:11.000Z</time>
      </trkpt>
      <trkpt lat="45.12993" lon="5.75203">
        <ele>368.14</ele>
        <time>2020-06-06T10:15:16.000Z</time>
      </trkpt>
      <trkpt lat="45.12972" lon="5.7522">
        <ele>369.26</ele>
        <time>2020-06-06T10:15:21.000Z</time>
      </trkpt>
      <trkpt lat="45.12949" lon="5.75238">
        <ele>368.88</ele>
        <time>2020-06-06T10:15:26.000Z</time>
      </trkpt>
      <trkpt lat="45.12925" lon="5.75251">
        <ele>367.63</ele>
        <time>2020-06-06T10:15:31.000Z</time>
      </trkpt>
      <trkpt lat="45.12897" lon="5.75277">
        <ele>366</ele>
        <time>2020-06-06T10:15:36.000Z</time>
      </trkpt>
      <trkpt lat="45.12854" lon="5.75309">
        <ele>367.11</ele>
        <time>2020-06-06T10:15:41.000Z</time>
      </trkpt>
      <trkpt lat="45.12828" lon="5.75317">
        <ele>371.08</ele>
        <time>2020-06-06T10:15:46.000Z</time>
      </trkpt>
      <trkpt lat="45.12801" lon="5.75334">
        <ele>365.73</ele>
        <time>2020-06-06T10:15:51.000Z</time>
      </trkpt>
      <trkpt lat="45.12781" lon="5.75349">
        <ele>370.02</ele>
        <time>2020-06-06T10:15:56.000Z</time>
      </trkpt>
      <trkpt lat="45.12761" lon="5.75359">
        <ele>366.97</ele>
        <time>2020-06-06T10:16:01.000Z</time>
      </trkpt>
      <trkpt lat="45.12744" lon="5.75377">
        <ele>367.85</ele>
        <time>2020-06-06T10:16:06.000Z</time>
      </trkpt>
      <trkpt lat="45.12729" lon="5.75398">
        <ele>364.02</ele>
        <time>2020-06-06T10:16:11.000Z</time>
      </trkpt>
      <trkpt lat="45.12712" lon="5.75423">
        <ele>357.8</ele>
        <time>2020-06-06T10:16:16.000Z</time>
      </trkpt>
      <trkpt lat="45.12712" lon="5.75478">
        <ele>356.31</ele>
        <time>2020-06-06T10:16:21.000Z</time>
      </trkpt>
      <trkpt lat="45.12741" lon="5.75518">
        <ele>353.8</ele>
        <time>2020-06-06T10:16:26.000Z</time>
      </trkpt>
      <trkpt lat="45.1278" lon="5.75566">
        <ele>355.57</ele>
        <time>2020-06-06T10:16:31.000Z</time>
      </trkpt>
      <trkpt lat="45.12808" lon="5.75612">
        <ele>358.14</ele>
        <time>2020-06-06T10:16:36.000Z</time>
      </trkpt>
      <trkpt lat="45.12828" lon="5.75651">
        <ele>363.95</ele>
        <time>2020-06-06T10:16:41.000Z</time>
      </trkpt>
      <trkpt lat="45.12812" lon="5.75695">
        <ele>366.74</ele>
        <time>2020-06-06T10:16:46.000Z</time>
      </trkpt>
      <trkpt lat="45.12801" lon="5.75723">
        <ele>366.25</ele>
        <time>2020-06-06T10:16:51.000Z</time>
      </trkpt>
      <trkpt lat="45.12806" lon="5.75751">
        <ele>367.81</ele>
        <time>2020-06-06T10:16:56.000Z</time>
      </trkpt>
      <trkpt lat="45.12817" lon="5.75771">
        <ele>366.23</ele>
        <time>2020-06-06T10:17:01.000Z</time>
      </trkpt>
      <trkpt lat="45.12834" lon="5.75786">
        <ele>367.33</ele>
        <time>2020-06-06T10:17:06.000Z</time>
      </trkpt>
      <trkpt lat="45.12848" lon="5.75803">
        <ele>365.88</ele>
        <time>2020-06-06T10:17:11.000Z</time>
      </trkpt>
      <trkpt lat="45.12861" lon="5.75837">
        <ele>364.09</ele>
        <time>2020-06-06T10:17:16.000Z</time>
      </trkpt>
      <trkpt lat="45.12864" lon="5.75869">
        <ele>364.21</ele>
        <time>2020-06-06T10:17:21.000Z</time>
      </trkpt>
      <trkpt lat="45.12859" lon="5.75906">
        <ele>365.72</ele>
        <time>2020-06-06T10:17:26.000Z</time>
      </trkpt>
      <trkpt lat="45.12855" lon="5.75941">
        <ele>370.78</ele>
        <time>2020-06-06T10:17:31.000Z</time>
      </trkpt>
      <trkpt lat="45.12848" lon="5.75974">
        <ele>372.52</ele>
        <time>2020-06-06T10:17:36.000Z</time>
      </trkpt>
      <trkpt lat="45.12842" lon="5.76008">
        <ele>372.02</ele>
        <time>2020-06-06T10:17:41.000Z</time>
      </trkpt>
      <trkpt lat="45.12841" lon="5.76038">
        <ele>374.97</ele>
        <time>2020-06-06T10:17:46.000Z</time>
      </trkpt>
      <trkpt lat="45.12839" lon="5.76072">
        <ele>375.69</ele>
        <time>2020-06-06T10:17:51.000Z</time>
      </trkpt>
      <trkpt lat="45.12844" lon="5.76106">
        <ele>376.38</ele>
        <time>2020-06-06T10:17:56.000Z</time>
      </trkpt>
      <trkpt lat="45.12848" lon="5.76143">
        <ele>376.38</ele>
        <time>2020-06-06T10:18:01.000Z</time>
      </trkpt>
      <trkpt lat="45.12856" lon="5.7617">
        <ele>378.54</ele>
        <time>2020-06-06T10:18:06.000Z</time>
      </trkpt>
      <trkpt lat="45.1286" lon="5.76208">
        <ele>379.35</ele>
        <time>2020-06-06T10:18:11.000Z</time>
      </trkpt>
      <trkpt lat="45.12876" lon="5.76251">
        <ele>375.52</ele>
        <time>2020-06-06T10:18:16.000Z</time>
      </trkpt>
      <trkpt lat="45.12884" lon="5.76296">
        <ele>376.75</ele>
        <time>2020-06-06T10:18:21.000Z</time>
      </trkpt>
      <trkpt lat="45.12873" lon="5.7632">
        <ele>374.19</ele>
        <time>2020-06-06T10:18:26.000Z</time>
      </trkpt>
      <trkpt lat="45.12856" lon="5.76332">
        <ele>374.01</ele>
        <time>2020-06-06T10:18:31.000Z</time>
      </trkpt>
      <trkpt lat="45.12847" lon="5.76333">
        <ele>371.27</ele>
        <time>2020-06-06T10:20:18.000Z</time>
      </trkpt>
      <trkpt lat="45.12829" lon="5.76314">
        <ele>371.72</ele>
        <time>2020-06-06T10:20:23.000Z</time>
      </trkpt>
      <trkpt lat="45.12806" lon="5.76288">
        <ele>371.27</ele>
        <time>2020-06-06T10:20:28.000Z</time>
      </trkpt>
      <trkpt lat="45.12783" lon="5.7626">
        <ele>368.95</ele>
        <time>2020-06-06T10:20:33.000Z</time>
      </trkpt>
      <trkpt lat="45.12758" lon="5.76234">
        <ele>369.37</ele>
        <time>2020-06-06T10:20:38.000Z</time>
      </trkpt>
      <trkpt lat="45.12736" lon="5.76211">
        <ele>369.54</ele>
        <time>2020-06-06T10:20:43.000Z</time>
      </trkpt>
      <trkpt lat="45.12713" lon="5.76187">
        <ele>370.77</ele>
        <time>2020-06-06T10:20:48.000Z</time>
      </trkpt>
      <trkpt lat="45.1269" lon="5.76166">
        <ele>372.11</ele>
        <time>2020-06-06T10:20:53.000Z</time>
      </trkpt>
      <trkpt lat="45.12669" lon="5.7615">
        <ele>372.81</ele>
        <time>2020-06-06T10:20:58.000Z</time>
      </trkpt>
      <trkpt lat="45.12647" lon="5.76131">
        <ele>374.93</ele>
        <time>2020-06-06T10:21:03.000Z</time>
      </trkpt>
      <trkpt lat="45.12626" lon="5.76119">
        <ele>373.88</ele>
        <time>2020-06-06T10:21:08.000Z</time>
      </trkpt>
      <trkpt lat="45.12606" lon="5.76108">
        <ele>375.2</ele>
        <time>2020-06-06T10:21:13.000Z</time>
      </trkpt>
      <trkpt lat="45.12587" lon="5.76096">
        <ele>375.51</ele>
        <time>2020-06-06T10:21:18.000Z</time>
      </trkpt>
      <trkpt lat="45.12565" lon="5.76085">
        <ele>373.98</ele>
        <time>2020-06-06T10:21:23.000Z</time>
      </trkpt>
      <trkpt lat="45.12536" lon="5.76073">
        <ele>376.89</ele>
        <time>2020-06-06T10:21:28.000Z</time>
      </trkpt>
      <trkpt lat="45.12513" lon="5.76062">
        <ele>377.32</ele>
        <time>2020-06-06T10:21:33.000Z</time>
      </trkpt>
      <trkpt lat="45.12484" lon="5.76048">
        <ele>374.44</ele>
        <time>2020-06-06T10:21:38.000Z</time>
      </trkpt>
      <trkpt lat="45.12452" lon="5.76026">
        <ele>376.77</ele>
        <time>2020-06-06T10:21:43.000Z</time>
      </trkpt>
      <trkpt lat="45.12418" lon="5.76008">
        <ele>379.25</ele>
        <time>2020-06-06T10:21:48.000Z</time>
      </trkpt>
      <trkpt lat="45.12388" lon="5.75988">
        <ele>380.33</ele>
        <time>2020-06-06T10:21:53.000Z</time>
      </trkpt>
      <trkpt lat="45.12361" lon="5.75984">
        <ele>380.7</ele>
        <time>2020-06-06T10:21:58.000Z</time>
      </trkpt>
      <trkpt lat="45.12325" lon="5.75982">
        <ele>381.59</ele>
        <time>2020-06-06T10:22:03.000Z</time>
      </trkpt>
      <trkpt lat="45.12293" lon="5.75979">
        <ele>379.46</ele>
        <time>2020-06-06T10:22:08.000Z</time>
      </trkpt>
      <trkpt lat="45.12261" lon="5.75965">
        <ele>378.55</ele>
        <time>2020-06-06T10:22:13.000Z</time>
      </trkpt>
      <trkpt lat="45.1223" lon="5.75957">
        <ele>381.52</ele>
        <time>2020-06-06T10:22:18.000Z</time>
      </trkpt>
      <trkpt lat="45.12199" lon="5.75957">
        <ele>380.42</ele>
        <time>2020-06-06T10:22:23.000Z</time>
      </trkpt>
      <trkpt lat="45.1217" lon="5.75966">
        <ele>381.13</ele>
        <time>2020-06-06T10:22:28.000Z</time>
      </trkpt>
      <trkpt lat="45.12147" lon="5.75959">
        <ele>378.16</ele>
        <time>2020-06-06T10:22:33.000Z</time>
      </trkpt>
      <trkpt lat="45.12124" lon="5.75956">
        <ele>376.67</ele>
        <time>2020-06-06T10:22:38.000Z</time>
      </trkpt>
      <trkpt lat="45.12101" lon="5.75954">
        <ele>378.72</ele>
        <time>2020-06-06T10:22:43.000Z</time>
      </trkpt>
      <trkpt lat="45.12075" lon="5.75953">
        <ele>386.42</ele>
        <time>2020-06-06T10:22:48.000Z</time>
      </trkpt>
      <trkpt lat="45.12051" lon="5.75955">
        <ele>388.46</ele>
        <time>2020-06-06T10:22:53.000Z</time>
      </trkpt>
      <trkpt lat="45.12027" lon="5.75962">
        <ele>388.31</ele>
        <time>2020-06-06T10:22:58.000Z</time>
      </trkpt>
      <trkpt lat="45.12002" lon="5.75968">
        <ele>390.52</ele>
        <time>2020-06-06T10:23:03.000Z</time>
      </trkpt>
      <trkpt lat="45.11974" lon="5.75978">
        <ele>389.46</ele>
        <time>2020-06-06T10:23:08.000Z</time>
      </trkpt>
      <trkpt lat="45.11947" lon="5.75987">
        <ele>391.34</ele>
        <time>2020-06-06T10:23:13.000Z</time>
      </trkpt>
      <trkpt lat="45.1192" lon="5.75994">
        <ele>391.97</ele>
        <time>2020-06-06T10:23:18.000Z</time>
      </trkpt>
      <trkpt lat="45.11893" lon="5.76006">
        <ele>392.01</ele>
        <time>2020-06-06T10:23:23.000Z</time>
      </trkpt>
      <trkpt lat="45.11867" lon="5.76016">
        <ele>391.36</ele>
        <time>2020-06-06T10:23:28.000Z</time>
      </trkpt>
      <trkpt lat="45.11841" lon="5.76014">
        <ele>391.64</ele>
        <time>2020-06-06T10:23:33.000Z</time>
      </trkpt>
      <trkpt lat="45.11809" lon="5.76016">
        <ele>387.87</ele>
        <time>2020-06-06T10:23:38.000Z</time>
      </trkpt>
      <trkpt lat="45.11783" lon="5.7602">
        <ele>392.16</ele>
        <time>2020-06-06T10:23:43.000Z</time>
      </trkpt>
      <trkpt lat="45.11755" lon="5.76015">
        <ele>390.72</ele>
        <time>2020-06-06T10:23:48.000Z</time>
      </trkpt>
      <trkpt lat="45.11731" lon="5.7602">
        <ele>391.26</ele>
        <time>2020-06-06T10:23:53.000Z</time>
      </trkpt>
      <trkpt lat="45.1173" lon="5.7604">
        <ele>392.36</ele>
        <time>2020-06-06T10:23:58.000Z</time>
      </trkpt>
      <trkpt lat="45.11741" lon="5.76061">
        <ele>390.39</ele>
        <time>2020-06-06T10:24:03.000Z</time>
      </trkpt>
      <trkpt lat="45.11752" lon="5.7608">
        <ele>388.45</ele>
        <time>2020-06-06T10:24:08.000Z</time>
      </trkpt>
      <trkpt lat="45.11747" lon="5.76101">
        <ele>390.79</ele>
        <time>2020-06-06T10:24:13.000Z</time>
      </trkpt>
      <trkpt lat="45.11726" lon="5.76109">
        <ele>393.26</ele>
        <time>2020-06-06T10:24:18.000Z</time>
      </trkpt>
      <trkpt lat="45.11717" lon="5.76133">
        <ele>397.77</ele>
        <time>2020-06-06T10:24:23.000Z</time>
      </trkpt>
      <trkpt lat="45.11733" lon="5.76154">
        <ele>396.7</ele>
        <time>2020-06-06T10:24:28.000Z</time>
      </trkpt>
      <trkpt lat="45.11748" lon="5.76166">
        <ele>394.62</ele>
        <time>2020-06-06T10:24:33.000Z</time>
      </trkpt>
      <trkpt lat="45.11763" lon="5.76174">
        <ele>395.68</ele>
        <time>2020-06-06T10:24:38.000Z</time>
      </trkpt>
      <trkpt lat="45.11777" lon="5.76183">
        <ele>395.78</ele>
        <time>2020-06-06T10:24:43.000Z</time>
      </trkpt>
      <trkpt lat="45.11793" lon="5.76194">
        <ele>401.06</ele>
        <time>2020-06-06T10:24:48.000Z</time>
      </trkpt>
      <trkpt lat="45.11809" lon="5.76201">
        <ele>404.2</ele>
        <time>2020-06-06T10:24:53.000Z</time>
      </trkpt>
      <trkpt lat="45.11825" lon="5.76206">
        <ele>407.03</ele>
        <time>2020-06-06T10:24:58.000Z</time>
      </trkpt>
      <trkpt lat="45.11841" lon="5.76208">
        <ele>410.3</ele>
        <time>2020-06-06T10:25:03.000Z</time>
      </trkpt>
      <trkpt lat="45.11857" lon="5.76208">
        <ele>411.2</ele>
        <time>2020-06-06T10:25:08.000Z</time>
      </trkpt>
      <trkpt lat="45.11859" lon="5.7623">
        <ele>410.25</ele>
        <time>2020-06-06T10:25:13.000Z</time>
      </trkpt>
      <trkpt lat="45.11853" lon="5.76246">
        <ele>413.22</ele>
        <time>2020-06-06T10:25:18.000Z</time>
      </trkpt>
      <trkpt lat="45.11845" lon="5.76253">
        <ele>414.79</ele>
        <time>2020-06-06T10:25:23.000Z</time>
      </trkpt>
      <trkpt lat="45.11839" lon="5.76268">
        <ele>414.13</ele>
        <time>2020-06-06T10:25:28.000Z</time>
      </trkpt>
      <trkpt lat="45.11843" lon="5.76292">
        <ele>411.9</ele>
        <time>2020-06-06T10:25:33.000Z</time>
      </trkpt>
      <trkpt lat="45.11852" lon="5.76312">
        <ele>410.95</ele>
        <time>2020-06-06T10:25:38.000Z</time>
      </trkpt>
      <trkpt lat="45.11859" lon="5.76321">
        <ele>409.95</ele>
        <time>2020-06-06T10:25:43.000Z</time>
      </trkpt>
      <trkpt lat="45.11871" lon="5.76332">
        <ele>410.18</ele>
        <time>2020-06-06T10:25:48.000Z</time>
      </trkpt>
      <trkpt lat="45.1189" lon="5.76338">
        <ele>416</ele>
        <time>2020-06-06T10:25:53.000Z</time>
      </trkpt>
      <trkpt lat="45.11912" lon="5.76339">
        <ele>418.73</ele>
        <time>2020-06-06T10:25:58.000Z</time>
      </trkpt>
      <trkpt lat="45.11927" lon="5.76335">
        <ele>420.62</ele>
        <time>2020-06-06T10:26:03.000Z</time>
      </trkpt>
      <trkpt lat="45.11943" lon="5.76335">
        <ele>421.36</ele>
        <time>2020-06-06T10:26:08.000Z</time>
      </trkpt>
      <trkpt lat="45.11957" lon="5.76337">
        <ele>420.68</ele>
        <time>2020-06-06T10:26:13.000Z</time>
      </trkpt>
      <trkpt lat="45.11971" lon="5.76346">
        <ele>423.05</ele>
        <time>2020-06-06T10:26:18.000Z</time>
      </trkpt>
      <trkpt lat="45.11984" lon="5.76355">
        <ele>424.09</ele>
        <time>2020-06-06T10:26:23.000Z</time>
      </trkpt>
      <trkpt lat="45.11998" lon="5.76363">
        <ele>424.98</ele>
        <time>2020-06-06T10:26:28.000Z</time>
      </trkpt>
      <trkpt lat="45.12013" lon="5.76371">
        <ele>426.21</ele>
        <time>2020-06-06T10:26:33.000Z</time>
      </trkpt>
      <trkpt lat="45.12031" lon="5.76381">
        <ele>428.92</ele>
        <time>2020-06-06T10:26:38.000Z</time>
      </trkpt>
      <trkpt lat="45.12048" lon="5.76392">
        <ele>432.06</ele>
        <time>2020-06-06T10:26:43.000Z</time>
      </trkpt>
      <trkpt lat="45.12065" lon="5.76398">
        <ele>433.94</ele>
        <time>2020-06-06T10:26:48.000Z</time>
      </trkpt>
      <trkpt lat="45.12084" lon="5.76404">
        <ele>434.45</ele>
        <time>2020-06-06T10:26:53.000Z</time>
      </trkpt>
      <trkpt lat="45.121" lon="5.76409">
        <ele>438.61</ele>
        <time>2020-06-06T10:26:58.000Z</time>
      </trkpt>
      <trkpt lat="45.12115" lon="5.76417">
        <ele>437.96</ele>
        <time>2020-06-06T10:27:03.000Z</time>
      </trkpt>
      <trkpt lat="45.12129" lon="5.76427">
        <ele>436.4</ele>
        <time>2020-06-06T10:27:08.000Z</time>
      </trkpt>
      <trkpt lat="45.12142" lon="5.76438">
        <ele>435.49</ele>
        <time>2020-06-06T10:27:13.000Z</time>
      </trkpt>
      <trkpt lat="45.12155" lon="5.76446">
        <ele>436.77</ele>
        <time>2020-06-06T10:27:18.000Z</time>
      </trkpt>
      <trkpt lat="45.1217" lon="5.76453">
        <ele>438.96</ele>
        <time>2020-06-06T10:27:23.000Z</time>
      </trkpt>
      <trkpt lat="45.12184" lon="5.76457">
        <ele>439.31</ele>
        <time>2020-06-06T10:27:28.000Z</time>
      </trkpt>
      <trkpt lat="45.12197" lon="5.76462">
        <ele>437.19</ele>
        <time>2020-06-06T10:27:33.000Z</time>
      </trkpt>
      <trkpt lat="45.1221" lon="5.76469">
        <ele>435.59</ele>
        <time>2020-06-06T10:27:38.000Z</time>
      </trkpt>
      <trkpt lat="45.12228" lon="5.76478">
        <ele>435.66</ele>
        <time>2020-06-06T10:27:43.000Z</time>
      </trkpt>
      <trkpt lat="45.12246" lon="5.76489">
        <ele>437.72</ele>
        <time>2020-06-06T10:27:48.000Z</time>
      </trkpt>
      <trkpt lat="45.12266" lon="5.76498">
        <ele>439.53</ele>
        <time>2020-06-06T10:27:53.000Z</time>
      </trkpt>
      <trkpt lat="45.12281" lon="5.76511">
        <ele>438.58</ele>
        <time>2020-06-06T10:27:58.000Z</time>
      </trkpt>
      <trkpt lat="45.12295" lon="5.76532">
        <ele>437.09</ele>
        <time>2020-06-06T10:28:03.000Z</time>
      </trkpt>
      <trkpt lat="45.12307" lon="5.7655">
        <ele>438.76</ele>
        <time>2020-06-06T10:28:08.000Z</time>
      </trkpt>
      <trkpt lat="45.1232" lon="5.76562">
        <ele>443.17</ele>
        <time>2020-06-06T10:28:13.000Z</time>
      </trkpt>
      <trkpt lat="45.12332" lon="5.7658">
        <ele>443.1</ele>
        <time>2020-06-06T10:28:18.000Z</time>
      </trkpt>
      <trkpt lat="45.12356" lon="5.76609">
        <ele>439.51</ele>
        <time>2020-06-06T10:28:23.000Z</time>
      </trkpt>
      <trkpt lat="45.12382" lon="5.76649">
        <ele>434.8</ele>
        <time>2020-06-06T10:28:28.000Z</time>
      </trkpt>
      <trkpt lat="45.12405" lon="5.76682">
        <ele>435.81</ele>
        <time>2020-06-06T10:28:33.000Z</time>
      </trkpt>
      <trkpt lat="45.12428" lon="5.76704">
        <ele>437.6</ele>
        <time>2020-06-06T10:28:38.000Z</time>
      </trkpt>
      <trkpt lat="45.12445" lon="5.76725">
        <ele>433.56</ele>
        <time>2020-06-06T10:28:43.000Z</time>
      </trkpt>
      <trkpt lat="45.12469" lon="5.7677">
        <ele>433.34</ele>
        <time>2020-06-06T10:28:48.000Z</time>
      </trkpt>
      <trkpt lat="45.12496" lon="5.76825">
        <ele>436.59</ele>
        <time>2020-06-06T10:28:53.000Z</time>
      </trkpt>
      <trkpt lat="45.1252" lon="5.76869">
        <ele>434.3</ele>
        <time>2020-06-06T10:28:58.000Z</time>
      </trkpt>
      <trkpt lat="45.12535" lon="5.76898">
        <ele>430.88</ele>
        <time>2020-06-06T10:29:03.000Z</time>
      </trkpt>
      <trkpt lat="45.1253" lon="5.76911">
        <ele>428.48</ele>
        <time>2020-06-06T10:29:18.000Z</time>
      </trkpt>
      <trkpt lat="45.12526" lon="5.76928">
        <ele>426.09</ele>
        <time>2020-06-06T10:29:23.000Z</time>
      </trkpt>
      <trkpt lat="45.12526" lon="5.76951">
        <ele>422.11</ele>
        <time>2020-06-06T10:29:28.000Z</time>
      </trkpt>
      <trkpt lat="45.12528" lon="5.76976">
        <ele>421.01</ele>
        <time>2020-06-06T10:29:33.000Z</time>
      </trkpt>
      <trkpt lat="45.12532" lon="5.76995">
        <ele>417.53</ele>
        <time>2020-06-06T10:29:38.000Z</time>
      </trkpt>
      <trkpt lat="45.12537" lon="5.77006">
        <ele>419.01</ele>
        <time>2020-06-06T10:29:45.000Z</time>
      </trkpt>
      <trkpt lat="45.12543" lon="5.77017">
        <ele>420.27</ele>
        <time>2020-06-06T10:29:53.000Z</time>
      </trkpt>
      <trkpt lat="45.12546" lon="5.77032">
        <ele>421.7</ele>
        <time>2020-06-06T10:29:58.000Z</time>
      </trkpt>
      <trkpt lat="45.12547" lon="5.77055">
        <ele>420.67</ele>
        <time>2020-06-06T10:30:03.000Z</time>
      </trkpt>
      <trkpt lat="45.12552" lon="5.77081">
        <ele>420.31</ele>
        <time>2020-06-06T10:30:08.000Z</time>
      </trkpt>
      <trkpt lat="45.12556" lon="5.77117">
        <ele>421.3</ele>
        <time>2020-06-06T10:30:13.000Z</time>
      </trkpt>
      <trkpt lat="45.12562" lon="5.77161">
        <ele>419.17</ele>
        <time>2020-06-06T10:30:18.000Z</time>
      </trkpt>
      <trkpt lat="45.12579" lon="5.77205">
        <ele>411.91</ele>
        <time>2020-06-06T10:30:23.000Z</time>
      </trkpt>
      <trkpt lat="45.1261" lon="5.77236">
        <ele>408.41</ele>
        <time>2020-06-06T10:30:28.000Z</time>
      </trkpt>
      <trkpt lat="45.12644" lon="5.77264">
        <ele>408.36</ele>
        <time>2020-06-06T10:30:33.000Z</time>
      </trkpt>
      <trkpt lat="45.12664" lon="5.77301">
        <ele>410.34</ele>
        <time>2020-06-06T10:30:38.000Z</time>
      </trkpt>
      <trkpt lat="45.1267" lon="5.77325">
        <ele>406.94</ele>
        <time>2020-06-06T10:30:43.000Z</time>
      </trkpt>
      <trkpt lat="45.12676" lon="5.77351">
        <ele>409.75</ele>
        <time>2020-06-06T10:30:48.000Z</time>
      </trkpt>
      <trkpt lat="45.12684" lon="5.77369">
        <ele>411.61</ele>
        <time>2020-06-06T10:30:53.000Z</time>
      </trkpt>
      <trkpt lat="45.12695" lon="5.77391">
        <ele>413.22</ele>
        <time>2020-06-06T10:30:58.000Z</time>
      </trkpt>
      <trkpt lat="45.12705" lon="5.77411">
        <ele>417.75</ele>
        <time>2020-06-06T10:31:03.000Z</time>
      </trkpt>
      <trkpt lat="45.12712" lon="5.7743">
        <ele>411.63</ele>
        <time>2020-06-06T10:31:08.000Z</time>
      </trkpt>
      <trkpt lat="45.12725" lon="5.77447">
        <ele>413.47</ele>
        <time>2020-06-06T10:31:13.000Z</time>
      </trkpt>
      <trkpt lat="45.12742" lon="5.77464">
        <ele>413.14</ele>
        <time>2020-06-06T10:31:18.000Z</time>
      </trkpt>
      <trkpt lat="45.12757" lon="5.77477">
        <ele>415.11</ele>
        <time>2020-06-06T10:31:23.000Z</time>
      </trkpt>
      <trkpt lat="45.12775" lon="5.77487">
        <ele>415.85</ele>
        <time>2020-06-06T10:31:28.000Z</time>
      </trkpt>
      <trkpt lat="45.12795" lon="5.77499">
        <ele>414.33</ele>
        <time>2020-06-06T10:31:33.000Z</time>
      </trkpt>
      <trkpt lat="45.12807" lon="5.7752">
        <ele>407.82</ele>
        <time>2020-06-06T10:31:38.000Z</time>
      </trkpt>
      <trkpt lat="45.12813" lon="5.77545">
        <ele>405.82</ele>
        <time>2020-06-06T10:31:43.000Z</time>
      </trkpt>
      <trkpt lat="45.12825" lon="5.77569">
        <ele>409.19</ele>
        <time>2020-06-06T10:31:48.000Z</time>
      </trkpt>
      <trkpt lat="45.12833" lon="5.77593">
        <ele>409.55</ele>
        <time>2020-06-06T10:31:53.000Z</time>
      </trkpt>
      <trkpt lat="45.12848" lon="5.77611">
        <ele>415.29</ele>
        <time>2020-06-06T10:31:58.000Z</time>
      </trkpt>
      <trkpt lat="45.12867" lon="5.77626">
        <ele>418.39</ele>
        <time>2020-06-06T10:32:03.000Z</time>
      </trkpt>
      <trkpt lat="45.12884" lon="5.77633">
        <ele>419.79</ele>
        <time>2020-06-06T10:32:08.000Z</time>
      </trkpt>
      <trkpt lat="45.12899" lon="5.77638">
        <ele>418.42</ele>
        <time>2020-06-06T10:32:13.000Z</time>
      </trkpt>
      <trkpt lat="45.12915" lon="5.77654">
        <ele>417.17</ele>
        <time>2020-06-06T10:32:18.000Z</time>
      </trkpt>
      <trkpt lat="45.12926" lon="5.77665">
        <ele>417.2</ele>
        <time>2020-06-06T10:32:23.000Z</time>
      </trkpt>
      <trkpt lat="45.12934" lon="5.77673">
        <ele>419.37</ele>
        <time>2020-06-06T10:32:29.000Z</time>
      </trkpt>
      <trkpt lat="45.12943" lon="5.77692">
        <ele>417.64</ele>
        <time>2020-06-06T10:32:34.000Z</time>
      </trkpt>
      <trkpt lat="45.12951" lon="5.77719">
        <ele>417.63</ele>
        <time>2020-06-06T10:32:39.000Z</time>
      </trkpt>
      <trkpt lat="45.1295" lon="5.77735">
        <ele>418.75</ele>
        <time>2020-06-06T10:32:44.000Z</time>
      </trkpt>
      <trkpt lat="45.12942" lon="5.77743">
        <ele>417.7</ele>
        <time>2020-06-06T10:32:49.000Z</time>
      </trkpt>
      <trkpt lat="45.12954" lon="5.77739">
        <ele>414.24</ele>
        <time>2020-06-06T10:33:02.000Z</time>
      </trkpt>
      <trkpt lat="45.12962" lon="5.77746">
        <ele>415.5</ele>
        <time>2020-06-06T10:33:10.000Z</time>
      </trkpt>
      <trkpt lat="45.12968" lon="5.77757">
        <ele>419.57</ele>
        <time>2020-06-06T10:33:34.000Z</time>
      </trkpt>
      <trkpt lat="45.12977" lon="5.77764">
        <ele>418.7</ele>
        <time>2020-06-06T10:33:46.000Z</time>
      </trkpt>
      <trkpt lat="45.13023" lon="5.7779">
        <ele>424.01</ele>
        <time>2020-06-06T10:33:51.000Z</time>
      </trkpt>
      <trkpt lat="45.13049" lon="5.77798">
        <ele>419.54</ele>
        <time>2020-06-06T10:33:56.000Z</time>
      </trkpt>
      <trkpt lat="45.13054" lon="5.77808">
        <ele>421.64</ele>
        <time>2020-06-06T10:34:03.000Z</time>
      </trkpt>
      <trkpt lat="45.13063" lon="5.77803">
        <ele>415.55</ele>
        <time>2020-06-06T10:34:23.000Z</time>
      </trkpt>
      <trkpt lat="45.13087" lon="5.77808">
        <ele>413</ele>
        <time>2020-06-06T10:34:28.000Z</time>
      </trkpt>
      <trkpt lat="45.13108" lon="5.77825">
        <ele>415.01</ele>
        <time>2020-06-06T10:34:33.000Z</time>
      </trkpt>
      <trkpt lat="45.13125" lon="5.77843">
        <ele>415.11</ele>
        <time>2020-06-06T10:34:38.000Z</time>
      </trkpt>
      <trkpt lat="45.13139" lon="5.77854">
        <ele>412.7</ele>
        <time>2020-06-06T10:34:43.000Z</time>
      </trkpt>
      <trkpt lat="45.13166" lon="5.77859">
        <ele>414.52</ele>
        <time>2020-06-06T10:34:48.000Z</time>
      </trkpt>
      <trkpt lat="45.13195" lon="5.77864">
        <ele>411.57</ele>
        <time>2020-06-06T10:34:53.000Z</time>
      </trkpt>
      <trkpt lat="45.13221" lon="5.77869">
        <ele>414.21</ele>
        <time>2020-06-06T10:34:58.000Z</time>
      </trkpt>
      <trkpt lat="45.13241" lon="5.77881">
        <ele>414.12</ele>
        <time>2020-06-06T10:35:03.000Z</time>
      </trkpt>
      <trkpt lat="45.13262" lon="5.77902">
        <ele>415.14</ele>
        <time>2020-06-06T10:35:08.000Z</time>
      </trkpt>
      <trkpt lat="45.13269" lon="5.77928">
        <ele>411.31</ele>
        <time>2020-06-06T10:35:13.000Z</time>
      </trkpt>
      <trkpt lat="45.13282" lon="5.77949">
        <ele>409.81</ele>
        <time>2020-06-06T10:35:18.000Z</time>
      </trkpt>
      <trkpt lat="45.13303" lon="5.77971">
        <ele>408.69</ele>
        <time>2020-06-06T10:35:23.000Z</time>
      </trkpt>
      <trkpt lat="45.13327" lon="5.77996">
        <ele>402.46</ele>
        <time>2020-06-06T10:35:28.000Z</time>
      </trkpt>
      <trkpt lat="45.13354" lon="5.78031">
        <ele>396.13</ele>
        <time>2020-06-06T10:35:33.000Z</time>
      </trkpt>
      <trkpt lat="45.13381" lon="5.7803">
        <ele>384.76</ele>
        <time>2020-06-06T10:35:38.000Z</time>
      </trkpt>
      <trkpt lat="45.13406" lon="5.78016">
        <ele>383.35</ele>
        <time>2020-06-06T10:35:43.000Z</time>
      </trkpt>
      <trkpt lat="45.13427" lon="5.77989">
        <ele>383.56</ele>
        <time>2020-06-06T10:35:48.000Z</time>
      </trkpt>
      <trkpt lat="45.13441" lon="5.7796">
        <ele>381.03</ele>
        <time>2020-06-06T10:35:53.000Z</time>
      </trkpt>
      <trkpt lat="45.13462" lon="5.77945">
        <ele>379.05</ele>
        <time>2020-06-06T10:35:58.000Z</time>
      </trkpt>
      <trkpt lat="45.13472" lon="5.77935">
        <ele>383.38</ele>
        <time>2020-06-06T10:36:03.000Z</time>
      </trkpt>
      <trkpt lat="45.13484" lon="5.77928">
        <ele>384.09</ele>
        <time>2020-06-06T10:36:08.000Z</time>
      </trkpt>
      <trkpt lat="45.13499" lon="5.77924">
        <ele>382.9</ele>
        <time>2020-06-06T10:36:13.000Z</time>
      </trkpt>
      <trkpt lat="45.13516" lon="5.77924">
        <ele>386.28</ele>
        <time>2020-06-06T10:36:18.000Z</time>
      </trkpt>
      <trkpt lat="45.1353" lon="5.77906">
        <ele>385.54</ele>
        <time>2020-06-06T10:36:23.000Z</time>
      </trkpt>
      <trkpt lat="45.13543" lon="5.77893">
        <ele>387.48</ele>
        <time>2020-06-06T10:36:28.000Z</time>
      </trkpt>
      <trkpt lat="45.13554" lon="5.77879">
        <ele>387.4</ele>
        <time>2020-06-06T10:36:33.000Z</time>
      </trkpt>
      <trkpt lat="45.13568" lon="5.77865">
        <ele>385.86</ele>
        <time>2020-06-06T10:36:38.000Z</time>
      </trkpt>
      <trkpt lat="45.13584" lon="5.77854">
        <ele>386.41</ele>
        <time>2020-06-06T10:36:43.000Z</time>
      </trkpt>
      <trkpt lat="45.13606" lon="5.77848">
        <ele>383.61</ele>
        <time>2020-06-06T10:36:48.000Z</time>
      </trkpt>
      <trkpt lat="45.13624" lon="5.77851">
        <ele>390.72</ele>
        <time>2020-06-06T10:36:53.000Z</time>
      </trkpt>
      <trkpt lat="45.13637" lon="5.77853">
        <ele>392.58</ele>
        <time>2020-06-06T10:36:58.000Z</time>
      </trkpt>
      <trkpt lat="45.13652" lon="5.77856">
        <ele>395.69</ele>
        <time>2020-06-06T10:37:03.000Z</time>
      </trkpt>
      <trkpt lat="45.13669" lon="5.77867">
        <ele>397.87</ele>
        <time>2020-06-06T10:37:08.000Z</time>
      </trkpt>
      <trkpt lat="45.13686" lon="5.77864">
        <ele>400.37</ele>
        <time>2020-06-06T10:37:13.000Z</time>
      </trkpt>
      <trkpt lat="45.13698" lon="5.77852">
        <ele>401.4</ele>
        <time>2020-06-06T10:37:18.000Z</time>
      </trkpt>
      <trkpt lat="45.13705" lon="5.77832">
        <ele>400.82</ele>
        <time>2020-06-06T10:37:23.000Z</time>
      </trkpt>
      <trkpt lat="45.13711" lon="5.77812">
        <ele>396.54</ele>
        <time>2020-06-06T10:37:28.000Z</time>
      </trkpt>
      <trkpt lat="45.13708" lon="5.77799">
        <ele>397.62</ele>
        <time>2020-06-06T10:37:34.000Z</time>
      </trkpt>
      <trkpt lat="45.13705" lon="5.77776">
        <ele>398.87</ele>
        <time>2020-06-06T10:37:39.000Z</time>
      </trkpt>
      <trkpt lat="45.1371" lon="5.77737">
        <ele>399.57</ele>
        <time>2020-06-06T10:37:44.000Z</time>
      </trkpt>
      <trkpt lat="45.13722" lon="5.77703">
        <ele>392.23</ele>
        <time>2020-06-06T10:37:49.000Z</time>
      </trkpt>
      <trkpt lat="45.13734" lon="5.77672">
        <ele>391.07</ele>
        <time>2020-06-06T10:37:54.000Z</time>
      </trkpt>
      <trkpt lat="45.13756" lon="5.77644">
        <ele>389.09</ele>
        <time>2020-06-06T10:37:59.000Z</time>
      </trkpt>
      <trkpt lat="45.13792" lon="5.77641">
        <ele>388.05</ele>
        <time>2020-06-06T10:38:04.000Z</time>
      </trkpt>
      <trkpt lat="45.13816" lon="5.77631">
        <ele>386.2</ele>
        <time>2020-06-06T10:38:09.000Z</time>
      </trkpt>
      <trkpt lat="45.13833" lon="5.77625">
        <ele>386.05</ele>
        <time>2020-06-06T10:38:14.000Z</time>
      </trkpt>
      <trkpt lat="45.13845" lon="5.77609">
        <ele>386.38</ele>
        <time>2020-06-06T10:38:19.000Z</time>
      </trkpt>
      <trkpt lat="45.13859" lon="5.77601">
        <ele>387.78</ele>
        <time>2020-06-06T10:38:24.000Z</time>
      </trkpt>
      <trkpt lat="45.13877" lon="5.776">
        <ele>387.65</ele>
        <time>2020-06-06T10:38:29.000Z</time>
      </trkpt>
      <trkpt lat="45.13887" lon="5.77614">
        <ele>387.31</ele>
        <time>2020-06-06T10:38:34.000Z</time>
      </trkpt>
      <trkpt lat="45.13892" lon="5.77635">
        <ele>389.51</ele>
        <time>2020-06-06T10:38:39.000Z</time>
      </trkpt>
      <trkpt lat="45.13901" lon="5.77656">
        <ele>389.53</ele>
        <time>2020-06-06T10:38:44.000Z</time>
      </trkpt>
      <trkpt lat="45.13909" lon="5.77675">
        <ele>392.51</ele>
        <time>2020-06-06T10:38:49.000Z</time>
      </trkpt>
      <trkpt lat="45.13916" lon="5.77691">
        <ele>393.45</ele>
        <time>2020-06-06T10:38:54.000Z</time>
      </trkpt>
      <trkpt lat="45.13923" lon="5.77711">
        <ele>393.39</ele>
        <time>2020-06-06T10:38:59.000Z</time>
      </trkpt>
      <trkpt lat="45.13924" lon="5.77725">
        <ele>404.23</ele>
        <time>2020-06-06T10:39:18.000Z</time>
      </trkpt>
      <trkpt lat="45.13925" lon="5.77747">
        <ele>406.38</ele>
        <time>2020-06-06T10:39:23.000Z</time>
      </trkpt>
      <trkpt lat="45.13937" lon="5.77763">
        <ele>407.11</ele>
        <time>2020-06-06T10:39:28.000Z</time>
      </trkpt>
      <trkpt lat="45.13955" lon="5.77772">
        <ele>407.24</ele>
        <time>2020-06-06T10:39:33.000Z</time>
      </trkpt>
      <trkpt lat="45.13971" lon="5.77769">
        <ele>408.89</ele>
        <time>2020-06-06T10:39:38.000Z</time>
      </trkpt>
      <trkpt lat="45.13991" lon="5.77773">
        <ele>414.62</ele>
        <time>2020-06-06T10:39:43.000Z</time>
      </trkpt>
      <trkpt lat="45.14008" lon="5.77785">
        <ele>411</ele>
        <time>2020-06-06T10:39:48.000Z</time>
      </trkpt>
      <trkpt lat="45.14024" lon="5.77792">
        <ele>412.61</ele>
        <time>2020-06-06T10:39:53.000Z</time>
      </trkpt>
      <trkpt lat="45.14041" lon="5.77798">
        <ele>415.64</ele>
        <time>2020-06-06T10:39:58.000Z</time>
      </trkpt>
      <trkpt lat="45.14059" lon="5.77804">
        <ele>416.07</ele>
        <time>2020-06-06T10:40:03.000Z</time>
      </trkpt>
      <trkpt lat="45.14071" lon="5.77819">
        <ele>417.47</ele>
        <time>2020-06-06T10:40:08.000Z</time>
      </trkpt>
      <trkpt lat="45.14073" lon="5.7784">
        <ele>418.11</ele>
        <time>2020-06-06T10:40:13.000Z</time>
      </trkpt>
      <trkpt lat="45.14064" lon="5.77863">
        <ele>421.17</ele>
        <time>2020-06-06T10:40:18.000Z</time>
      </trkpt>
      <trkpt lat="45.14053" lon="5.7788">
        <ele>424.63</ele>
        <time>2020-06-06T10:40:23.000Z</time>
      </trkpt>
      <trkpt lat="45.14042" lon="5.77891">
        <ele>420.35</ele>
        <time>2020-06-06T10:40:28.000Z</time>
      </trkpt>
      <trkpt lat="45.14027" lon="5.77907">
        <ele>424.47</ele>
        <time>2020-06-06T10:40:33.000Z</time>
      </trkpt>
      <trkpt lat="45.14017" lon="5.77928">
        <ele>427.4</ele>
        <time>2020-06-06T10:40:38.000Z</time>
      </trkpt>
      <trkpt lat="45.14007" lon="5.77951">
        <ele>427.96</ele>
        <time>2020-06-06T10:40:43.000Z</time>
      </trkpt>
      <trkpt lat="45.13996" lon="5.7799">
        <ele>428.2</ele>
        <time>2020-06-06T10:40:48.000Z</time>
      </trkpt>
      <trkpt lat="45.13982" lon="5.78015">
        <ele>427.06</ele>
        <time>2020-06-06T10:40:53.000Z</time>
      </trkpt>
      <trkpt lat="45.13978" lon="5.78036">
        <ele>427.34</ele>
        <time>2020-06-06T10:40:58.000Z</time>
      </trkpt>
      <trkpt lat="45.13967" lon="5.78057">
        <ele>426.29</ele>
        <time>2020-06-06T10:41:03.000Z</time>
      </trkpt>
      <trkpt lat="45.1396" lon="5.78085">
        <ele>427.14</ele>
        <time>2020-06-06T10:41:08.000Z</time>
      </trkpt>
      <trkpt lat="45.13959" lon="5.78114">
        <ele>429.03</ele>
        <time>2020-06-06T10:41:13.000Z</time>
      </trkpt>
      <trkpt lat="45.13965" lon="5.78144">
        <ele>430.57</ele>
        <time>2020-06-06T10:41:18.000Z</time>
      </trkpt>
      <trkpt lat="45.13972" lon="5.7817">
        <ele>432.5</ele>
        <time>2020-06-06T10:41:23.000Z</time>
      </trkpt>
      <trkpt lat="45.13978" lon="5.78198">
        <ele>433.07</ele>
        <time>2020-06-06T10:41:28.000Z</time>
      </trkpt>
      <trkpt lat="45.13984" lon="5.78227">
        <ele>435.4</ele>
        <time>2020-06-06T10:41:33.000Z</time>
      </trkpt>
      <trkpt lat="45.13989" lon="5.78256">
        <ele>439.08</ele>
        <time>2020-06-06T10:41:38.000Z</time>
      </trkpt>
      <trkpt lat="45.13996" lon="5.78278">
        <ele>435.38</ele>
        <time>2020-06-06T10:41:43.000Z</time>
      </trkpt>
      <trkpt lat="45.14003" lon="5.78305">
        <ele>436.37</ele>
        <time>2020-06-06T10:41:48.000Z</time>
      </trkpt>
      <trkpt lat="45.14009" lon="5.78326">
        <ele>440.05</ele>
        <time>2020-06-06T10:41:53.000Z</time>
      </trkpt>
      <trkpt lat="45.14012" lon="5.78341">
        <ele>440.66</ele>
        <time>2020-06-06T10:42:08.000Z</time>
      </trkpt>
      <trkpt lat="45.14021" lon="5.78355">
        <ele>441.63</ele>
        <time>2020-06-06T10:42:13.000Z</time>
      </trkpt>
      <trkpt lat="45.14037" lon="5.78351">
        <ele>446.03</ele>
        <time>2020-06-06T10:42:18.000Z</time>
      </trkpt>
      <trkpt lat="45.1405" lon="5.78337">
        <ele>446.59</ele>
        <time>2020-06-06T10:42:23.000Z</time>
      </trkpt>
      <trkpt lat="45.14062" lon="5.78325">
        <ele>448.18</ele>
        <time>2020-06-06T10:42:28.000Z</time>
      </trkpt>
      <trkpt lat="45.14075" lon="5.78302">
        <ele>446.29</ele>
        <time>2020-06-06T10:42:33.000Z</time>
      </trkpt>
      <trkpt lat="45.14091" lon="5.78282">
        <ele>445.82</ele>
        <time>2020-06-06T10:42:38.000Z</time>
      </trkpt>
      <trkpt lat="45.14105" lon="5.78293">
        <ele>445.97</ele>
        <time>2020-06-06T10:42:43.000Z</time>
      </trkpt>
      <trkpt lat="45.14111" lon="5.78307">
        <ele>449.19</ele>
        <time>2020-06-06T10:42:48.000Z</time>
      </trkpt>
      <trkpt lat="45.14117" lon="5.78323">
        <ele>449.1</ele>
        <time>2020-06-06T10:42:53.000Z</time>
      </trkpt>
      <trkpt lat="45.14127" lon="5.78341">
        <ele>451.99</ele>
        <time>2020-06-06T10:42:58.000Z</time>
      </trkpt>
      <trkpt lat="45.14136" lon="5.78357">
        <ele>452</ele>
        <time>2020-06-06T10:43:03.000Z</time>
      </trkpt>
      <trkpt lat="45.1414" lon="5.78373">
        <ele>452.96</ele>
        <time>2020-06-06T10:43:08.000Z</time>
      </trkpt>
      <trkpt lat="45.14148" lon="5.78391">
        <ele>452.86</ele>
        <time>2020-06-06T10:43:13.000Z</time>
      </trkpt>
      <trkpt lat="45.14156" lon="5.7841">
        <ele>452.26</ele>
        <time>2020-06-06T10:43:18.000Z</time>
      </trkpt>
      <trkpt lat="45.14163" lon="5.78427">
        <ele>454.51</ele>
        <time>2020-06-06T10:43:23.000Z</time>
      </trkpt>
      <trkpt lat="45.14171" lon="5.7845">
        <ele>455.89</ele>
        <time>2020-06-06T10:43:28.000Z</time>
      </trkpt>
      <trkpt lat="45.14181" lon="5.78475">
        <ele>456.72</ele>
        <time>2020-06-06T10:43:33.000Z</time>
      </trkpt>
      <trkpt lat="45.14189" lon="5.785">
        <ele>456.21</ele>
        <time>2020-06-06T10:43:38.000Z</time>
      </trkpt>
      <trkpt lat="45.14196" lon="5.78523">
        <ele>457.99</ele>
        <time>2020-06-06T10:43:43.000Z</time>
      </trkpt>
      <trkpt lat="45.14199" lon="5.78535">
        <ele>464.44</ele>
        <time>2020-06-06T10:43:55.000Z</time>
      </trkpt>
      <trkpt lat="45.14199" lon="5.7855">
        <ele>475.21</ele>
        <time>2020-06-06T10:49:56.000Z</time>
      </trkpt>
      <trkpt lat="45.14197" lon="5.78573">
        <ele>470.87</ele>
        <time>2020-06-06T10:50:01.000Z</time>
      </trkpt>
      <trkpt lat="45.14198" lon="5.78597">
        <ele>472.24</ele>
        <time>2020-06-06T10:50:06.000Z</time>
      </trkpt>
      <trkpt lat="45.14205" lon="5.78618">
        <ele>472.38</ele>
        <time>2020-06-06T10:50:11.000Z</time>
      </trkpt>
      <trkpt lat="45.1421" lon="5.78634">
        <ele>471.13</ele>
        <time>2020-06-06T10:50:16.000Z</time>
      </trkpt>
      <trkpt lat="45.14215" lon="5.78648">
        <ele>469.02</ele>
        <time>2020-06-06T10:50:21.000Z</time>
      </trkpt>
      <trkpt lat="45.14228" lon="5.78656">
        <ele>471.33</ele>
        <time>2020-06-06T10:50:26.000Z</time>
      </trkpt>
      <trkpt lat="45.14239" lon="5.78666">
        <ele>472.8</ele>
        <time>2020-06-06T10:50:31.000Z</time>
      </trkpt>
      <trkpt lat="45.14255" lon="5.78664">
        <ele>475.07</ele>
        <time>2020-06-06T10:50:36.000Z</time>
      </trkpt>
      <trkpt lat="45.14268" lon="5.78653">
        <ele>476.09</ele>
        <time>2020-06-06T10:50:41.000Z</time>
      </trkpt>
      <trkpt lat="45.14276" lon="5.78642">
        <ele>474.06</ele>
        <time>2020-06-06T10:50:46.000Z</time>
      </trkpt>
      <trkpt lat="45.14281" lon="5.7863">
        <ele>477</ele>
        <time>2020-06-06T10:50:51.000Z</time>
      </trkpt>
      <trkpt lat="45.14289" lon="5.78615">
        <ele>477.75</ele>
        <time>2020-06-06T10:50:56.000Z</time>
      </trkpt>
      <trkpt lat="45.14295" lon="5.78602">
        <ele>479.51</ele>
        <time>2020-06-06T10:51:01.000Z</time>
      </trkpt>
      <trkpt lat="45.14307" lon="5.78589">
        <ele>480.16</ele>
        <time>2020-06-06T10:51:06.000Z</time>
      </trkpt>
      <trkpt lat="45.14318" lon="5.78573">
        <ele>481.81</ele>
        <time>2020-06-06T10:51:11.000Z</time>
      </trkpt>
      <trkpt lat="45.14334" lon="5.78561">
        <ele>481.73</ele>
        <time>2020-06-06T10:51:16.000Z</time>
      </trkpt>
      <trkpt lat="45.14343" lon="5.78557">
        <ele>482.45</ele>
        <time>2020-06-06T10:51:26.000Z</time>
      </trkpt>
      <trkpt lat="45.14346" lon="5.78544">
        <ele>487.92</ele>
        <time>2020-06-06T10:53:43.000Z</time>
      </trkpt>
      <trkpt lat="45.14358" lon="5.78522">
        <ele>487.93</ele>
        <time>2020-06-06T10:53:48.000Z</time>
      </trkpt>
      <trkpt lat="45.14373" lon="5.78498">
        <ele>490.04</ele>
        <time>2020-06-06T10:53:53.000Z</time>
      </trkpt>
      <trkpt lat="45.14386" lon="5.78474">
        <ele>488.33</ele>
        <time>2020-06-06T10:53:58.000Z</time>
      </trkpt>
      <trkpt lat="45.14392" lon="5.78448">
        <ele>492.59</ele>
        <time>2020-06-06T10:54:03.000Z</time>
      </trkpt>
      <trkpt lat="45.14396" lon="5.78424">
        <ele>490.91</ele>
        <time>2020-06-06T10:54:08.000Z</time>
      </trkpt>
      <trkpt lat="45.14403" lon="5.78402">
        <ele>491.9</ele>
        <time>2020-06-06T10:54:13.000Z</time>
      </trkpt>
      <trkpt lat="45.14411" lon="5.78376">
        <ele>495.24</ele>
        <time>2020-06-06T10:54:18.000Z</time>
      </trkpt>
      <trkpt lat="45.14419" lon="5.78362">
        <ele>493.52</ele>
        <time>2020-06-06T10:54:23.000Z</time>
      </trkpt>
      <trkpt lat="45.14432" lon="5.78341">
        <ele>493.91</ele>
        <time>2020-06-06T10:54:28.000Z</time>
      </trkpt>
      <trkpt lat="45.14444" lon="5.78316">
        <ele>495.14</ele>
        <time>2020-06-06T10:54:33.000Z</time>
      </trkpt>
      <trkpt lat="45.14457" lon="5.78298">
        <ele>490.63</ele>
        <time>2020-06-06T10:54:38.000Z</time>
      </trkpt>
      <trkpt lat="45.14466" lon="5.78281">
        <ele>492.98</ele>
        <time>2020-06-06T10:54:43.000Z</time>
      </trkpt>
      <trkpt lat="45.14476" lon="5.78262">
        <ele>494.71</ele>
        <time>2020-06-06T10:54:48.000Z</time>
      </trkpt>
      <trkpt lat="45.14493" lon="5.78245">
        <ele>491.35</ele>
        <time>2020-06-06T10:54:53.000Z</time>
      </trkpt>
      <trkpt lat="45.145" lon="5.78218">
        <ele>488.44</ele>
        <time>2020-06-06T10:54:58.000Z</time>
      </trkpt>
      <trkpt lat="45.14512" lon="5.78195">
        <ele>492.69</ele>
        <time>2020-06-06T10:55:03.000Z</time>
      </trkpt>
      <trkpt lat="45.14526" lon="5.7818">
        <ele>494.27</ele>
        <time>2020-06-06T10:55:08.000Z</time>
      </trkpt>
      <trkpt lat="45.14541" lon="5.7817">
        <ele>495.32</ele>
        <time>2020-06-06T10:55:13.000Z</time>
      </trkpt>
      <trkpt lat="45.14554" lon="5.78152">
        <ele>498.56</ele>
        <time>2020-06-06T10:55:18.000Z</time>
      </trkpt>
      <trkpt lat="45.14566" lon="5.78133">
        <ele>502.55</ele>
        <time>2020-06-06T10:55:23.000Z</time>
      </trkpt>
      <trkpt lat="45.14577" lon="5.78113">
        <ele>507.67</ele>
        <time>2020-06-06T10:55:28.000Z</time>
      </trkpt>
      <trkpt lat="45.14588" lon="5.78093">
        <ele>513.01</ele>
        <time>2020-06-06T10:55:33.000Z</time>
      </trkpt>
      <trkpt lat="45.14598" lon="5.7807">
        <ele>515.74</ele>
        <time>2020-06-06T10:55:38.000Z</time>
      </trkpt>
      <trkpt lat="45.14609" lon="5.78048">
        <ele>515.03</ele>
        <time>2020-06-06T10:55:43.000Z</time>
      </trkpt>
      <trkpt lat="45.14619" lon="5.78033">
        <ele>511.76</ele>
        <time>2020-06-06T10:55:48.000Z</time>
      </trkpt>
      <trkpt lat="45.1463" lon="5.78019">
        <ele>511.38</ele>
        <time>2020-06-06T10:55:53.000Z</time>
      </trkpt>
      <trkpt lat="45.1464" lon="5.77998">
        <ele>518.75</ele>
        <time>2020-06-06T10:55:58.000Z</time>
      </trkpt>
      <trkpt lat="45.14651" lon="5.77979">
        <ele>520.2</ele>
        <time>2020-06-06T10:56:03.000Z</time>
      </trkpt>
      <trkpt lat="45.14661" lon="5.7796">
        <ele>522.65</ele>
        <time>2020-06-06T10:56:08.000Z</time>
      </trkpt>
      <trkpt lat="45.14671" lon="5.77942">
        <ele>523.03</ele>
        <time>2020-06-06T10:56:13.000Z</time>
      </trkpt>
      <trkpt lat="45.14683" lon="5.77925">
        <ele>525.56</ele>
        <time>2020-06-06T10:56:18.000Z</time>
      </trkpt>
      <trkpt lat="45.14697" lon="5.77909">
        <ele>528.48</ele>
        <time>2020-06-06T10:56:23.000Z</time>
      </trkpt>
      <trkpt lat="45.14711" lon="5.77892">
        <ele>529.43</ele>
        <time>2020-06-06T10:56:28.000Z</time>
      </trkpt>
      <trkpt lat="45.14725" lon="5.77873">
        <ele>536.51</ele>
        <time>2020-06-06T10:56:33.000Z</time>
      </trkpt>
      <trkpt lat="45.14738" lon="5.77862">
        <ele>535.57</ele>
        <time>2020-06-06T10:56:38.000Z</time>
      </trkpt>
      <trkpt lat="45.14751" lon="5.77851">
        <ele>539.25</ele>
        <time>2020-06-06T10:56:43.000Z</time>
      </trkpt>
      <trkpt lat="45.1476" lon="5.77841">
        <ele>540.88</ele>
        <time>2020-06-06T10:56:48.000Z</time>
      </trkpt>
      <trkpt lat="45.14765" lon="5.77829">
        <ele>543.43</ele>
        <time>2020-06-06T10:56:58.000Z</time>
      </trkpt>
      <trkpt lat="45.14773" lon="5.77821">
        <ele>540.75</ele>
        <time>2020-06-06T10:57:23.000Z</time>
      </trkpt>
      <trkpt lat="45.14789" lon="5.7781">
        <ele>538.35</ele>
        <time>2020-06-06T10:57:28.000Z</time>
      </trkpt>
      <trkpt lat="45.14803" lon="5.77793">
        <ele>535.67</ele>
        <time>2020-06-06T10:57:33.000Z</time>
      </trkpt>
      <trkpt lat="45.14815" lon="5.77782">
        <ele>534.26</ele>
        <time>2020-06-06T10:57:38.000Z</time>
      </trkpt>
      <trkpt lat="45.14829" lon="5.77765">
        <ele>534.32</ele>
        <time>2020-06-06T10:57:43.000Z</time>
      </trkpt>
      <trkpt lat="45.14841" lon="5.77751">
        <ele>534.72</ele>
        <time>2020-06-06T10:57:48.000Z</time>
      </trkpt>
      <trkpt lat="45.1485" lon="5.77733">
        <ele>532.4</ele>
        <time>2020-06-06T10:57:53.000Z</time>
      </trkpt>
      <trkpt lat="45.14858" lon="5.7771">
        <ele>537.08</ele>
        <time>2020-06-06T10:57:58.000Z</time>
      </trkpt>
      <trkpt lat="45.14865" lon="5.7769">
        <ele>539.15</ele>
        <time>2020-06-06T10:58:03.000Z</time>
      </trkpt>
      <trkpt lat="45.14875" lon="5.77676">
        <ele>541.37</ele>
        <time>2020-06-06T10:58:08.000Z</time>
      </trkpt>
      <trkpt lat="45.1489" lon="5.77674">
        <ele>541.92</ele>
        <time>2020-06-06T10:58:13.000Z</time>
      </trkpt>
      <trkpt lat="45.149" lon="5.77687">
        <ele>541.02</ele>
        <time>2020-06-06T10:58:18.000Z</time>
      </trkpt>
      <trkpt lat="45.14913" lon="5.7769">
        <ele>537.91</ele>
        <time>2020-06-06T10:58:23.000Z</time>
      </trkpt>
      <trkpt lat="45.14918" lon="5.77708">
        <ele>540.25</ele>
        <time>2020-06-06T10:58:28.000Z</time>
      </trkpt>
      <trkpt lat="45.14915" lon="5.77728">
        <ele>542.39</ele>
        <time>2020-06-06T10:58:33.000Z</time>
      </trkpt>
      <trkpt lat="45.14915" lon="5.77754">
        <ele>547.48</ele>
        <time>2020-06-06T10:58:38.000Z</time>
      </trkpt>
      <trkpt lat="45.14913" lon="5.77775">
        <ele>548.31</ele>
        <time>2020-06-06T10:58:43.000Z</time>
      </trkpt>
      <trkpt lat="45.14902" lon="5.77789">
        <ele>549.26</ele>
        <time>2020-06-06T10:58:48.000Z</time>
      </trkpt>
      <trkpt lat="45.14894" lon="5.7781">
        <ele>552.38</ele>
        <time>2020-06-06T10:58:53.000Z</time>
      </trkpt>
      <trkpt lat="45.14888" lon="5.77831">
        <ele>550.38</ele>
        <time>2020-06-06T10:58:58.000Z</time>
      </trkpt>
      <trkpt lat="45.14883" lon="5.77853">
        <ele>554.23</ele>
        <time>2020-06-06T10:59:03.000Z</time>
      </trkpt>
      <trkpt lat="45.14876" lon="5.77871">
        <ele>557.19</ele>
        <time>2020-06-06T10:59:08.000Z</time>
      </trkpt>
      <trkpt lat="45.14862" lon="5.77889">
        <ele>555.61</ele>
        <time>2020-06-06T10:59:13.000Z</time>
      </trkpt>
      <trkpt lat="45.14845" lon="5.77903">
        <ele>554.4</ele>
        <time>2020-06-06T10:59:18.000Z</time>
      </trkpt>
      <trkpt lat="45.14829" lon="5.77916">
        <ele>556.79</ele>
        <time>2020-06-06T10:59:23.000Z</time>
      </trkpt>
      <trkpt lat="45.14812" lon="5.7793">
        <ele>557.39</ele>
        <time>2020-06-06T10:59:28.000Z</time>
      </trkpt>
      <trkpt lat="45.14793" lon="5.77941">
        <ele>557.02</ele>
        <time>2020-06-06T10:59:33.000Z</time>
      </trkpt>
      <trkpt lat="45.14775" lon="5.7795">
        <ele>560.19</ele>
        <time>2020-06-06T10:59:38.000Z</time>
      </trkpt>
      <trkpt lat="45.14761" lon="5.77962">
        <ele>562.45</ele>
        <time>2020-06-06T10:59:43.000Z</time>
      </trkpt>
      <trkpt lat="45.14742" lon="5.77983">
        <ele>562.81</ele>
        <time>2020-06-06T10:59:48.000Z</time>
      </trkpt>
      <trkpt lat="45.14729" lon="5.78006">
        <ele>562.77</ele>
        <time>2020-06-06T10:59:53.000Z</time>
      </trkpt>
      <trkpt lat="45.14725" lon="5.78024">
        <ele>563.01</ele>
        <time>2020-06-06T10:59:58.000Z</time>
      </trkpt>
      <trkpt lat="45.14725" lon="5.78046">
        <ele>563.02</ele>
        <time>2020-06-06T11:00:03.000Z</time>
      </trkpt>
      <trkpt lat="45.14725" lon="5.78064">
        <ele>562.49</ele>
        <time>2020-06-06T11:00:08.000Z</time>
      </trkpt>
      <trkpt lat="45.14727" lon="5.78083">
        <ele>561.2</ele>
        <time>2020-06-06T11:00:13.000Z</time>
      </trkpt>
      <trkpt lat="45.14728" lon="5.78109">
        <ele>559.71</ele>
        <time>2020-06-06T11:00:18.000Z</time>
      </trkpt>
      <trkpt lat="45.14729" lon="5.78139">
        <ele>565.26</ele>
        <time>2020-06-06T11:00:23.000Z</time>
      </trkpt>
      <trkpt lat="45.14726" lon="5.78161">
        <ele>565.08</ele>
        <time>2020-06-06T11:00:28.000Z</time>
      </trkpt>
      <trkpt lat="45.14727" lon="5.78184">
        <ele>567.81</ele>
        <time>2020-06-06T11:00:33.000Z</time>
      </trkpt>
      <trkpt lat="45.14726" lon="5.78206">
        <ele>569.25</ele>
        <time>2020-06-06T11:00:38.000Z</time>
      </trkpt>
      <trkpt lat="45.14724" lon="5.78223">
        <ele>570.71</ele>
        <time>2020-06-06T11:00:43.000Z</time>
      </trkpt>
      <trkpt lat="45.14725" lon="5.78239">
        <ele>573.03</ele>
        <time>2020-06-06T11:00:48.000Z</time>
      </trkpt>
      <trkpt lat="45.14722" lon="5.78262">
        <ele>575.35</ele>
        <time>2020-06-06T11:00:53.000Z</time>
      </trkpt>
      <trkpt lat="45.14714" lon="5.78287">
        <ele>580.67</ele>
        <time>2020-06-06T11:00:58.000Z</time>
      </trkpt>
      <trkpt lat="45.14711" lon="5.78318">
        <ele>580.94</ele>
        <time>2020-06-06T11:01:03.000Z</time>
      </trkpt>
      <trkpt lat="45.1471" lon="5.78341">
        <ele>585.69</ele>
        <time>2020-06-06T11:01:08.000Z</time>
      </trkpt>
      <trkpt lat="45.14708" lon="5.78355">
        <ele>582.63</ele>
        <time>2020-06-06T11:01:13.000Z</time>
      </trkpt>
      <trkpt lat="45.14707" lon="5.78371">
        <ele>581.56</ele>
        <time>2020-06-06T11:01:18.000Z</time>
      </trkpt>
      <trkpt lat="45.14705" lon="5.78384">
        <ele>583.22</ele>
        <time>2020-06-06T11:01:25.000Z</time>
      </trkpt>
      <trkpt lat="45.14703" lon="5.78398">
        <ele>578.94</ele>
        <time>2020-06-06T11:01:36.000Z</time>
      </trkpt>
      <trkpt lat="45.14707" lon="5.78412">
        <ele>577.81</ele>
        <time>2020-06-06T11:01:45.000Z</time>
      </trkpt>
      <trkpt lat="45.14704" lon="5.78424">
        <ele>566.67</ele>
        <time>2020-06-06T11:01:56.000Z</time>
      </trkpt>
      <trkpt lat="45.14705" lon="5.78471">
        <ele>564.45</ele>
        <time>2020-06-06T11:02:01.000Z</time>
      </trkpt>
      <trkpt lat="45.14726" lon="5.78513">
        <ele>565.26</ele>
        <time>2020-06-06T11:02:06.000Z</time>
      </trkpt>
      <trkpt lat="45.14726" lon="5.78556">
        <ele>568.91</ele>
        <time>2020-06-06T11:02:11.000Z</time>
      </trkpt>
      <trkpt lat="45.14727" lon="5.78589">
        <ele>576.98</ele>
        <time>2020-06-06T11:02:16.000Z</time>
      </trkpt>
      <trkpt lat="45.14726" lon="5.78617">
        <ele>580.36</ele>
        <time>2020-06-06T11:02:21.000Z</time>
      </trkpt>
      <trkpt lat="45.14729" lon="5.78657">
        <ele>580.18</ele>
        <time>2020-06-06T11:02:26.000Z</time>
      </trkpt>
      <trkpt lat="45.14735" lon="5.7871">
        <ele>579.13</ele>
        <time>2020-06-06T11:02:31.000Z</time>
      </trkpt>
      <trkpt lat="45.14736" lon="5.78744">
        <ele>581.74</ele>
        <time>2020-06-06T11:02:36.000Z</time>
      </trkpt>
      <trkpt lat="45.14736" lon="5.78775">
        <ele>581.39</ele>
        <time>2020-06-06T11:02:41.000Z</time>
      </trkpt>
      <trkpt lat="45.14735" lon="5.78802">
        <ele>582.64</ele>
        <time>2020-06-06T11:02:46.000Z</time>
      </trkpt>
      <trkpt lat="45.14727" lon="5.78825">
        <ele>583.17</ele>
        <time>2020-06-06T11:02:51.000Z</time>
      </trkpt>
      <trkpt lat="45.14722" lon="5.7885">
        <ele>584.18</ele>
        <time>2020-06-06T11:02:56.000Z</time>
      </trkpt>
      <trkpt lat="45.1472" lon="5.78882">
        <ele>589.85</ele>
        <time>2020-06-06T11:03:01.000Z</time>
      </trkpt>
      <trkpt lat="45.14708" lon="5.78921">
        <ele>583.48</ele>
        <time>2020-06-06T11:03:06.000Z</time>
      </trkpt>
      <trkpt lat="45.14709" lon="5.78964">
        <ele>583.03</ele>
        <time>2020-06-06T11:03:11.000Z</time>
      </trkpt>
      <trkpt lat="45.14704" lon="5.79005">
        <ele>585.81</ele>
        <time>2020-06-06T11:03:16.000Z</time>
      </trkpt>
      <trkpt lat="45.14702" lon="5.79043">
        <ele>582.61</ele>
        <time>2020-06-06T11:03:21.000Z</time>
      </trkpt>
      <trkpt lat="45.14701" lon="5.79062">
        <ele>582.16</ele>
        <time>2020-06-06T11:03:26.000Z</time>
      </trkpt>
      <trkpt lat="45.147" lon="5.79081">
        <ele>579.76</ele>
        <time>2020-06-06T11:03:31.000Z</time>
      </trkpt>
      <trkpt lat="45.14698" lon="5.79093">
        <ele>577.73</ele>
        <time>2020-06-06T11:03:42.000Z</time>
      </trkpt>
      <trkpt lat="45.14694" lon="5.7908">
        <ele>575.53</ele>
        <time>2020-06-06T11:05:50.000Z</time>
      </trkpt>
      <trkpt lat="45.14683" lon="5.79077">
        <ele>579.21</ele>
        <time>2020-06-06T11:05:55.000Z</time>
      </trkpt>
      <trkpt lat="45.14665" lon="5.79089">
        <ele>580.86</ele>
        <time>2020-06-06T11:06:00.000Z</time>
      </trkpt>
      <trkpt lat="45.14653" lon="5.79116">
        <ele>577.43</ele>
        <time>2020-06-06T11:06:05.000Z</time>
      </trkpt>
      <trkpt lat="45.14635" lon="5.79144">
        <ele>572.83</ele>
        <time>2020-06-06T11:06:10.000Z</time>
      </trkpt>
      <trkpt lat="45.14615" lon="5.7918">
        <ele>573.56</ele>
        <time>2020-06-06T11:06:15.000Z</time>
      </trkpt>
      <trkpt lat="45.14592" lon="5.79214">
        <ele>574.78</ele>
        <time>2020-06-06T11:06:20.000Z</time>
      </trkpt>
      <trkpt lat="45.14571" lon="5.79244">
        <ele>574.43</ele>
        <time>2020-06-06T11:06:25.000Z</time>
      </trkpt>
      <trkpt lat="45.14555" lon="5.79248">
        <ele>571.39</ele>
        <time>2020-06-06T11:06:30.000Z</time>
      </trkpt>
      <trkpt lat="45.14532" lon="5.7925">
        <ele>566.36</ele>
        <time>2020-06-06T11:06:35.000Z</time>
      </trkpt>
      <trkpt lat="45.14501" lon="5.7927">
        <ele>563.36</ele>
        <time>2020-06-06T11:06:40.000Z</time>
      </trkpt>
      <trkpt lat="45.14465" lon="5.79291">
        <ele>560.98</ele>
        <time>2020-06-06T11:06:45.000Z</time>
      </trkpt>
      <trkpt lat="45.14432" lon="5.79291">
        <ele>558.27</ele>
        <time>2020-06-06T11:06:50.000Z</time>
      </trkpt>
      <trkpt lat="45.14421" lon="5.79272">
        <ele>556.99</ele>
        <time>2020-06-06T11:06:55.000Z</time>
      </trkpt>
      <trkpt lat="45.14452" lon="5.79239">
        <ele>551.39</ele>
        <time>2020-06-06T11:07:00.000Z</time>
      </trkpt>
      <trkpt lat="45.14476" lon="5.79201">
        <ele>549.93</ele>
        <time>2020-06-06T11:07:05.000Z</time>
      </trkpt>
      <trkpt lat="45.14457" lon="5.79175">
        <ele>545.32</ele>
        <time>2020-06-06T11:07:10.000Z</time>
      </trkpt>
      <trkpt lat="45.14423" lon="5.79184">
        <ele>541.27</ele>
        <time>2020-06-06T11:07:15.000Z</time>
      </trkpt>
      <trkpt lat="45.14377" lon="5.79205">
        <ele>541.21</ele>
        <time>2020-06-06T11:07:20.000Z</time>
      </trkpt>
      <trkpt lat="45.14317" lon="5.79226">
        <ele>534.79</ele>
        <time>2020-06-06T11:07:25.000Z</time>
      </trkpt>
      <trkpt lat="45.14266" lon="5.79244">
        <ele>535.07</ele>
        <time>2020-06-06T11:07:30.000Z</time>
      </trkpt>
      <trkpt lat="45.14212" lon="5.79237">
        <ele>527.4</ele>
        <time>2020-06-06T11:07:35.000Z</time>
      </trkpt>
      <trkpt lat="45.1418" lon="5.79205">
        <ele>525.52</ele>
        <time>2020-06-06T11:07:40.000Z</time>
      </trkpt>
      <trkpt lat="45.14145" lon="5.79161">
        <ele>523.9</ele>
        <time>2020-06-06T11:07:45.000Z</time>
      </trkpt>
      <trkpt lat="45.14112" lon="5.7916">
        <ele>519.39</ele>
        <time>2020-06-06T11:07:50.000Z</time>
      </trkpt>
      <trkpt lat="45.14078" lon="5.7917">
        <ele>518.75</ele>
        <time>2020-06-06T11:07:55.000Z</time>
      </trkpt>
      <trkpt lat="45.14044" lon="5.79192">
        <ele>517.64</ele>
        <time>2020-06-06T11:08:00.000Z</time>
      </trkpt>
      <trkpt lat="45.14015" lon="5.79212">
        <ele>513.87</ele>
        <time>2020-06-06T11:08:05.000Z</time>
      </trkpt>
      <trkpt lat="45.13992" lon="5.79238">
        <ele>512.33</ele>
        <time>2020-06-06T11:08:10.000Z</time>
      </trkpt>
      <trkpt lat="45.13969" lon="5.79253">
        <ele>509.91</ele>
        <time>2020-06-06T11:08:15.000Z</time>
      </trkpt>
      <trkpt lat="45.13944" lon="5.79257">
        <ele>508.71</ele>
        <time>2020-06-06T11:08:20.000Z</time>
      </trkpt>
      <trkpt lat="45.1393" lon="5.79274">
        <ele>510</ele>
        <time>2020-06-06T11:08:25.000Z</time>
      </trkpt>
      <trkpt lat="45.13927" lon="5.79285">
        <ele>511.16</ele>
        <time>2020-06-06T11:08:36.000Z</time>
      </trkpt>
      <trkpt lat="45.13917" lon="5.79291">
        <ele>510.48</ele>
        <time>2020-06-06T11:08:48.000Z</time>
      </trkpt>
      <trkpt lat="45.13902" lon="5.79305">
        <ele>508.69</ele>
        <time>2020-06-06T11:08:53.000Z</time>
      </trkpt>
      <trkpt lat="45.13885" lon="5.7932">
        <ele>504.35</ele>
        <time>2020-06-06T11:08:58.000Z</time>
      </trkpt>
      <trkpt lat="45.13867" lon="5.79335">
        <ele>506.32</ele>
        <time>2020-06-06T11:09:03.000Z</time>
      </trkpt>
      <trkpt lat="45.13854" lon="5.79354">
        <ele>505.91</ele>
        <time>2020-06-06T11:09:08.000Z</time>
      </trkpt>
      <trkpt lat="45.13842" lon="5.79377">
        <ele>506.95</ele>
        <time>2020-06-06T11:09:13.000Z</time>
      </trkpt>
      <trkpt lat="45.13827" lon="5.79406">
        <ele>507.56</ele>
        <time>2020-06-06T11:09:18.000Z</time>
      </trkpt>
      <trkpt lat="45.13813" lon="5.79428">
        <ele>505.27</ele>
        <time>2020-06-06T11:09:23.000Z</time>
      </trkpt>
      <trkpt lat="45.13795" lon="5.79447">
        <ele>507.64</ele>
        <time>2020-06-06T11:09:28.000Z</time>
      </trkpt>
      <trkpt lat="45.13775" lon="5.7946">
        <ele>507.39</ele>
        <time>2020-06-06T11:09:33.000Z</time>
      </trkpt>
      <trkpt lat="45.13759" lon="5.79474">
        <ele>508.34</ele>
        <time>2020-06-06T11:09:38.000Z</time>
      </trkpt>
      <trkpt lat="45.13744" lon="5.7949">
        <ele>503.42</ele>
        <time>2020-06-06T11:09:43.000Z</time>
      </trkpt>
      <trkpt lat="45.13728" lon="5.795">
        <ele>507.47</ele>
        <time>2020-06-06T11:09:48.000Z</time>
      </trkpt>
      <trkpt lat="45.13709" lon="5.79509">
        <ele>505.56</ele>
        <time>2020-06-06T11:09:53.000Z</time>
      </trkpt>
      <trkpt lat="45.13702" lon="5.79523">
        <ele>502.71</ele>
        <time>2020-06-06T11:09:58.000Z</time>
      </trkpt>
      <trkpt lat="45.13705" lon="5.79543">
        <ele>502.03</ele>
        <time>2020-06-06T11:10:03.000Z</time>
      </trkpt>
      <trkpt lat="45.13707" lon="5.79563">
        <ele>498.49</ele>
        <time>2020-06-06T11:10:08.000Z</time>
      </trkpt>
      <trkpt lat="45.13715" lon="5.79572">
        <ele>498.36</ele>
        <time>2020-06-06T11:10:13.000Z</time>
      </trkpt>
      <trkpt lat="45.13722" lon="5.79587">
        <ele>497.64</ele>
        <time>2020-06-06T11:10:18.000Z</time>
      </trkpt>
      <trkpt lat="45.13733" lon="5.79607">
        <ele>499.89</ele>
        <time>2020-06-06T11:10:23.000Z</time>
      </trkpt>
      <trkpt lat="45.13746" lon="5.79624">
        <ele>505.3</ele>
        <time>2020-06-06T11:10:28.000Z</time>
      </trkpt>
      <trkpt lat="45.13759" lon="5.79637">
        <ele>503.99</ele>
        <time>2020-06-06T11:10:33.000Z</time>
      </trkpt>
      <trkpt lat="45.13772" lon="5.79647">
        <ele>505.6</ele>
        <time>2020-06-06T11:10:38.000Z</time>
      </trkpt>
      <trkpt lat="45.13789" lon="5.79654">
        <ele>509</ele>
        <time>2020-06-06T11:10:43.000Z</time>
      </trkpt>
      <trkpt lat="45.13801" lon="5.79658">
        <ele>514.09</ele>
        <time>2020-06-06T11:10:48.000Z</time>
      </trkpt>
      <trkpt lat="45.13815" lon="5.79665">
        <ele>515.72</ele>
        <time>2020-06-06T11:10:53.000Z</time>
      </trkpt>
      <trkpt lat="45.13831" lon="5.7966">
        <ele>518.28</ele>
        <time>2020-06-06T11:10:58.000Z</time>
      </trkpt>
      <trkpt lat="45.13841" lon="5.79647">
        <ele>520.08</ele>
        <time>2020-06-06T11:11:03.000Z</time>
      </trkpt>
      <trkpt lat="45.13851" lon="5.79644">
        <ele>522.45</ele>
        <time>2020-06-06T11:11:10.000Z</time>
      </trkpt>
      <trkpt lat="45.13864" lon="5.79643">
        <ele>523</ele>
        <time>2020-06-06T11:11:15.000Z</time>
      </trkpt>
      <trkpt lat="45.1388" lon="5.79648">
        <ele>523.82</ele>
        <time>2020-06-06T11:11:20.000Z</time>
      </trkpt>
      <trkpt lat="45.13895" lon="5.79657">
        <ele>521.94</ele>
        <time>2020-06-06T11:11:25.000Z</time>
      </trkpt>
      <trkpt lat="45.13909" lon="5.79675">
        <ele>525.36</ele>
        <time>2020-06-06T11:11:30.000Z</time>
      </trkpt>
      <trkpt lat="45.13922" lon="5.79693">
        <ele>528.66</ele>
        <time>2020-06-06T11:11:35.000Z</time>
      </trkpt>
      <trkpt lat="45.13919" lon="5.79717">
        <ele>528.44</ele>
        <time>2020-06-06T11:11:40.000Z</time>
      </trkpt>
      <trkpt lat="45.13921" lon="5.79742">
        <ele>528.26</ele>
        <time>2020-06-06T11:11:45.000Z</time>
      </trkpt>
      <trkpt lat="45.13937" lon="5.79758">
        <ele>528.39</ele>
        <time>2020-06-06T11:11:50.000Z</time>
      </trkpt>
      <trkpt lat="45.13955" lon="5.79769">
        <ele>530.13</ele>
        <time>2020-06-06T11:11:55.000Z</time>
      </trkpt>
      <trkpt lat="45.1397" lon="5.7978">
        <ele>527.02</ele>
        <time>2020-06-06T11:12:00.000Z</time>
      </trkpt>
      <trkpt lat="45.1398" lon="5.79791">
        <ele>527.56</ele>
        <time>2020-06-06T11:12:05.000Z</time>
      </trkpt>
      <trkpt lat="45.13987" lon="5.79802">
        <ele>525.59</ele>
        <time>2020-06-06T11:12:10.000Z</time>
      </trkpt>
      <trkpt lat="45.13989" lon="5.79816">
        <ele>522.76</ele>
        <time>2020-06-06T11:12:15.000Z</time>
      </trkpt>
      <trkpt lat="45.13999" lon="5.79834">
        <ele>522.9</ele>
        <time>2020-06-06T11:12:20.000Z</time>
      </trkpt>
      <trkpt lat="45.14003" lon="5.79855">
        <ele>522.83</ele>
        <time>2020-06-06T11:12:25.000Z</time>
      </trkpt>
      <trkpt lat="45.14015" lon="5.79867">
        <ele>519.75</ele>
        <time>2020-06-06T11:12:30.000Z</time>
      </trkpt>
      <trkpt lat="45.14034" lon="5.7987">
        <ele>522.48</ele>
        <time>2020-06-06T11:12:35.000Z</time>
      </trkpt>
      <trkpt lat="45.14049" lon="5.79878">
        <ele>522.56</ele>
        <time>2020-06-06T11:12:40.000Z</time>
      </trkpt>
      <trkpt lat="45.14065" lon="5.79886">
        <ele>525.01</ele>
        <time>2020-06-06T11:12:45.000Z</time>
      </trkpt>
      <trkpt lat="45.14079" lon="5.79902">
        <ele>528.3</ele>
        <time>2020-06-06T11:12:50.000Z</time>
      </trkpt>
      <trkpt lat="45.14091" lon="5.7992">
        <ele>529.39</ele>
        <time>2020-06-06T11:12:55.000Z</time>
      </trkpt>
      <trkpt lat="45.14105" lon="5.79921">
        <ele>532.7</ele>
        <time>2020-06-06T11:13:00.000Z</time>
      </trkpt>
      <trkpt lat="45.1412" lon="5.79933">
        <ele>534.6</ele>
        <time>2020-06-06T11:13:05.000Z</time>
      </trkpt>
      <trkpt lat="45.14129" lon="5.79952">
        <ele>537.1</ele>
        <time>2020-06-06T11:13:10.000Z</time>
      </trkpt>
      <trkpt lat="45.14138" lon="5.79972">
        <ele>539.96</ele>
        <time>2020-06-06T11:13:15.000Z</time>
      </trkpt>
      <trkpt lat="45.14149" lon="5.79995">
        <ele>543.9</ele>
        <time>2020-06-06T11:13:20.000Z</time>
      </trkpt>
      <trkpt lat="45.14161" lon="5.80015">
        <ele>545.3</ele>
        <time>2020-06-06T11:13:25.000Z</time>
      </trkpt>
      <trkpt lat="45.14169" lon="5.80034">
        <ele>545.88</ele>
        <time>2020-06-06T11:13:30.000Z</time>
      </trkpt>
      <trkpt lat="45.14183" lon="5.80057">
        <ele>545.72</ele>
        <time>2020-06-06T11:13:35.000Z</time>
      </trkpt>
      <trkpt lat="45.14196" lon="5.80079">
        <ele>549.99</ele>
        <time>2020-06-06T11:13:40.000Z</time>
      </trkpt>
      <trkpt lat="45.14205" lon="5.80096">
        <ele>554.09</ele>
        <time>2020-06-06T11:13:45.000Z</time>
      </trkpt>
      <trkpt lat="45.14216" lon="5.80115">
        <ele>555.91</ele>
        <time>2020-06-06T11:13:50.000Z</time>
      </trkpt>
      <trkpt lat="45.14226" lon="5.80138">
        <ele>556.11</ele>
        <time>2020-06-06T11:13:55.000Z</time>
      </trkpt>
      <trkpt lat="45.14232" lon="5.80166">
        <ele>556.69</ele>
        <time>2020-06-06T11:14:00.000Z</time>
      </trkpt>
      <trkpt lat="45.14237" lon="5.80192">
        <ele>556.98</ele>
        <time>2020-06-06T11:14:05.000Z</time>
      </trkpt>
      <trkpt lat="45.14241" lon="5.80217">
        <ele>556.8</ele>
        <time>2020-06-06T11:14:10.000Z</time>
      </trkpt>
      <trkpt lat="45.14246" lon="5.8024">
        <ele>558</ele>
        <time>2020-06-06T11:14:15.000Z</time>
      </trkpt>
      <trkpt lat="45.14251" lon="5.80267">
        <ele>559.48</ele>
        <time>2020-06-06T11:14:20.000Z</time>
      </trkpt>
      <trkpt lat="45.14255" lon="5.80296">
        <ele>563.67</ele>
        <time>2020-06-06T11:14:25.000Z</time>
      </trkpt>
      <trkpt lat="45.14257" lon="5.80319">
        <ele>561.34</ele>
        <time>2020-06-06T11:14:30.000Z</time>
      </trkpt>
      <trkpt lat="45.14264" lon="5.80342">
        <ele>560.37</ele>
        <time>2020-06-06T11:14:35.000Z</time>
      </trkpt>
      <trkpt lat="45.14274" lon="5.80357">
        <ele>563.22</ele>
        <time>2020-06-06T11:14:40.000Z</time>
      </trkpt>
      <trkpt lat="45.14288" lon="5.80378">
        <ele>566</ele>
        <time>2020-06-06T11:14:45.000Z</time>
      </trkpt>
      <trkpt lat="45.14299" lon="5.80392">
        <ele>565.87</ele>
        <time>2020-06-06T11:14:50.000Z</time>
      </trkpt>
      <trkpt lat="45.1431" lon="5.80408">
        <ele>566.21</ele>
        <time>2020-06-06T11:14:55.000Z</time>
      </trkpt>
      <trkpt lat="45.14324" lon="5.80428">
        <ele>567.51</ele>
        <time>2020-06-06T11:15:00.000Z</time>
      </trkpt>
      <trkpt lat="45.14335" lon="5.80454">
        <ele>573.74</ele>
        <time>2020-06-06T11:15:05.000Z</time>
      </trkpt>
      <trkpt lat="45.14365" lon="5.80473">
        <ele>576.6</ele>
        <time>2020-06-06T11:15:10.000Z</time>
      </trkpt>
      <trkpt lat="45.14371" lon="5.80495">
        <ele>578.26</ele>
        <time>2020-06-06T11:15:15.000Z</time>
      </trkpt>
      <trkpt lat="45.14378" lon="5.80511">
        <ele>578.31</ele>
        <time>2020-06-06T11:15:20.000Z</time>
      </trkpt>
      <trkpt lat="45.14398" lon="5.80534">
        <ele>579.43</ele>
        <time>2020-06-06T11:15:25.000Z</time>
      </trkpt>
      <trkpt lat="45.14415" lon="5.80556">
        <ele>583.15</ele>
        <time>2020-06-06T11:15:30.000Z</time>
      </trkpt>
      <trkpt lat="45.14427" lon="5.80575">
        <ele>585.53</ele>
        <time>2020-06-06T11:15:35.000Z</time>
      </trkpt>
      <trkpt lat="45.14439" lon="5.80595">
        <ele>582.19</ele>
        <time>2020-06-06T11:15:40.000Z</time>
      </trkpt>
      <trkpt lat="45.14454" lon="5.80618">
        <ele>587.15</ele>
        <time>2020-06-06T11:15:45.000Z</time>
      </trkpt>
      <trkpt lat="45.14467" lon="5.80646">
        <ele>584.5</ele>
        <time>2020-06-06T11:15:50.000Z</time>
      </trkpt>
      <trkpt lat="45.14478" lon="5.80674">
        <ele>586.17</ele>
        <time>2020-06-06T11:15:55.000Z</time>
      </trkpt>
      <trkpt lat="45.14494" lon="5.80701">
        <ele>585.25</ele>
        <time>2020-06-06T11:16:00.000Z</time>
      </trkpt>
      <trkpt lat="45.14505" lon="5.8073">
        <ele>585.13</ele>
        <time>2020-06-06T11:16:05.000Z</time>
      </trkpt>
      <trkpt lat="45.14512" lon="5.80758">
        <ele>584.89</ele>
        <time>2020-06-06T11:16:10.000Z</time>
      </trkpt>
      <trkpt lat="45.1452" lon="5.80782">
        <ele>583.77</ele>
        <time>2020-06-06T11:16:15.000Z</time>
      </trkpt>
      <trkpt lat="45.14535" lon="5.80809">
        <ele>587.59</ele>
        <time>2020-06-06T11:16:20.000Z</time>
      </trkpt>
      <trkpt lat="45.14548" lon="5.80834">
        <ele>585.82</ele>
        <time>2020-06-06T11:16:25.000Z</time>
      </trkpt>
      <trkpt lat="45.14561" lon="5.80865">
        <ele>588.87</ele>
        <time>2020-06-06T11:16:30.000Z</time>
      </trkpt>
      <trkpt lat="45.14577" lon="5.80889">
        <ele>592.58</ele>
        <time>2020-06-06T11:16:35.000Z</time>
      </trkpt>
      <trkpt lat="45.14597" lon="5.80913">
        <ele>590.91</ele>
        <time>2020-06-06T11:16:40.000Z</time>
      </trkpt>
      <trkpt lat="45.14613" lon="5.8094">
        <ele>590.71</ele>
        <time>2020-06-06T11:16:45.000Z</time>
      </trkpt>
      <trkpt lat="45.14631" lon="5.8097">
        <ele>592.43</ele>
        <time>2020-06-06T11:16:50.000Z</time>
      </trkpt>
      <trkpt lat="45.14643" lon="5.80996">
        <ele>593.02</ele>
        <time>2020-06-06T11:16:55.000Z</time>
      </trkpt>
      <trkpt lat="45.14661" lon="5.81027">
        <ele>595.79</ele>
        <time>2020-06-06T11:17:00.000Z</time>
      </trkpt>
      <trkpt lat="45.14675" lon="5.81051">
        <ele>596.94</ele>
        <time>2020-06-06T11:17:05.000Z</time>
      </trkpt>
      <trkpt lat="45.14686" lon="5.81062">
        <ele>596.35</ele>
        <time>2020-06-06T11:17:10.000Z</time>
      </trkpt>
      <trkpt lat="45.14676" lon="5.81068">
        <ele>603.42</ele>
        <time>2020-06-06T11:17:20.000Z</time>
      </trkpt>
      <trkpt lat="45.14685" lon="5.81057">
        <ele>605.2</ele>
        <time>2020-06-06T11:18:14.000Z</time>
      </trkpt>
      <trkpt lat="45.147" lon="5.81064">
        <ele>606.98</ele>
        <time>2020-06-06T11:18:19.000Z</time>
      </trkpt>
      <trkpt lat="45.14713" lon="5.81085">
        <ele>604.3</ele>
        <time>2020-06-06T11:18:24.000Z</time>
      </trkpt>
      <trkpt lat="45.14732" lon="5.81104">
        <ele>603.97</ele>
        <time>2020-06-06T11:18:29.000Z</time>
      </trkpt>
      <trkpt lat="45.14752" lon="5.81142">
        <ele>597.48</ele>
        <time>2020-06-06T11:18:34.000Z</time>
      </trkpt>
      <trkpt lat="45.14772" lon="5.81176">
        <ele>600.99</ele>
        <time>2020-06-06T11:18:39.000Z</time>
      </trkpt>
      <trkpt lat="45.148" lon="5.81211">
        <ele>597.98</ele>
        <time>2020-06-06T11:18:44.000Z</time>
      </trkpt>
      <trkpt lat="45.14827" lon="5.81248">
        <ele>596.8</ele>
        <time>2020-06-06T11:18:49.000Z</time>
      </trkpt>
      <trkpt lat="45.14851" lon="5.81291">
        <ele>595.41</ele>
        <time>2020-06-06T11:18:54.000Z</time>
      </trkpt>
      <trkpt lat="45.14877" lon="5.81339">
        <ele>593.87</ele>
        <time>2020-06-06T11:18:59.000Z</time>
      </trkpt>
      <trkpt lat="45.14883" lon="5.81408">
        <ele>592.25</ele>
        <time>2020-06-06T11:19:04.000Z</time>
      </trkpt>
      <trkpt lat="45.14894" lon="5.81473">
        <ele>587.7</ele>
        <time>2020-06-06T11:19:09.000Z</time>
      </trkpt>
      <trkpt lat="45.14932" lon="5.81532">
        <ele>587.43</ele>
        <time>2020-06-06T11:19:14.000Z</time>
      </trkpt>
      <trkpt lat="45.1494" lon="5.81599">
        <ele>585.8</ele>
        <time>2020-06-06T11:19:19.000Z</time>
      </trkpt>
      <trkpt lat="45.14943" lon="5.81651">
        <ele>588.87</ele>
        <time>2020-06-06T11:19:24.000Z</time>
      </trkpt>
      <trkpt lat="45.14948" lon="5.8168">
        <ele>588.77</ele>
        <time>2020-06-06T11:19:29.000Z</time>
      </trkpt>
      <trkpt lat="45.14949" lon="5.81696">
        <ele>585.51</ele>
        <time>2020-06-06T11:19:34.000Z</time>
      </trkpt>
      <trkpt lat="45.14957" lon="5.8169">
        <ele>583.92</ele>
        <time>2020-06-06T11:19:39.000Z</time>
      </trkpt>
      <trkpt lat="45.14976" lon="5.81673">
        <ele>578.92</ele>
        <time>2020-06-06T11:19:44.000Z</time>
      </trkpt>
      <trkpt lat="45.15005" lon="5.81688">
        <ele>575.97</ele>
        <time>2020-06-06T11:19:49.000Z</time>
      </trkpt>
      <trkpt lat="45.15011" lon="5.81716">
        <ele>576.71</ele>
        <time>2020-06-06T11:19:54.000Z</time>
      </trkpt>
      <trkpt lat="45.14996" lon="5.81741">
        <ele>578.68</ele>
        <time>2020-06-06T11:19:59.000Z</time>
      </trkpt>
      <trkpt lat="45.14968" lon="5.81759">
        <ele>576.54</ele>
        <time>2020-06-06T11:20:04.000Z</time>
      </trkpt>
      <trkpt lat="45.14942" lon="5.81774">
        <ele>573.63</ele>
        <time>2020-06-06T11:20:09.000Z</time>
      </trkpt>
      <trkpt lat="45.14911" lon="5.81777">
        <ele>572.21</ele>
        <time>2020-06-06T11:20:14.000Z</time>
      </trkpt>
      <trkpt lat="45.14874" lon="5.81765">
        <ele>571.1</ele>
        <time>2020-06-06T11:20:19.000Z</time>
      </trkpt>
      <trkpt lat="45.1483" lon="5.81748">
        <ele>572.39</ele>
        <time>2020-06-06T11:20:24.000Z</time>
      </trkpt>
      <trkpt lat="45.14789" lon="5.81758">
        <ele>575.02</ele>
        <time>2020-06-06T11:20:29.000Z</time>
      </trkpt>
      <trkpt lat="45.14753" lon="5.81805">
        <ele>576.19</ele>
        <time>2020-06-06T11:20:34.000Z</time>
      </trkpt>
      <trkpt lat="45.14731" lon="5.8185">
        <ele>572.75</ele>
        <time>2020-06-06T11:20:39.000Z</time>
      </trkpt>
      <trkpt lat="45.14718" lon="5.81876">
        <ele>567.65</ele>
        <time>2020-06-06T11:20:44.000Z</time>
      </trkpt>
      <trkpt lat="45.14724" lon="5.81902">
        <ele>565.07</ele>
        <time>2020-06-06T11:20:49.000Z</time>
      </trkpt>
      <trkpt lat="45.14752" lon="5.8192">
        <ele>559.52</ele>
        <time>2020-06-06T11:20:54.000Z</time>
      </trkpt>
      <trkpt lat="45.14781" lon="5.81937">
        <ele>554.34</ele>
        <time>2020-06-06T11:20:59.000Z</time>
      </trkpt>
      <trkpt lat="45.14768" lon="5.81951">
        <ele>553.64</ele>
        <time>2020-06-06T11:21:04.000Z</time>
      </trkpt>
      <trkpt lat="45.1475" lon="5.81961">
        <ele>551.28</ele>
        <time>2020-06-06T11:21:09.000Z</time>
      </trkpt>
      <trkpt lat="45.1473" lon="5.81975">
        <ele>547.96</ele>
        <time>2020-06-06T11:21:14.000Z</time>
      </trkpt>
      <trkpt lat="45.14702" lon="5.82021">
        <ele>545.11</ele>
        <time>2020-06-06T11:21:19.000Z</time>
      </trkpt>
      <trkpt lat="45.14679" lon="5.82066">
        <ele>541.94</ele>
        <time>2020-06-06T11:21:24.000Z</time>
      </trkpt>
      <trkpt lat="45.14658" lon="5.82145">
        <ele>540.94</ele>
        <time>2020-06-06T11:21:29.000Z</time>
      </trkpt>
      <trkpt lat="45.14638" lon="5.82222">
        <ele>535.81</ele>
        <time>2020-06-06T11:21:34.000Z</time>
      </trkpt>
      <trkpt lat="45.14624" lon="5.82296">
        <ele>530.37</ele>
        <time>2020-06-06T11:21:39.000Z</time>
      </trkpt>
      <trkpt lat="45.14594" lon="5.82325">
        <ele>526.8</ele>
        <time>2020-06-06T11:21:44.000Z</time>
      </trkpt>
      <trkpt lat="45.14578" lon="5.82359">
        <ele>526.13</ele>
        <time>2020-06-06T11:21:49.000Z</time>
      </trkpt>
      <trkpt lat="45.14592" lon="5.82387">
        <ele>522.04</ele>
        <time>2020-06-06T11:21:54.000Z</time>
      </trkpt>
      <trkpt lat="45.14608" lon="5.82423">
        <ele>522.17</ele>
        <time>2020-06-06T11:21:59.000Z</time>
      </trkpt>
      <trkpt lat="45.14612" lon="5.82466">
        <ele>518.9</ele>
        <time>2020-06-06T11:22:04.000Z</time>
      </trkpt>
      <trkpt lat="45.14603" lon="5.825">
        <ele>519.21</ele>
        <time>2020-06-06T11:22:09.000Z</time>
      </trkpt>
      <trkpt lat="45.14588" lon="5.82533">
        <ele>517.84</ele>
        <time>2020-06-06T11:22:14.000Z</time>
      </trkpt>
      <trkpt lat="45.14568" lon="5.82573">
        <ele>515.96</ele>
        <time>2020-06-06T11:22:19.000Z</time>
      </trkpt>
      <trkpt lat="45.14534" lon="5.8262">
        <ele>508.01</ele>
        <time>2020-06-06T11:22:24.000Z</time>
      </trkpt>
      <trkpt lat="45.14496" lon="5.82647">
        <ele>505.88</ele>
        <time>2020-06-06T11:22:29.000Z</time>
      </trkpt>
      <trkpt lat="45.14462" lon="5.827">
        <ele>505.37</ele>
        <time>2020-06-06T11:22:34.000Z</time>
      </trkpt>
      <trkpt lat="45.14412" lon="5.82736">
        <ele>497.93</ele>
        <time>2020-06-06T11:22:39.000Z</time>
      </trkpt>
      <trkpt lat="45.14363" lon="5.82761">
        <ele>493.37</ele>
        <time>2020-06-06T11:22:44.000Z</time>
      </trkpt>
      <trkpt lat="45.14313" lon="5.82794">
        <ele>484.43</ele>
        <time>2020-06-06T11:22:49.000Z</time>
      </trkpt>
      <trkpt lat="45.14258" lon="5.82806">
        <ele>476.33</ele>
        <time>2020-06-06T11:22:54.000Z</time>
      </trkpt>
      <trkpt lat="45.14201" lon="5.82781">
        <ele>471.06</ele>
        <time>2020-06-06T11:22:59.000Z</time>
      </trkpt>
      <trkpt lat="45.14155" lon="5.82756">
        <ele>468.77</ele>
        <time>2020-06-06T11:23:04.000Z</time>
      </trkpt>
      <trkpt lat="45.14119" lon="5.82736">
        <ele>464.82</ele>
        <time>2020-06-06T11:23:09.000Z</time>
      </trkpt>
      <trkpt lat="45.14104" lon="5.82744">
        <ele>457.69</ele>
        <time>2020-06-06T11:23:14.000Z</time>
      </trkpt>
      <trkpt lat="45.14129" lon="5.8277">
        <ele>452.79</ele>
        <time>2020-06-06T11:23:19.000Z</time>
      </trkpt>
      <trkpt lat="45.14116" lon="5.82783">
        <ele>450.32</ele>
        <time>2020-06-06T11:23:24.000Z</time>
      </trkpt>
      <trkpt lat="45.14098" lon="5.82753">
        <ele>447.31</ele>
        <time>2020-06-06T11:23:29.000Z</time>
      </trkpt>
      <trkpt lat="45.14079" lon="5.827">
        <ele>436.82</ele>
        <time>2020-06-06T11:23:34.000Z</time>
      </trkpt>
      <trkpt lat="45.14044" lon="5.82659">
        <ele>435.53</ele>
        <time>2020-06-06T11:23:39.000Z</time>
      </trkpt>
      <trkpt lat="45.14004" lon="5.82669">
        <ele>432.35</ele>
        <time>2020-06-06T11:23:44.000Z</time>
      </trkpt>
      <trkpt lat="45.13981" lon="5.82709">
        <ele>427.55</ele>
        <time>2020-06-06T11:23:49.000Z</time>
      </trkpt>
      <trkpt lat="45.13966" lon="5.8274">
        <ele>426.9</ele>
        <time>2020-06-06T11:23:54.000Z</time>
      </trkpt>
      <trkpt lat="45.13961" lon="5.82751">
        <ele>420.69</ele>
        <time>2020-06-06T11:24:04.000Z</time>
      </trkpt>
      <trkpt lat="45.13951" lon="5.82744">
        <ele>411.18</ele>
        <time>2020-06-06T11:24:57.000Z</time>
      </trkpt>
      <trkpt lat="45.13935" lon="5.82726">
        <ele>403.8</ele>
        <time>2020-06-06T11:25:02.000Z</time>
      </trkpt>
      <trkpt lat="45.13919" lon="5.82709">
        <ele>402.32</ele>
        <time>2020-06-06T11:25:07.000Z</time>
      </trkpt>
      <trkpt lat="45.13898" lon="5.82692">
        <ele>400.35</ele>
        <time>2020-06-06T11:25:12.000Z</time>
      </trkpt>
      <trkpt lat="45.13882" lon="5.82675">
        <ele>404.38</ele>
        <time>2020-06-06T11:25:17.000Z</time>
      </trkpt>
      <trkpt lat="45.13865" lon="5.82659">
        <ele>406.89</ele>
        <time>2020-06-06T11:25:22.000Z</time>
      </trkpt>
      <trkpt lat="45.13847" lon="5.82643">
        <ele>406.3</ele>
        <time>2020-06-06T11:25:27.000Z</time>
      </trkpt>
      <trkpt lat="45.13829" lon="5.82626">
        <ele>406.41</ele>
        <time>2020-06-06T11:25:32.000Z</time>
      </trkpt>
      <trkpt lat="45.13811" lon="5.82615">
        <ele>405.53</ele>
        <time>2020-06-06T11:25:37.000Z</time>
      </trkpt>
      <trkpt lat="45.13792" lon="5.826">
        <ele>400.08</ele>
        <time>2020-06-06T11:25:42.000Z</time>
      </trkpt>
      <trkpt lat="45.13773" lon="5.82577">
        <ele>399.83</ele>
        <time>2020-06-06T11:25:47.000Z</time>
      </trkpt>
      <trkpt lat="45.13751" lon="5.82553">
        <ele>398.42</ele>
        <time>2020-06-06T11:25:52.000Z</time>
      </trkpt>
      <trkpt lat="45.13724" lon="5.82534">
        <ele>400.54</ele>
        <time>2020-06-06T11:25:57.000Z</time>
      </trkpt>
      <trkpt lat="45.13701" lon="5.82504">
        <ele>399.67</ele>
        <time>2020-06-06T11:26:02.000Z</time>
      </trkpt>
      <trkpt lat="45.13675" lon="5.82487">
        <ele>404.2</ele>
        <time>2020-06-06T11:26:07.000Z</time>
      </trkpt>
      <trkpt lat="45.1366" lon="5.82464">
        <ele>407.67</ele>
        <time>2020-06-06T11:26:12.000Z</time>
      </trkpt>
      <trkpt lat="45.13635" lon="5.82445">
        <ele>410.13</ele>
        <time>2020-06-06T11:26:17.000Z</time>
      </trkpt>
      <trkpt lat="45.13616" lon="5.82472">
        <ele>410.38</ele>
        <time>2020-06-06T11:26:22.000Z</time>
      </trkpt>
      <trkpt lat="45.13597" lon="5.82496">
        <ele>417.47</ele>
        <time>2020-06-06T11:26:27.000Z</time>
      </trkpt>
      <trkpt lat="45.13578" lon="5.82499">
        <ele>416.08</ele>
        <time>2020-06-06T11:26:32.000Z</time>
      </trkpt>
      <trkpt lat="45.13562" lon="5.82515">
        <ele>416.75</ele>
        <time>2020-06-06T11:26:37.000Z</time>
      </trkpt>
      <trkpt lat="45.1355" lon="5.82521">
        <ele>420.69</ele>
        <time>2020-06-06T11:26:42.000Z</time>
      </trkpt>
      <trkpt lat="45.13532" lon="5.8253">
        <ele>419.91</ele>
        <time>2020-06-06T11:26:47.000Z</time>
      </trkpt>
      <trkpt lat="45.13513" lon="5.8254">
        <ele>419.39</ele>
        <time>2020-06-06T11:26:52.000Z</time>
      </trkpt>
      <trkpt lat="45.13496" lon="5.82546">
        <ele>419.87</ele>
        <time>2020-06-06T11:26:57.000Z</time>
      </trkpt>
      <trkpt lat="45.1347" lon="5.82563">
        <ele>419.8</ele>
        <time>2020-06-06T11:27:02.000Z</time>
      </trkpt>
      <trkpt lat="45.13454" lon="5.82558">
        <ele>419.97</ele>
        <time>2020-06-06T11:27:07.000Z</time>
      </trkpt>
      <trkpt lat="45.1344" lon="5.82553">
        <ele>422.06</ele>
        <time>2020-06-06T11:27:12.000Z</time>
      </trkpt>
      <trkpt lat="45.13421" lon="5.82549">
        <ele>423.32</ele>
        <time>2020-06-06T11:27:17.000Z</time>
      </trkpt>
      <trkpt lat="45.13407" lon="5.8254">
        <ele>423.61</ele>
        <time>2020-06-06T11:27:22.000Z</time>
      </trkpt>
      <trkpt lat="45.1339" lon="5.82526">
        <ele>422.89</ele>
        <time>2020-06-06T11:27:27.000Z</time>
      </trkpt>
      <trkpt lat="45.13369" lon="5.82513">
        <ele>423.89</ele>
        <time>2020-06-06T11:27:32.000Z</time>
      </trkpt>
      <trkpt lat="45.13343" lon="5.82503">
        <ele>422.21</ele>
        <time>2020-06-06T11:27:37.000Z</time>
      </trkpt>
      <trkpt lat="45.1332" lon="5.82491">
        <ele>426.96</ele>
        <time>2020-06-06T11:27:42.000Z</time>
      </trkpt>
      <trkpt lat="45.13295" lon="5.82494">
        <ele>422.87</ele>
        <time>2020-06-06T11:27:47.000Z</time>
      </trkpt>
      <trkpt lat="45.13272" lon="5.825">
        <ele>421.83</ele>
        <time>2020-06-06T11:27:52.000Z</time>
      </trkpt>
      <trkpt lat="45.13251" lon="5.82512">
        <ele>425.9</ele>
        <time>2020-06-06T11:27:57.000Z</time>
      </trkpt>
      <trkpt lat="45.13233" lon="5.82517">
        <ele>426.2</ele>
        <time>2020-06-06T11:28:02.000Z</time>
      </trkpt>
      <trkpt lat="45.13216" lon="5.82518">
        <ele>430.19</ele>
        <time>2020-06-06T11:28:07.000Z</time>
      </trkpt>
      <trkpt lat="45.13196" lon="5.82522">
        <ele>433.38</ele>
        <time>2020-06-06T11:28:12.000Z</time>
      </trkpt>
      <trkpt lat="45.13175" lon="5.82525">
        <ele>437.55</ele>
        <time>2020-06-06T11:28:17.000Z</time>
      </trkpt>
      <trkpt lat="45.13159" lon="5.82525">
        <ele>437.3</ele>
        <time>2020-06-06T11:28:22.000Z</time>
      </trkpt>
      <trkpt lat="45.1314" lon="5.82524">
        <ele>435.11</ele>
        <time>2020-06-06T11:28:27.000Z</time>
      </trkpt>
      <trkpt lat="45.13129" lon="5.82531">
        <ele>433.84</ele>
        <time>2020-06-06T11:28:32.000Z</time>
      </trkpt>
      <trkpt lat="45.13137" lon="5.82556">
        <ele>437.4</ele>
        <time>2020-06-06T11:28:37.000Z</time>
      </trkpt>
      <trkpt lat="45.13148" lon="5.82575">
        <ele>437.55</ele>
        <time>2020-06-06T11:28:42.000Z</time>
      </trkpt>
      <trkpt lat="45.13156" lon="5.82599">
        <ele>436.82</ele>
        <time>2020-06-06T11:28:47.000Z</time>
      </trkpt>
      <trkpt lat="45.13149" lon="5.82618">
        <ele>439.24</ele>
        <time>2020-06-06T11:28:52.000Z</time>
      </trkpt>
      <trkpt lat="45.13138" lon="5.82634">
        <ele>440.41</ele>
        <time>2020-06-06T11:28:57.000Z</time>
      </trkpt>
      <trkpt lat="45.13125" lon="5.82652">
        <ele>441.34</ele>
        <time>2020-06-06T11:29:02.000Z</time>
      </trkpt>
      <trkpt lat="45.13114" lon="5.8267">
        <ele>444.07</ele>
        <time>2020-06-06T11:29:07.000Z</time>
      </trkpt>
      <trkpt lat="45.13104" lon="5.82688">
        <ele>445.43</ele>
        <time>2020-06-06T11:29:12.000Z</time>
      </trkpt>
      <trkpt lat="45.13089" lon="5.82704">
        <ele>444.38</ele>
        <time>2020-06-06T11:29:17.000Z</time>
      </trkpt>
      <trkpt lat="45.13072" lon="5.82719">
        <ele>448.29</ele>
        <time>2020-06-06T11:29:22.000Z</time>
      </trkpt>
      <trkpt lat="45.13056" lon="5.82735">
        <ele>448.53</ele>
        <time>2020-06-06T11:29:27.000Z</time>
      </trkpt>
      <trkpt lat="45.13046" lon="5.82742">
        <ele>448.65</ele>
        <time>2020-06-06T11:29:32.000Z</time>
      </trkpt>
      <trkpt lat="45.13034" lon="5.82755">
        <ele>451.43</ele>
        <time>2020-06-06T11:29:37.000Z</time>
      </trkpt>
      <trkpt lat="45.13022" lon="5.82774">
        <ele>456.16</ele>
        <time>2020-06-06T11:29:42.000Z</time>
      </trkpt>
      <trkpt lat="45.1301" lon="5.82787">
        <ele>458.13</ele>
        <time>2020-06-06T11:29:47.000Z</time>
      </trkpt>
      <trkpt lat="45.13" lon="5.82798">
        <ele>459.73</ele>
        <time>2020-06-06T11:29:52.000Z</time>
      </trkpt>
      <trkpt lat="45.1299" lon="5.82806">
        <ele>460.47</ele>
        <time>2020-06-06T11:29:57.000Z</time>
      </trkpt>
      <trkpt lat="45.12976" lon="5.82813">
        <ele>462.84</ele>
        <time>2020-06-06T11:30:02.000Z</time>
      </trkpt>
      <trkpt lat="45.12964" lon="5.8282">
        <ele>467.15</ele>
        <time>2020-06-06T11:30:07.000Z</time>
      </trkpt>
      <trkpt lat="45.12951" lon="5.82825">
        <ele>468.54</ele>
        <time>2020-06-06T11:30:12.000Z</time>
      </trkpt>
      <trkpt lat="45.12953" lon="5.82842">
        <ele>471.35</ele>
        <time>2020-06-06T11:30:17.000Z</time>
      </trkpt>
      <trkpt lat="45.12959" lon="5.82855">
        <ele>471.8</ele>
        <time>2020-06-06T11:30:46.000Z</time>
      </trkpt>
      <trkpt lat="45.12968" lon="5.82875">
        <ele>473.17</ele>
        <time>2020-06-06T11:30:51.000Z</time>
      </trkpt>
      <trkpt lat="45.12978" lon="5.82889">
        <ele>475.2</ele>
        <time>2020-06-06T11:30:56.000Z</time>
      </trkpt>
      <trkpt lat="45.12994" lon="5.82906">
        <ele>481.45</ele>
        <time>2020-06-06T11:31:01.000Z</time>
      </trkpt>
      <trkpt lat="45.13011" lon="5.82917">
        <ele>480.28</ele>
        <time>2020-06-06T11:31:06.000Z</time>
      </trkpt>
      <trkpt lat="45.13027" lon="5.82927">
        <ele>483.81</ele>
        <time>2020-06-06T11:31:11.000Z</time>
      </trkpt>
      <trkpt lat="45.13042" lon="5.8294">
        <ele>485.95</ele>
        <time>2020-06-06T11:31:16.000Z</time>
      </trkpt>
      <trkpt lat="45.13056" lon="5.82954">
        <ele>484.53</ele>
        <time>2020-06-06T11:31:21.000Z</time>
      </trkpt>
      <trkpt lat="45.13071" lon="5.82958">
        <ele>486.04</ele>
        <time>2020-06-06T11:31:26.000Z</time>
      </trkpt>
      <trkpt lat="45.13084" lon="5.82968">
        <ele>484.99</ele>
        <time>2020-06-06T11:31:31.000Z</time>
      </trkpt>
      <trkpt lat="45.13088" lon="5.8299">
        <ele>489.25</ele>
        <time>2020-06-06T11:31:36.000Z</time>
      </trkpt>
      <trkpt lat="45.13091" lon="5.83013">
        <ele>492.01</ele>
        <time>2020-06-06T11:31:41.000Z</time>
      </trkpt>
      <trkpt lat="45.13096" lon="5.83037">
        <ele>494.18</ele>
        <time>2020-06-06T11:31:46.000Z</time>
      </trkpt>
      <trkpt lat="45.13097" lon="5.83062">
        <ele>497.46</ele>
        <time>2020-06-06T11:31:51.000Z</time>
      </trkpt>
      <trkpt lat="45.13101" lon="5.83083">
        <ele>498.98</ele>
        <time>2020-06-06T11:31:56.000Z</time>
      </trkpt>
      <trkpt lat="45.13104" lon="5.83106">
        <ele>499.35</ele>
        <time>2020-06-06T11:32:01.000Z</time>
      </trkpt>
      <trkpt lat="45.13107" lon="5.83127">
        <ele>499.77</ele>
        <time>2020-06-06T11:32:06.000Z</time>
      </trkpt>
      <trkpt lat="45.13109" lon="5.83151">
        <ele>500.35</ele>
        <time>2020-06-06T11:32:11.000Z</time>
      </trkpt>
      <trkpt lat="45.13113" lon="5.83175">
        <ele>500.17</ele>
        <time>2020-06-06T11:32:16.000Z</time>
      </trkpt>
      <trkpt lat="45.13117" lon="5.83198">
        <ele>501.66</ele>
        <time>2020-06-06T11:32:21.000Z</time>
      </trkpt>
      <trkpt lat="45.13129" lon="5.83213">
        <ele>504.7</ele>
        <time>2020-06-06T11:32:26.000Z</time>
      </trkpt>
      <trkpt lat="45.13145" lon="5.83219">
        <ele>505.06</ele>
        <time>2020-06-06T11:32:31.000Z</time>
      </trkpt>
      <trkpt lat="45.1316" lon="5.83229">
        <ele>506.45</ele>
        <time>2020-06-06T11:32:36.000Z</time>
      </trkpt>
      <trkpt lat="45.1317" lon="5.83248">
        <ele>507.17</ele>
        <time>2020-06-06T11:32:41.000Z</time>
      </trkpt>
      <trkpt lat="45.13163" lon="5.8327">
        <ele>507.18</ele>
        <time>2020-06-06T11:32:46.000Z</time>
      </trkpt>
      <trkpt lat="45.13147" lon="5.83277">
        <ele>509</ele>
        <time>2020-06-06T11:32:51.000Z</time>
      </trkpt>
      <trkpt lat="45.13133" lon="5.83282">
        <ele>512.02</ele>
        <time>2020-06-06T11:32:56.000Z</time>
      </trkpt>
      <trkpt lat="45.13123" lon="5.83296">
        <ele>513.52</ele>
        <time>2020-06-06T11:33:01.000Z</time>
      </trkpt>
      <trkpt lat="45.1311" lon="5.83314">
        <ele>516.15</ele>
        <time>2020-06-06T11:33:06.000Z</time>
      </trkpt>
      <trkpt lat="45.13096" lon="5.83329">
        <ele>516.64</ele>
        <time>2020-06-06T11:33:11.000Z</time>
      </trkpt>
      <trkpt lat="45.13083" lon="5.8334">
        <ele>519.36</ele>
        <time>2020-06-06T11:33:16.000Z</time>
      </trkpt>
      <trkpt lat="45.13071" lon="5.83353">
        <ele>523.27</ele>
        <time>2020-06-06T11:33:21.000Z</time>
      </trkpt>
      <trkpt lat="45.13058" lon="5.83366">
        <ele>525.84</ele>
        <time>2020-06-06T11:33:26.000Z</time>
      </trkpt>
      <trkpt lat="45.13043" lon="5.83379">
        <ele>527.85</ele>
        <time>2020-06-06T11:33:31.000Z</time>
      </trkpt>
      <trkpt lat="45.13029" lon="5.83391">
        <ele>528.7</ele>
        <time>2020-06-06T11:33:36.000Z</time>
      </trkpt>
      <trkpt lat="45.13017" lon="5.83403">
        <ele>530.31</ele>
        <time>2020-06-06T11:33:41.000Z</time>
      </trkpt>
      <trkpt lat="45.13004" lon="5.83416">
        <ele>533.88</ele>
        <time>2020-06-06T11:33:46.000Z</time>
      </trkpt>
      <trkpt lat="45.12995" lon="5.83427">
        <ele>535.58</ele>
        <time>2020-06-06T11:33:51.000Z</time>
      </trkpt>
      <trkpt lat="45.12984" lon="5.83438">
        <ele>540.14</ele>
        <time>2020-06-06T11:33:56.000Z</time>
      </trkpt>
      <trkpt lat="45.1297" lon="5.83446">
        <ele>542.99</ele>
        <time>2020-06-06T11:34:01.000Z</time>
      </trkpt>
      <trkpt lat="45.1295" lon="5.83453">
        <ele>541.72</ele>
        <time>2020-06-06T11:34:06.000Z</time>
      </trkpt>
      <trkpt lat="45.1293" lon="5.83458">
        <ele>537.7</ele>
        <time>2020-06-06T11:34:11.000Z</time>
      </trkpt>
      <trkpt lat="45.12911" lon="5.83462">
        <ele>536.5</ele>
        <time>2020-06-06T11:34:16.000Z</time>
      </trkpt>
      <trkpt lat="45.12893" lon="5.83466">
        <ele>536.83</ele>
        <time>2020-06-06T11:34:21.000Z</time>
      </trkpt>
      <trkpt lat="45.12877" lon="5.83471">
        <ele>540.47</ele>
        <time>2020-06-06T11:34:26.000Z</time>
      </trkpt>
      <trkpt lat="45.12862" lon="5.83476">
        <ele>543.47</ele>
        <time>2020-06-06T11:34:31.000Z</time>
      </trkpt>
      <trkpt lat="45.12847" lon="5.83481">
        <ele>547.28</ele>
        <time>2020-06-06T11:34:36.000Z</time>
      </trkpt>
      <trkpt lat="45.12831" lon="5.83485">
        <ele>547.35</ele>
        <time>2020-06-06T11:34:41.000Z</time>
      </trkpt>
      <trkpt lat="45.12813" lon="5.83491">
        <ele>548.56</ele>
        <time>2020-06-06T11:34:46.000Z</time>
      </trkpt>
      <trkpt lat="45.128" lon="5.835">
        <ele>549.08</ele>
        <time>2020-06-06T11:34:51.000Z</time>
      </trkpt>
      <trkpt lat="45.12809" lon="5.83494">
        <ele>543.15</ele>
        <time>2020-06-06T11:35:10.000Z</time>
      </trkpt>
      <trkpt lat="45.128" lon="5.83502">
        <ele>548.67</ele>
        <time>2020-06-06T11:37:08.000Z</time>
      </trkpt>
      <trkpt lat="45.12804" lon="5.83516">
        <ele>547.43</ele>
        <time>2020-06-06T11:37:13.000Z</time>
      </trkpt>
      <trkpt lat="45.12823" lon="5.83523">
        <ele>550.82</ele>
        <time>2020-06-06T11:37:18.000Z</time>
      </trkpt>
      <trkpt lat="45.12844" lon="5.83522">
        <ele>554.26</ele>
        <time>2020-06-06T11:37:23.000Z</time>
      </trkpt>
      <trkpt lat="45.12864" lon="5.83522">
        <ele>552.34</ele>
        <time>2020-06-06T11:37:28.000Z</time>
      </trkpt>
      <trkpt lat="45.12883" lon="5.83531">
        <ele>552.9</ele>
        <time>2020-06-06T11:37:33.000Z</time>
      </trkpt>
      <trkpt lat="45.129" lon="5.83544">
        <ele>555.66</ele>
        <time>2020-06-06T11:37:38.000Z</time>
      </trkpt>
      <trkpt lat="45.12913" lon="5.83563">
        <ele>557.83</ele>
        <time>2020-06-06T11:37:43.000Z</time>
      </trkpt>
      <trkpt lat="45.12927" lon="5.8358">
        <ele>558.65</ele>
        <time>2020-06-06T11:37:48.000Z</time>
      </trkpt>
      <trkpt lat="45.1294" lon="5.83597">
        <ele>560.72</ele>
        <time>2020-06-06T11:37:53.000Z</time>
      </trkpt>
      <trkpt lat="45.12955" lon="5.83604">
        <ele>564.29</ele>
        <time>2020-06-06T11:37:58.000Z</time>
      </trkpt>
      <trkpt lat="45.12974" lon="5.83601">
        <ele>564.7</ele>
        <time>2020-06-06T11:38:03.000Z</time>
      </trkpt>
      <trkpt lat="45.12993" lon="5.83598">
        <ele>565.09</ele>
        <time>2020-06-06T11:38:08.000Z</time>
      </trkpt>
      <trkpt lat="45.13009" lon="5.83606">
        <ele>565.69</ele>
        <time>2020-06-06T11:38:13.000Z</time>
      </trkpt>
      <trkpt lat="45.13019" lon="5.83629">
        <ele>567.17</ele>
        <time>2020-06-06T11:38:18.000Z</time>
      </trkpt>
      <trkpt lat="45.1303" lon="5.83652">
        <ele>566.7</ele>
        <time>2020-06-06T11:38:23.000Z</time>
      </trkpt>
      <trkpt lat="45.13039" lon="5.83673">
        <ele>567.09</ele>
        <time>2020-06-06T11:38:28.000Z</time>
      </trkpt>
      <trkpt lat="45.1305" lon="5.83697">
        <ele>573.7</ele>
        <time>2020-06-06T11:38:33.000Z</time>
      </trkpt>
      <trkpt lat="45.1306" lon="5.83722">
        <ele>571.04</ele>
        <time>2020-06-06T11:38:38.000Z</time>
      </trkpt>
      <trkpt lat="45.13068" lon="5.83743">
        <ele>569.87</ele>
        <time>2020-06-06T11:38:43.000Z</time>
      </trkpt>
      <trkpt lat="45.13077" lon="5.83761">
        <ele>569.6</ele>
        <time>2020-06-06T11:38:48.000Z</time>
      </trkpt>
      <trkpt lat="45.13091" lon="5.83772">
        <ele>570.11</ele>
        <time>2020-06-06T11:38:53.000Z</time>
      </trkpt>
      <trkpt lat="45.1311" lon="5.83783">
        <ele>567.7</ele>
        <time>2020-06-06T11:38:58.000Z</time>
      </trkpt>
      <trkpt lat="45.1313" lon="5.83787">
        <ele>565.03</ele>
        <time>2020-06-06T11:39:03.000Z</time>
      </trkpt>
      <trkpt lat="45.13144" lon="5.83779">
        <ele>566.65</ele>
        <time>2020-06-06T11:39:08.000Z</time>
      </trkpt>
      <trkpt lat="45.1316" lon="5.83769">
        <ele>568.35</ele>
        <time>2020-06-06T11:39:13.000Z</time>
      </trkpt>
      <trkpt lat="45.13169" lon="5.8376">
        <ele>569.4</ele>
        <time>2020-06-06T11:39:18.000Z</time>
      </trkpt>
      <trkpt lat="45.13188" lon="5.83751">
        <ele>568.85</ele>
        <time>2020-06-06T11:39:23.000Z</time>
      </trkpt>
      <trkpt lat="45.13217" lon="5.83742">
        <ele>569.93</ele>
        <time>2020-06-06T11:39:28.000Z</time>
      </trkpt>
      <trkpt lat="45.13241" lon="5.83747">
        <ele>568.58</ele>
        <time>2020-06-06T11:39:33.000Z</time>
      </trkpt>
      <trkpt lat="45.13261" lon="5.83755">
        <ele>568.13</ele>
        <time>2020-06-06T11:39:38.000Z</time>
      </trkpt>
      <trkpt lat="45.13281" lon="5.83765">
        <ele>571.67</ele>
        <time>2020-06-06T11:39:43.000Z</time>
      </trkpt>
      <trkpt lat="45.13302" lon="5.83774">
        <ele>570.7</ele>
        <time>2020-06-06T11:39:48.000Z</time>
      </trkpt>
      <trkpt lat="45.13325" lon="5.8378">
        <ele>571.66</ele>
        <time>2020-06-06T11:39:53.000Z</time>
      </trkpt>
      <trkpt lat="45.13345" lon="5.83789">
        <ele>571.79</ele>
        <time>2020-06-06T11:39:58.000Z</time>
      </trkpt>
      <trkpt lat="45.13367" lon="5.83798">
        <ele>573.27</ele>
        <time>2020-06-06T11:40:03.000Z</time>
      </trkpt>
      <trkpt lat="45.1339" lon="5.83811">
        <ele>572.87</ele>
        <time>2020-06-06T11:40:08.000Z</time>
      </trkpt>
      <trkpt lat="45.13413" lon="5.83817">
        <ele>574.95</ele>
        <time>2020-06-06T11:40:13.000Z</time>
      </trkpt>
      <trkpt lat="45.13438" lon="5.83826">
        <ele>575.23</ele>
        <time>2020-06-06T11:40:18.000Z</time>
      </trkpt>
      <trkpt lat="45.13463" lon="5.83833">
        <ele>574.59</ele>
        <time>2020-06-06T11:40:23.000Z</time>
      </trkpt>
      <trkpt lat="45.13485" lon="5.83841">
        <ele>572.31</ele>
        <time>2020-06-06T11:40:28.000Z</time>
      </trkpt>
      <trkpt lat="45.13507" lon="5.8385">
        <ele>573.21</ele>
        <time>2020-06-06T11:40:33.000Z</time>
      </trkpt>
      <trkpt lat="45.13529" lon="5.83861">
        <ele>572.53</ele>
        <time>2020-06-06T11:40:38.000Z</time>
      </trkpt>
      <trkpt lat="45.13553" lon="5.83872">
        <ele>572.65</ele>
        <time>2020-06-06T11:40:43.000Z</time>
      </trkpt>
      <trkpt lat="45.13583" lon="5.83884">
        <ele>568.43</ele>
        <time>2020-06-06T11:40:48.000Z</time>
      </trkpt>
      <trkpt lat="45.13617" lon="5.83901">
        <ele>568.77</ele>
        <time>2020-06-06T11:40:53.000Z</time>
      </trkpt>
      <trkpt lat="45.13646" lon="5.83918">
        <ele>568.73</ele>
        <time>2020-06-06T11:40:58.000Z</time>
      </trkpt>
      <trkpt lat="45.13672" lon="5.83934">
        <ele>568.48</ele>
        <time>2020-06-06T11:41:03.000Z</time>
      </trkpt>
      <trkpt lat="45.13695" lon="5.83941">
        <ele>568.63</ele>
        <time>2020-06-06T11:41:08.000Z</time>
      </trkpt>
      <trkpt lat="45.1372" lon="5.83949">
        <ele>569.71</ele>
        <time>2020-06-06T11:41:13.000Z</time>
      </trkpt>
      <trkpt lat="45.13741" lon="5.83955">
        <ele>568.31</ele>
        <time>2020-06-06T11:41:18.000Z</time>
      </trkpt>
      <trkpt lat="45.13757" lon="5.83946">
        <ele>565.78</ele>
        <time>2020-06-06T11:41:23.000Z</time>
      </trkpt>
      <trkpt lat="45.13775" lon="5.83962">
        <ele>568.03</ele>
        <time>2020-06-06T11:41:28.000Z</time>
      </trkpt>
      <trkpt lat="45.13794" lon="5.83977">
        <ele>569.06</ele>
        <time>2020-06-06T11:41:33.000Z</time>
      </trkpt>
      <trkpt lat="45.13818" lon="5.83987">
        <ele>570.16</ele>
        <time>2020-06-06T11:41:38.000Z</time>
      </trkpt>
      <trkpt lat="45.13835" lon="5.83995">
        <ele>572.91</ele>
        <time>2020-06-06T11:41:43.000Z</time>
      </trkpt>
      <trkpt lat="45.13861" lon="5.83999">
        <ele>575.63</ele>
        <time>2020-06-06T11:41:48.000Z</time>
      </trkpt>
      <trkpt lat="45.13885" lon="5.84008">
        <ele>575.82</ele>
        <time>2020-06-06T11:41:53.000Z</time>
      </trkpt>
      <trkpt lat="45.13905" lon="5.84022">
        <ele>575.91</ele>
        <time>2020-06-06T11:41:58.000Z</time>
      </trkpt>
      <trkpt lat="45.13923" lon="5.84038">
        <ele>578.17</ele>
        <time>2020-06-06T11:42:03.000Z</time>
      </trkpt>
      <trkpt lat="45.1394" lon="5.84052">
        <ele>578.79</ele>
        <time>2020-06-06T11:42:08.000Z</time>
      </trkpt>
      <trkpt lat="45.1396" lon="5.84059">
        <ele>580.07</ele>
        <time>2020-06-06T11:42:13.000Z</time>
      </trkpt>
      <trkpt lat="45.1398" lon="5.84065">
        <ele>578.79</ele>
        <time>2020-06-06T11:42:18.000Z</time>
      </trkpt>
      <trkpt lat="45.14001" lon="5.84069">
        <ele>580.73</ele>
        <time>2020-06-06T11:42:23.000Z</time>
      </trkpt>
      <trkpt lat="45.14022" lon="5.84076">
        <ele>578.91</ele>
        <time>2020-06-06T11:42:28.000Z</time>
      </trkpt>
      <trkpt lat="45.14045" lon="5.84082">
        <ele>578.67</ele>
        <time>2020-06-06T11:42:33.000Z</time>
      </trkpt>
      <trkpt lat="45.14071" lon="5.84083">
        <ele>581.2</ele>
        <time>2020-06-06T11:42:38.000Z</time>
      </trkpt>
      <trkpt lat="45.14097" lon="5.84071">
        <ele>585.26</ele>
        <time>2020-06-06T11:42:43.000Z</time>
      </trkpt>
      <trkpt lat="45.14123" lon="5.84055">
        <ele>585.55</ele>
        <time>2020-06-06T11:42:48.000Z</time>
      </trkpt>
      <trkpt lat="45.14149" lon="5.84041">
        <ele>585.33</ele>
        <time>2020-06-06T11:42:53.000Z</time>
      </trkpt>
      <trkpt lat="45.14177" lon="5.84031">
        <ele>582.66</ele>
        <time>2020-06-06T11:42:58.000Z</time>
      </trkpt>
      <trkpt lat="45.14205" lon="5.8404">
        <ele>579.73</ele>
        <time>2020-06-06T11:43:03.000Z</time>
      </trkpt>
      <trkpt lat="45.14229" lon="5.84058">
        <ele>580.55</ele>
        <time>2020-06-06T11:43:08.000Z</time>
      </trkpt>
      <trkpt lat="45.14241" lon="5.84096">
        <ele>579.97</ele>
        <time>2020-06-06T11:43:13.000Z</time>
      </trkpt>
      <trkpt lat="45.14252" lon="5.84129">
        <ele>582.7</ele>
        <time>2020-06-06T11:43:18.000Z</time>
      </trkpt>
      <trkpt lat="45.14274" lon="5.84143">
        <ele>584.99</ele>
        <time>2020-06-06T11:43:23.000Z</time>
      </trkpt>
      <trkpt lat="45.14301" lon="5.84128">
        <ele>584.11</ele>
        <time>2020-06-06T11:43:28.000Z</time>
      </trkpt>
      <trkpt lat="45.14325" lon="5.84104">
        <ele>586.49</ele>
        <time>2020-06-06T11:43:33.000Z</time>
      </trkpt>
      <trkpt lat="45.14345" lon="5.84081">
        <ele>585.55</ele>
        <time>2020-06-06T11:43:38.000Z</time>
      </trkpt>
      <trkpt lat="45.14365" lon="5.84055">
        <ele>586.45</ele>
        <time>2020-06-06T11:43:43.000Z</time>
      </trkpt>
      <trkpt lat="45.14378" lon="5.84026">
        <ele>589.54</ele>
        <time>2020-06-06T11:43:48.000Z</time>
      </trkpt>
      <trkpt lat="45.14393" lon="5.84">
        <ele>591.43</ele>
        <time>2020-06-06T11:43:53.000Z</time>
      </trkpt>
      <trkpt lat="45.14406" lon="5.83972">
        <ele>592.62</ele>
        <time>2020-06-06T11:43:58.000Z</time>
      </trkpt>
      <trkpt lat="45.14428" lon="5.8396">
        <ele>594.01</ele>
        <time>2020-06-06T11:44:03.000Z</time>
      </trkpt>
      <trkpt lat="45.14458" lon="5.83954">
        <ele>592.1</ele>
        <time>2020-06-06T11:44:08.000Z</time>
      </trkpt>
      <trkpt lat="45.14486" lon="5.83945">
        <ele>589.85</ele>
        <time>2020-06-06T11:44:13.000Z</time>
      </trkpt>
      <trkpt lat="45.14503" lon="5.83934">
        <ele>590.59</ele>
        <time>2020-06-06T11:44:18.000Z</time>
      </trkpt>
      <trkpt lat="45.14527" lon="5.83927">
        <ele>590.65</ele>
        <time>2020-06-06T11:44:23.000Z</time>
      </trkpt>
      <trkpt lat="45.14551" lon="5.83918">
        <ele>591.33</ele>
        <time>2020-06-06T11:44:28.000Z</time>
      </trkpt>
      <trkpt lat="45.14574" lon="5.83907">
        <ele>590.02</ele>
        <time>2020-06-06T11:44:33.000Z</time>
      </trkpt>
      <trkpt lat="45.14597" lon="5.83903">
        <ele>587.8</ele>
        <time>2020-06-06T11:44:38.000Z</time>
      </trkpt>
      <trkpt lat="45.14622" lon="5.83898">
        <ele>586.53</ele>
        <time>2020-06-06T11:44:43.000Z</time>
      </trkpt>
      <trkpt lat="45.14649" lon="5.83901">
        <ele>590.65</ele>
        <time>2020-06-06T11:44:48.000Z</time>
      </trkpt>
      <trkpt lat="45.14678" lon="5.83904">
        <ele>588.29</ele>
        <time>2020-06-06T11:44:53.000Z</time>
      </trkpt>
      <trkpt lat="45.14704" lon="5.83908">
        <ele>591</ele>
        <time>2020-06-06T11:44:58.000Z</time>
      </trkpt>
      <trkpt lat="45.1473" lon="5.83903">
        <ele>592.5</ele>
        <time>2020-06-06T11:45:03.000Z</time>
      </trkpt>
      <trkpt lat="45.14759" lon="5.83902">
        <ele>593.59</ele>
        <time>2020-06-06T11:45:08.000Z</time>
      </trkpt>
      <trkpt lat="45.14782" lon="5.83895">
        <ele>591.68</ele>
        <time>2020-06-06T11:45:13.000Z</time>
      </trkpt>
      <trkpt lat="45.14805" lon="5.83885">
        <ele>590.53</ele>
        <time>2020-06-06T11:45:18.000Z</time>
      </trkpt>
      <trkpt lat="45.14826" lon="5.83877">
        <ele>591.57</ele>
        <time>2020-06-06T11:45:23.000Z</time>
      </trkpt>
      <trkpt lat="45.14848" lon="5.83869">
        <ele>591.75</ele>
        <time>2020-06-06T11:45:28.000Z</time>
      </trkpt>
      <trkpt lat="45.1487" lon="5.83863">
        <ele>593.36</ele>
        <time>2020-06-06T11:45:33.000Z</time>
      </trkpt>
      <trkpt lat="45.14889" lon="5.83859">
        <ele>590.69</ele>
        <time>2020-06-06T11:45:38.000Z</time>
      </trkpt>
      <trkpt lat="45.14914" lon="5.83851">
        <ele>588.53</ele>
        <time>2020-06-06T11:45:43.000Z</time>
      </trkpt>
      <trkpt lat="45.14939" lon="5.8384">
        <ele>590.2</ele>
        <time>2020-06-06T11:45:48.000Z</time>
      </trkpt>
      <trkpt lat="45.14963" lon="5.83827">
        <ele>590.75</ele>
        <time>2020-06-06T11:45:53.000Z</time>
      </trkpt>
      <trkpt lat="45.14997" lon="5.83814">
        <ele>588.84</ele>
        <time>2020-06-06T11:45:58.000Z</time>
      </trkpt>
      <trkpt lat="45.15025" lon="5.83797">
        <ele>588.73</ele>
        <time>2020-06-06T11:46:03.000Z</time>
      </trkpt>
      <trkpt lat="45.15049" lon="5.83774">
        <ele>586.61</ele>
        <time>2020-06-06T11:46:08.000Z</time>
      </trkpt>
      <trkpt lat="45.15071" lon="5.83749">
        <ele>585.03</ele>
        <time>2020-06-06T11:46:13.000Z</time>
      </trkpt>
      <trkpt lat="45.15082" lon="5.83728">
        <ele>582.36</ele>
        <time>2020-06-06T11:46:18.000Z</time>
      </trkpt>
      <trkpt lat="45.15097" lon="5.83719">
        <ele>580.82</ele>
        <time>2020-06-06T11:46:23.000Z</time>
      </trkpt>
      <trkpt lat="45.15112" lon="5.83723">
        <ele>582.51</ele>
        <time>2020-06-06T11:46:28.000Z</time>
      </trkpt>
      <trkpt lat="45.15127" lon="5.83736">
        <ele>585.41</ele>
        <time>2020-06-06T11:46:33.000Z</time>
      </trkpt>
      <trkpt lat="45.15142" lon="5.83744">
        <ele>588.11</ele>
        <time>2020-06-06T11:46:38.000Z</time>
      </trkpt>
      <trkpt lat="45.1516" lon="5.83758">
        <ele>588.88</ele>
        <time>2020-06-06T11:46:43.000Z</time>
      </trkpt>
      <trkpt lat="45.15177" lon="5.83775">
        <ele>590.2</ele>
        <time>2020-06-06T11:46:48.000Z</time>
      </trkpt>
      <trkpt lat="45.15192" lon="5.83791">
        <ele>590.14</ele>
        <time>2020-06-06T11:46:53.000Z</time>
      </trkpt>
      <trkpt lat="45.15207" lon="5.83804">
        <ele>590.95</ele>
        <time>2020-06-06T11:46:58.000Z</time>
      </trkpt>
      <trkpt lat="45.15223" lon="5.83817">
        <ele>592.16</ele>
        <time>2020-06-06T11:47:03.000Z</time>
      </trkpt>
      <trkpt lat="45.15239" lon="5.83834">
        <ele>591.25</ele>
        <time>2020-06-06T11:47:08.000Z</time>
      </trkpt>
      <trkpt lat="45.15255" lon="5.83844">
        <ele>591.22</ele>
        <time>2020-06-06T11:47:13.000Z</time>
      </trkpt>
      <trkpt lat="45.15273" lon="5.83843">
        <ele>592.89</ele>
        <time>2020-06-06T11:47:18.000Z</time>
      </trkpt>
      <trkpt lat="45.15293" lon="5.83845">
        <ele>593.94</ele>
        <time>2020-06-06T11:47:23.000Z</time>
      </trkpt>
      <trkpt lat="45.15308" lon="5.83847">
        <ele>590.37</ele>
        <time>2020-06-06T11:47:28.000Z</time>
      </trkpt>
      <trkpt lat="45.15326" lon="5.83855">
        <ele>592.04</ele>
        <time>2020-06-06T11:47:33.000Z</time>
      </trkpt>
      <trkpt lat="45.1534" lon="5.83874">
        <ele>595.42</ele>
        <time>2020-06-06T11:47:38.000Z</time>
      </trkpt>
      <trkpt lat="45.15352" lon="5.83898">
        <ele>597.04</ele>
        <time>2020-06-06T11:47:43.000Z</time>
      </trkpt>
      <trkpt lat="45.15359" lon="5.83922">
        <ele>595.86</ele>
        <time>2020-06-06T11:47:48.000Z</time>
      </trkpt>
      <trkpt lat="45.15356" lon="5.83948">
        <ele>598.35</ele>
        <time>2020-06-06T11:47:53.000Z</time>
      </trkpt>
      <trkpt lat="45.15354" lon="5.83976">
        <ele>602.01</ele>
        <time>2020-06-06T11:47:58.000Z</time>
      </trkpt>
      <trkpt lat="45.15351" lon="5.84002">
        <ele>603.32</ele>
        <time>2020-06-06T11:48:03.000Z</time>
      </trkpt>
      <trkpt lat="45.1535" lon="5.84028">
        <ele>608.33</ele>
        <time>2020-06-06T11:48:08.000Z</time>
      </trkpt>
      <trkpt lat="45.1535" lon="5.84051">
        <ele>609.89</ele>
        <time>2020-06-06T11:48:13.000Z</time>
      </trkpt>
      <trkpt lat="45.15352" lon="5.8407">
        <ele>608.65</ele>
        <time>2020-06-06T11:48:18.000Z</time>
      </trkpt>
      <trkpt lat="45.15352" lon="5.84085">
        <ele>610.62</ele>
        <time>2020-06-06T11:48:24.000Z</time>
      </trkpt>
      <trkpt lat="45.1535" lon="5.841">
        <ele>614.72</ele>
        <time>2020-06-06T11:51:21.000Z</time>
      </trkpt>
      <trkpt lat="45.15341" lon="5.84116">
        <ele>617.6</ele>
        <time>2020-06-06T11:51:26.000Z</time>
      </trkpt>
      <trkpt lat="45.15327" lon="5.84129">
        <ele>619.35</ele>
        <time>2020-06-06T11:51:31.000Z</time>
      </trkpt>
      <trkpt lat="45.15309" lon="5.84133">
        <ele>621.44</ele>
        <time>2020-06-06T11:51:36.000Z</time>
      </trkpt>
      <trkpt lat="45.15293" lon="5.84138">
        <ele>624.22</ele>
        <time>2020-06-06T11:51:41.000Z</time>
      </trkpt>
      <trkpt lat="45.15275" lon="5.84145">
        <ele>624.79</ele>
        <time>2020-06-06T11:51:46.000Z</time>
      </trkpt>
      <trkpt lat="45.15261" lon="5.84157">
        <ele>627.29</ele>
        <time>2020-06-06T11:51:51.000Z</time>
      </trkpt>
      <trkpt lat="45.15248" lon="5.8417">
        <ele>628.96</ele>
        <time>2020-06-06T11:51:56.000Z</time>
      </trkpt>
      <trkpt lat="45.15233" lon="5.84184">
        <ele>630.58</ele>
        <time>2020-06-06T11:52:01.000Z</time>
      </trkpt>
      <trkpt lat="45.15218" lon="5.84197">
        <ele>633.65</ele>
        <time>2020-06-06T11:52:06.000Z</time>
      </trkpt>
      <trkpt lat="45.15204" lon="5.8421">
        <ele>633.63</ele>
        <time>2020-06-06T11:52:11.000Z</time>
      </trkpt>
      <trkpt lat="45.15189" lon="5.84222">
        <ele>632.74</ele>
        <time>2020-06-06T11:52:16.000Z</time>
      </trkpt>
      <trkpt lat="45.15175" lon="5.84235">
        <ele>634.84</ele>
        <time>2020-06-06T11:52:21.000Z</time>
      </trkpt>
      <trkpt lat="45.15161" lon="5.84253">
        <ele>637.55</ele>
        <time>2020-06-06T11:52:26.000Z</time>
      </trkpt>
      <trkpt lat="45.15151" lon="5.84274">
        <ele>640.49</ele>
        <time>2020-06-06T11:52:31.000Z</time>
      </trkpt>
      <trkpt lat="45.15143" lon="5.84298">
        <ele>640.01</ele>
        <time>2020-06-06T11:52:36.000Z</time>
      </trkpt>
      <trkpt lat="45.15133" lon="5.84321">
        <ele>642.98</ele>
        <time>2020-06-06T11:52:41.000Z</time>
      </trkpt>
      <trkpt lat="45.15116" lon="5.84339">
        <ele>645.72</ele>
        <time>2020-06-06T11:52:46.000Z</time>
      </trkpt>
      <trkpt lat="45.15096" lon="5.84344">
        <ele>647.38</ele>
        <time>2020-06-06T11:52:51.000Z</time>
      </trkpt>
      <trkpt lat="45.15077" lon="5.84345">
        <ele>649.32</ele>
        <time>2020-06-06T11:52:56.000Z</time>
      </trkpt>
      <trkpt lat="45.15058" lon="5.84349">
        <ele>651.88</ele>
        <time>2020-06-06T11:53:01.000Z</time>
      </trkpt>
      <trkpt lat="45.15041" lon="5.84358">
        <ele>655.13</ele>
        <time>2020-06-06T11:53:06.000Z</time>
      </trkpt>
      <trkpt lat="45.15032" lon="5.84375">
        <ele>654.15</ele>
        <time>2020-06-06T11:53:11.000Z</time>
      </trkpt>
      <trkpt lat="45.15026" lon="5.844">
        <ele>652.8</ele>
        <time>2020-06-06T11:53:16.000Z</time>
      </trkpt>
      <trkpt lat="45.15027" lon="5.84426">
        <ele>655.8</ele>
        <time>2020-06-06T11:53:21.000Z</time>
      </trkpt>
      <trkpt lat="45.15035" lon="5.84449">
        <ele>659.4</ele>
        <time>2020-06-06T11:53:26.000Z</time>
      </trkpt>
      <trkpt lat="45.15049" lon="5.8447">
        <ele>663.64</ele>
        <time>2020-06-06T11:53:31.000Z</time>
      </trkpt>
      <trkpt lat="45.15066" lon="5.84481">
        <ele>665.47</ele>
        <time>2020-06-06T11:53:36.000Z</time>
      </trkpt>
      <trkpt lat="45.15085" lon="5.8449">
        <ele>667.18</ele>
        <time>2020-06-06T11:53:41.000Z</time>
      </trkpt>
      <trkpt lat="45.15105" lon="5.84493">
        <ele>667.91</ele>
        <time>2020-06-06T11:53:46.000Z</time>
      </trkpt>
      <trkpt lat="45.15122" lon="5.845">
        <ele>670.23</ele>
        <time>2020-06-06T11:53:51.000Z</time>
      </trkpt>
      <trkpt lat="45.15139" lon="5.84508">
        <ele>672.76</ele>
        <time>2020-06-06T11:53:56.000Z</time>
      </trkpt>
      <trkpt lat="45.15156" lon="5.8452">
        <ele>673.97</ele>
        <time>2020-06-06T11:54:01.000Z</time>
      </trkpt>
      <trkpt lat="45.15169" lon="5.8453">
        <ele>678.33</ele>
        <time>2020-06-06T11:54:06.000Z</time>
      </trkpt>
      <trkpt lat="45.15182" lon="5.84538">
        <ele>680.3</ele>
        <time>2020-06-06T11:54:11.000Z</time>
      </trkpt>
      <trkpt lat="45.15202" lon="5.84556">
        <ele>682.02</ele>
        <time>2020-06-06T11:54:16.000Z</time>
      </trkpt>
      <trkpt lat="45.15217" lon="5.84575">
        <ele>682.72</ele>
        <time>2020-06-06T11:54:21.000Z</time>
      </trkpt>
      <trkpt lat="45.15231" lon="5.84598">
        <ele>681.34</ele>
        <time>2020-06-06T11:54:26.000Z</time>
      </trkpt>
      <trkpt lat="45.15243" lon="5.84621">
        <ele>682.74</ele>
        <time>2020-06-06T11:54:31.000Z</time>
      </trkpt>
      <trkpt lat="45.15252" lon="5.84645">
        <ele>685.3</ele>
        <time>2020-06-06T11:54:36.000Z</time>
      </trkpt>
      <trkpt lat="45.15254" lon="5.8467">
        <ele>688.51</ele>
        <time>2020-06-06T11:54:41.000Z</time>
      </trkpt>
      <trkpt lat="45.15256" lon="5.84694">
        <ele>690.91</ele>
        <time>2020-06-06T11:54:46.000Z</time>
      </trkpt>
      <trkpt lat="45.15263" lon="5.84705">
        <ele>690.81</ele>
        <time>2020-06-06T11:54:51.000Z</time>
      </trkpt>
      <trkpt lat="45.15272" lon="5.84712">
        <ele>693.43</ele>
        <time>2020-06-06T11:54:57.000Z</time>
      </trkpt>
      <trkpt lat="45.15284" lon="5.8473">
        <ele>694.95</ele>
        <time>2020-06-06T11:55:02.000Z</time>
      </trkpt>
      <trkpt lat="45.15299" lon="5.84745">
        <ele>696.9</ele>
        <time>2020-06-06T11:55:07.000Z</time>
      </trkpt>
      <trkpt lat="45.1531" lon="5.84761">
        <ele>695.82</ele>
        <time>2020-06-06T11:55:12.000Z</time>
      </trkpt>
      <trkpt lat="45.1532" lon="5.84777">
        <ele>695.06</ele>
        <time>2020-06-06T11:55:17.000Z</time>
      </trkpt>
      <trkpt lat="45.15334" lon="5.84798">
        <ele>695.11</ele>
        <time>2020-06-06T11:55:22.000Z</time>
      </trkpt>
      <trkpt lat="45.15348" lon="5.84813">
        <ele>697.13</ele>
        <time>2020-06-06T11:55:27.000Z</time>
      </trkpt>
      <trkpt lat="45.15355" lon="5.84828">
        <ele>696.41</ele>
        <time>2020-06-06T11:55:32.000Z</time>
      </trkpt>
      <trkpt lat="45.15363" lon="5.84848">
        <ele>693.94</ele>
        <time>2020-06-06T11:55:37.000Z</time>
      </trkpt>
      <trkpt lat="45.15368" lon="5.84873">
        <ele>693.84</ele>
        <time>2020-06-06T11:55:42.000Z</time>
      </trkpt>
      <trkpt lat="45.15369" lon="5.84902">
        <ele>690.82</ele>
        <time>2020-06-06T11:55:47.000Z</time>
      </trkpt>
      <trkpt lat="45.1537" lon="5.84923">
        <ele>692.42</ele>
        <time>2020-06-06T11:55:52.000Z</time>
      </trkpt>
      <trkpt lat="45.15362" lon="5.84937">
        <ele>690.6</ele>
        <time>2020-06-06T11:55:57.000Z</time>
      </trkpt>
      <trkpt lat="45.15356" lon="5.84962">
        <ele>690.35</ele>
        <time>2020-06-06T11:56:02.000Z</time>
      </trkpt>
      <trkpt lat="45.15367" lon="5.84996">
        <ele>691.32</ele>
        <time>2020-06-06T11:56:07.000Z</time>
      </trkpt>
      <trkpt lat="45.15374" lon="5.85047">
        <ele>691.5</ele>
        <time>2020-06-06T11:56:12.000Z</time>
      </trkpt>
      <trkpt lat="45.15406" lon="5.85056">
        <ele>688.63</ele>
        <time>2020-06-06T11:56:17.000Z</time>
      </trkpt>
      <trkpt lat="45.15411" lon="5.85009">
        <ele>689.67</ele>
        <time>2020-06-06T11:56:22.000Z</time>
      </trkpt>
      <trkpt lat="45.15421" lon="5.84981">
        <ele>690.18</ele>
        <time>2020-06-06T11:56:27.000Z</time>
      </trkpt>
      <trkpt lat="45.15436" lon="5.84967">
        <ele>685.18</ele>
        <time>2020-06-06T11:56:32.000Z</time>
      </trkpt>
      <trkpt lat="45.15453" lon="5.84949">
        <ele>687.5</ele>
        <time>2020-06-06T11:56:37.000Z</time>
      </trkpt>
      <trkpt lat="45.15468" lon="5.8494">
        <ele>688.77</ele>
        <time>2020-06-06T11:56:42.000Z</time>
      </trkpt>
      <trkpt lat="45.15486" lon="5.84942">
        <ele>691.25</ele>
        <time>2020-06-06T11:56:47.000Z</time>
      </trkpt>
      <trkpt lat="45.15504" lon="5.84942">
        <ele>694.3</ele>
        <time>2020-06-06T11:56:52.000Z</time>
      </trkpt>
      <trkpt lat="45.15518" lon="5.84941">
        <ele>694.93</ele>
        <time>2020-06-06T11:56:57.000Z</time>
      </trkpt>
      <trkpt lat="45.1553" lon="5.84939">
        <ele>695.08</ele>
        <time>2020-06-06T11:57:02.000Z</time>
      </trkpt>
      <trkpt lat="45.15543" lon="5.84933">
        <ele>698.04</ele>
        <time>2020-06-06T11:57:07.000Z</time>
      </trkpt>
      <trkpt lat="45.15556" lon="5.84919">
        <ele>701.15</ele>
        <time>2020-06-06T11:57:12.000Z</time>
      </trkpt>
      <trkpt lat="45.1557" lon="5.84906">
        <ele>707.17</ele>
        <time>2020-06-06T11:57:17.000Z</time>
      </trkpt>
      <trkpt lat="45.15585" lon="5.84902">
        <ele>706.56</ele>
        <time>2020-06-06T11:57:22.000Z</time>
      </trkpt>
      <trkpt lat="45.15599" lon="5.84897">
        <ele>710.04</ele>
        <time>2020-06-06T11:57:27.000Z</time>
      </trkpt>
      <trkpt lat="45.15614" lon="5.84895">
        <ele>712.4</ele>
        <time>2020-06-06T11:57:32.000Z</time>
      </trkpt>
      <trkpt lat="45.15629" lon="5.84897">
        <ele>714.87</ele>
        <time>2020-06-06T11:57:37.000Z</time>
      </trkpt>
      <trkpt lat="45.15644" lon="5.84898">
        <ele>718.1</ele>
        <time>2020-06-06T11:57:42.000Z</time>
      </trkpt>
      <trkpt lat="45.15661" lon="5.84898">
        <ele>723.19</ele>
        <time>2020-06-06T11:57:47.000Z</time>
      </trkpt>
      <trkpt lat="45.15678" lon="5.84894">
        <ele>723.62</ele>
        <time>2020-06-06T11:57:52.000Z</time>
      </trkpt>
      <trkpt lat="45.15693" lon="5.8489">
        <ele>724.34</ele>
        <time>2020-06-06T11:57:57.000Z</time>
      </trkpt>
      <trkpt lat="45.15709" lon="5.84887">
        <ele>729.9</ele>
        <time>2020-06-06T11:58:02.000Z</time>
      </trkpt>
      <trkpt lat="45.15725" lon="5.84887">
        <ele>734.45</ele>
        <time>2020-06-06T11:58:07.000Z</time>
      </trkpt>
      <trkpt lat="45.15741" lon="5.84886">
        <ele>736.72</ele>
        <time>2020-06-06T11:58:12.000Z</time>
      </trkpt>
      <trkpt lat="45.15755" lon="5.8489">
        <ele>742.05</ele>
        <time>2020-06-06T11:58:17.000Z</time>
      </trkpt>
      <trkpt lat="45.1577" lon="5.84897">
        <ele>740.6</ele>
        <time>2020-06-06T11:58:22.000Z</time>
      </trkpt>
      <trkpt lat="45.15785" lon="5.84904">
        <ele>743.64</ele>
        <time>2020-06-06T11:58:27.000Z</time>
      </trkpt>
      <trkpt lat="45.15795" lon="5.84914">
        <ele>745.79</ele>
        <time>2020-06-06T11:58:32.000Z</time>
      </trkpt>
      <trkpt lat="45.15811" lon="5.8491">
        <ele>742.96</ele>
        <time>2020-06-06T11:58:37.000Z</time>
      </trkpt>
      <trkpt lat="45.15823" lon="5.84896">
        <ele>740.84</ele>
        <time>2020-06-06T11:58:42.000Z</time>
      </trkpt>
      <trkpt lat="45.15835" lon="5.8488">
        <ele>738.23</ele>
        <time>2020-06-06T11:58:47.000Z</time>
      </trkpt>
      <trkpt lat="45.1585" lon="5.84863">
        <ele>734.34</ele>
        <time>2020-06-06T11:58:52.000Z</time>
      </trkpt>
      <trkpt lat="45.15864" lon="5.84864">
        <ele>736.99</ele>
        <time>2020-06-06T11:58:57.000Z</time>
      </trkpt>
      <trkpt lat="45.15872" lon="5.84876">
        <ele>736.7</ele>
        <time>2020-06-06T11:59:40.000Z</time>
      </trkpt>
      <trkpt lat="45.15883" lon="5.84892">
        <ele>741.89</ele>
        <time>2020-06-06T11:59:45.000Z</time>
      </trkpt>
      <trkpt lat="45.15893" lon="5.84906">
        <ele>741.23</ele>
        <time>2020-06-06T11:59:50.000Z</time>
      </trkpt>
      <trkpt lat="45.15908" lon="5.84914">
        <ele>745.68</ele>
        <time>2020-06-06T11:59:55.000Z</time>
      </trkpt>
      <trkpt lat="45.15924" lon="5.84917">
        <ele>743.12</ele>
        <time>2020-06-06T12:00:00.000Z</time>
      </trkpt>
      <trkpt lat="45.15941" lon="5.84918">
        <ele>742.91</ele>
        <time>2020-06-06T12:00:05.000Z</time>
      </trkpt>
      <trkpt lat="45.15959" lon="5.84922">
        <ele>745.49</ele>
        <time>2020-06-06T12:00:10.000Z</time>
      </trkpt>
      <trkpt lat="45.15975" lon="5.84924">
        <ele>747.26</ele>
        <time>2020-06-06T12:00:15.000Z</time>
      </trkpt>
      <trkpt lat="45.15992" lon="5.8493">
        <ele>747.27</ele>
        <time>2020-06-06T12:00:20.000Z</time>
      </trkpt>
      <trkpt lat="45.16007" lon="5.84932">
        <ele>751</ele>
        <time>2020-06-06T12:00:25.000Z</time>
      </trkpt>
      <trkpt lat="45.16022" lon="5.84935">
        <ele>750.38</ele>
        <time>2020-06-06T12:00:30.000Z</time>
      </trkpt>
      <trkpt lat="45.16038" lon="5.84938">
        <ele>749.6</ele>
        <time>2020-06-06T12:00:35.000Z</time>
      </trkpt>
      <trkpt lat="45.16054" lon="5.84942">
        <ele>751.39</ele>
        <time>2020-06-06T12:00:40.000Z</time>
      </trkpt>
      <trkpt lat="45.1607" lon="5.8495">
        <ele>755.4</ele>
        <time>2020-06-06T12:00:45.000Z</time>
      </trkpt>
      <trkpt lat="45.16081" lon="5.84966">
        <ele>756.6</ele>
        <time>2020-06-06T12:00:50.000Z</time>
      </trkpt>
      <trkpt lat="45.16089" lon="5.84986">
        <ele>757.91</ele>
        <time>2020-06-06T12:00:55.000Z</time>
      </trkpt>
      <trkpt lat="45.16096" lon="5.85006">
        <ele>757.07</ele>
        <time>2020-06-06T12:01:00.000Z</time>
      </trkpt>
      <trkpt lat="45.16104" lon="5.85028">
        <ele>756.41</ele>
        <time>2020-06-06T12:01:05.000Z</time>
      </trkpt>
      <trkpt lat="45.16116" lon="5.85052">
        <ele>755.59</ele>
        <time>2020-06-06T12:01:10.000Z</time>
      </trkpt>
      <trkpt lat="45.16129" lon="5.85069">
        <ele>757.04</ele>
        <time>2020-06-06T12:01:15.000Z</time>
      </trkpt>
      <trkpt lat="45.16141" lon="5.85085">
        <ele>761.69</ele>
        <time>2020-06-06T12:01:20.000Z</time>
      </trkpt>
      <trkpt lat="45.16155" lon="5.851">
        <ele>763.31</ele>
        <time>2020-06-06T12:01:25.000Z</time>
      </trkpt>
      <trkpt lat="45.1617" lon="5.8511">
        <ele>762.05</ele>
        <time>2020-06-06T12:01:30.000Z</time>
      </trkpt>
      <trkpt lat="45.16189" lon="5.85125">
        <ele>767</ele>
        <time>2020-06-06T12:01:35.000Z</time>
      </trkpt>
      <trkpt lat="45.16205" lon="5.85136">
        <ele>769.96</ele>
        <time>2020-06-06T12:01:40.000Z</time>
      </trkpt>
      <trkpt lat="45.1622" lon="5.85147">
        <ele>770.89</ele>
        <time>2020-06-06T12:01:45.000Z</time>
      </trkpt>
      <trkpt lat="45.1624" lon="5.85166">
        <ele>771.14</ele>
        <time>2020-06-06T12:01:50.000Z</time>
      </trkpt>
      <trkpt lat="45.16252" lon="5.85178">
        <ele>773.54</ele>
        <time>2020-06-06T12:01:55.000Z</time>
      </trkpt>
      <trkpt lat="45.16272" lon="5.85185">
        <ele>778.37</ele>
        <time>2020-06-06T12:02:00.000Z</time>
      </trkpt>
      <trkpt lat="45.16292" lon="5.85178">
        <ele>779.74</ele>
        <time>2020-06-06T12:02:05.000Z</time>
      </trkpt>
      <trkpt lat="45.16302" lon="5.85144">
        <ele>778.24</ele>
        <time>2020-06-06T12:02:10.000Z</time>
      </trkpt>
      <trkpt lat="45.16302" lon="5.85114">
        <ele>781.6</ele>
        <time>2020-06-06T12:02:15.000Z</time>
      </trkpt>
      <trkpt lat="45.16304" lon="5.85083">
        <ele>783.25</ele>
        <time>2020-06-06T12:02:20.000Z</time>
      </trkpt>
      <trkpt lat="45.16314" lon="5.85054">
        <ele>783.98</ele>
        <time>2020-06-06T12:02:25.000Z</time>
      </trkpt>
      <trkpt lat="45.16331" lon="5.85032">
        <ele>785.53</ele>
        <time>2020-06-06T12:02:30.000Z</time>
      </trkpt>
      <trkpt lat="45.16349" lon="5.85016">
        <ele>785.48</ele>
        <time>2020-06-06T12:02:35.000Z</time>
      </trkpt>
      <trkpt lat="45.16369" lon="5.84999">
        <ele>783.77</ele>
        <time>2020-06-06T12:02:40.000Z</time>
      </trkpt>
      <trkpt lat="45.16386" lon="5.84978">
        <ele>786.69</ele>
        <time>2020-06-06T12:02:45.000Z</time>
      </trkpt>
      <trkpt lat="45.16403" lon="5.84962">
        <ele>787.68</ele>
        <time>2020-06-06T12:02:50.000Z</time>
      </trkpt>
      <trkpt lat="45.16417" lon="5.84939">
        <ele>792.68</ele>
        <time>2020-06-06T12:02:55.000Z</time>
      </trkpt>
      <trkpt lat="45.1643" lon="5.84916">
        <ele>793.4</ele>
        <time>2020-06-06T12:03:00.000Z</time>
      </trkpt>
      <trkpt lat="45.16444" lon="5.84893">
        <ele>797.42</ele>
        <time>2020-06-06T12:03:05.000Z</time>
      </trkpt>
      <trkpt lat="45.16457" lon="5.84875">
        <ele>799.87</ele>
        <time>2020-06-06T12:03:10.000Z</time>
      </trkpt>
      <trkpt lat="45.16469" lon="5.84855">
        <ele>797.7</ele>
        <time>2020-06-06T12:03:15.000Z</time>
      </trkpt>
      <trkpt lat="45.16483" lon="5.8484">
        <ele>798.39</ele>
        <time>2020-06-06T12:03:20.000Z</time>
      </trkpt>
      <trkpt lat="45.16499" lon="5.84846">
        <ele>802.06</ele>
        <time>2020-06-06T12:03:25.000Z</time>
      </trkpt>
      <trkpt lat="45.16515" lon="5.84852">
        <ele>802.62</ele>
        <time>2020-06-06T12:03:30.000Z</time>
      </trkpt>
      <trkpt lat="45.16524" lon="5.84872">
        <ele>804.67</ele>
        <time>2020-06-06T12:03:35.000Z</time>
      </trkpt>
      <trkpt lat="45.16525" lon="5.84898">
        <ele>803.05</ele>
        <time>2020-06-06T12:03:40.000Z</time>
      </trkpt>
      <trkpt lat="45.16527" lon="5.84925">
        <ele>803.69</ele>
        <time>2020-06-06T12:03:45.000Z</time>
      </trkpt>
      <trkpt lat="45.16529" lon="5.84944">
        <ele>804.08</ele>
        <time>2020-06-06T12:03:50.000Z</time>
      </trkpt>
      <trkpt lat="45.16528" lon="5.84957">
        <ele>799.13</ele>
        <time>2020-06-06T12:03:55.000Z</time>
      </trkpt>
      <trkpt lat="45.16527" lon="5.8497">
        <ele>799.94</ele>
        <time>2020-06-06T12:04:11.000Z</time>
      </trkpt>
      <trkpt lat="45.16532" lon="5.84981">
        <ele>803.96</ele>
        <time>2020-06-06T12:07:57.000Z</time>
      </trkpt>
      <trkpt lat="45.16538" lon="5.85002">
        <ele>804.39</ele>
        <time>2020-06-06T12:08:02.000Z</time>
      </trkpt>
      <trkpt lat="45.16543" lon="5.85032">
        <ele>807.68</ele>
        <time>2020-06-06T12:08:07.000Z</time>
      </trkpt>
      <trkpt lat="45.16548" lon="5.8507">
        <ele>806.92</ele>
        <time>2020-06-06T12:08:12.000Z</time>
      </trkpt>
      <trkpt lat="45.16562" lon="5.85115">
        <ele>808.83</ele>
        <time>2020-06-06T12:08:17.000Z</time>
      </trkpt>
      <trkpt lat="45.16578" lon="5.85158">
        <ele>809.51</ele>
        <time>2020-06-06T12:08:22.000Z</time>
      </trkpt>
      <trkpt lat="45.16602" lon="5.85198">
        <ele>809.04</ele>
        <time>2020-06-06T12:08:27.000Z</time>
      </trkpt>
      <trkpt lat="45.16633" lon="5.85245">
        <ele>806.93</ele>
        <time>2020-06-06T12:08:32.000Z</time>
      </trkpt>
      <trkpt lat="45.16663" lon="5.85297">
        <ele>804.09</ele>
        <time>2020-06-06T12:08:37.000Z</time>
      </trkpt>
      <trkpt lat="45.1669" lon="5.85356">
        <ele>800.9</ele>
        <time>2020-06-06T12:08:42.000Z</time>
      </trkpt>
      <trkpt lat="45.16706" lon="5.85425">
        <ele>791.31</ele>
        <time>2020-06-06T12:08:47.000Z</time>
      </trkpt>
      <trkpt lat="45.16717" lon="5.85488">
        <ele>791.25</ele>
        <time>2020-06-06T12:08:52.000Z</time>
      </trkpt>
      <trkpt lat="45.16725" lon="5.85541">
        <ele>790.62</ele>
        <time>2020-06-06T12:08:57.000Z</time>
      </trkpt>
      <trkpt lat="45.16737" lon="5.85579">
        <ele>793.34</ele>
        <time>2020-06-06T12:09:02.000Z</time>
      </trkpt>
      <trkpt lat="45.16746" lon="5.85617">
        <ele>793.01</ele>
        <time>2020-06-06T12:09:07.000Z</time>
      </trkpt>
      <trkpt lat="45.16755" lon="5.85661">
        <ele>792.42</ele>
        <time>2020-06-06T12:09:12.000Z</time>
      </trkpt>
      <trkpt lat="45.16758" lon="5.85699">
        <ele>794.92</ele>
        <time>2020-06-06T12:09:17.000Z</time>
      </trkpt>
      <trkpt lat="45.16753" lon="5.85742">
        <ele>791.65</ele>
        <time>2020-06-06T12:09:22.000Z</time>
      </trkpt>
      <trkpt lat="45.16742" lon="5.85779">
        <ele>790.37</ele>
        <time>2020-06-06T12:09:27.000Z</time>
      </trkpt>
      <trkpt lat="45.16744" lon="5.85812">
        <ele>787.94</ele>
        <time>2020-06-06T12:09:32.000Z</time>
      </trkpt>
      <trkpt lat="45.16753" lon="5.85842">
        <ele>792.18</ele>
        <time>2020-06-06T12:09:37.000Z</time>
      </trkpt>
      <trkpt lat="45.1676" lon="5.85872">
        <ele>793.6</ele>
        <time>2020-06-06T12:09:42.000Z</time>
      </trkpt>
      <trkpt lat="45.16764" lon="5.85901">
        <ele>796.05</ele>
        <time>2020-06-06T12:09:47.000Z</time>
      </trkpt>
      <trkpt lat="45.16771" lon="5.85929">
        <ele>798.88</ele>
        <time>2020-06-06T12:09:52.000Z</time>
      </trkpt>
      <trkpt lat="45.16783" lon="5.8596">
        <ele>802.2</ele>
        <time>2020-06-06T12:09:57.000Z</time>
      </trkpt>
      <trkpt lat="45.16784" lon="5.85993">
        <ele>804.38</ele>
        <time>2020-06-06T12:10:02.000Z</time>
      </trkpt>
      <trkpt lat="45.16785" lon="5.86027">
        <ele>803</ele>
        <time>2020-06-06T12:10:07.000Z</time>
      </trkpt>
      <trkpt lat="45.16779" lon="5.86059">
        <ele>802.32</ele>
        <time>2020-06-06T12:10:12.000Z</time>
      </trkpt>
      <trkpt lat="45.16772" lon="5.86094">
        <ele>800.17</ele>
        <time>2020-06-06T12:10:17.000Z</time>
      </trkpt>
      <trkpt lat="45.16766" lon="5.86126">
        <ele>800.31</ele>
        <time>2020-06-06T12:10:22.000Z</time>
      </trkpt>
      <trkpt lat="45.16757" lon="5.86158">
        <ele>800.11</ele>
        <time>2020-06-06T12:10:27.000Z</time>
      </trkpt>
      <trkpt lat="45.1675" lon="5.86183">
        <ele>797.49</ele>
        <time>2020-06-06T12:10:32.000Z</time>
      </trkpt>
      <trkpt lat="45.16754" lon="5.86221">
        <ele>800.58</ele>
        <time>2020-06-06T12:10:37.000Z</time>
      </trkpt>
      <trkpt lat="45.16763" lon="5.86257">
        <ele>800.87</ele>
        <time>2020-06-06T12:10:42.000Z</time>
      </trkpt>
      <trkpt lat="45.16778" lon="5.86293">
        <ele>802.98</ele>
        <time>2020-06-06T12:10:47.000Z</time>
      </trkpt>
      <trkpt lat="45.168" lon="5.86315">
        <ele>805.94</ele>
        <time>2020-06-06T12:10:52.000Z</time>
      </trkpt>
      <trkpt lat="45.16816" lon="5.86335">
        <ele>806.54</ele>
        <time>2020-06-06T12:10:57.000Z</time>
      </trkpt>
      <trkpt lat="45.16837" lon="5.86353">
        <ele>809.42</ele>
        <time>2020-06-06T12:11:02.000Z</time>
      </trkpt>
      <trkpt lat="45.1685" lon="5.8638">
        <ele>809.51</ele>
        <time>2020-06-06T12:11:07.000Z</time>
      </trkpt>
      <trkpt lat="45.16866" lon="5.86412">
        <ele>810.95</ele>
        <time>2020-06-06T12:11:12.000Z</time>
      </trkpt>
      <trkpt lat="45.16878" lon="5.86446">
        <ele>813.58</ele>
        <time>2020-06-06T12:11:17.000Z</time>
      </trkpt>
      <trkpt lat="45.1689" lon="5.86483">
        <ele>816.88</ele>
        <time>2020-06-06T12:11:22.000Z</time>
      </trkpt>
      <trkpt lat="45.16902" lon="5.86518">
        <ele>816.69</ele>
        <time>2020-06-06T12:11:27.000Z</time>
      </trkpt>
      <trkpt lat="45.1691" lon="5.86556">
        <ele>816.78</ele>
        <time>2020-06-06T12:11:32.000Z</time>
      </trkpt>
      <trkpt lat="45.16922" lon="5.86591">
        <ele>815.98</ele>
        <time>2020-06-06T12:11:37.000Z</time>
      </trkpt>
      <trkpt lat="45.16936" lon="5.86625">
        <ele>815.5</ele>
        <time>2020-06-06T12:11:42.000Z</time>
      </trkpt>
      <trkpt lat="45.16953" lon="5.86659">
        <ele>814.77</ele>
        <time>2020-06-06T12:11:47.000Z</time>
      </trkpt>
      <trkpt lat="45.16971" lon="5.86696">
        <ele>816.09</ele>
        <time>2020-06-06T12:11:52.000Z</time>
      </trkpt>
      <trkpt lat="45.16987" lon="5.86732">
        <ele>817.66</ele>
        <time>2020-06-06T12:11:57.000Z</time>
      </trkpt>
      <trkpt lat="45.17004" lon="5.86768">
        <ele>813.96</ele>
        <time>2020-06-06T12:12:02.000Z</time>
      </trkpt>
      <trkpt lat="45.17014" lon="5.86802">
        <ele>812.98</ele>
        <time>2020-06-06T12:12:07.000Z</time>
      </trkpt>
      <trkpt lat="45.17031" lon="5.86835">
        <ele>812.6</ele>
        <time>2020-06-06T12:12:12.000Z</time>
      </trkpt>
      <trkpt lat="45.17044" lon="5.86863">
        <ele>814.25</ele>
        <time>2020-06-06T12:12:17.000Z</time>
      </trkpt>
      <trkpt lat="45.17053" lon="5.86892">
        <ele>818.76</ele>
        <time>2020-06-06T12:12:22.000Z</time>
      </trkpt>
      <trkpt lat="45.17067" lon="5.86922">
        <ele>820.74</ele>
        <time>2020-06-06T12:12:27.000Z</time>
      </trkpt>
      <trkpt lat="45.17077" lon="5.86953">
        <ele>820.73</ele>
        <time>2020-06-06T12:12:32.000Z</time>
      </trkpt>
      <trkpt lat="45.17091" lon="5.86987">
        <ele>816.87</ele>
        <time>2020-06-06T12:12:37.000Z</time>
      </trkpt>
      <trkpt lat="45.17105" lon="5.8702">
        <ele>817.05</ele>
        <time>2020-06-06T12:12:42.000Z</time>
      </trkpt>
      <trkpt lat="45.17118" lon="5.87051">
        <ele>817.11</ele>
        <time>2020-06-06T12:12:47.000Z</time>
      </trkpt>
      <trkpt lat="45.17141" lon="5.87069">
        <ele>820.35</ele>
        <time>2020-06-06T12:12:52.000Z</time>
      </trkpt>
      <trkpt lat="45.17166" lon="5.8709">
        <ele>817.31</ele>
        <time>2020-06-06T12:12:57.000Z</time>
      </trkpt>
      <trkpt lat="45.17171" lon="5.87119">
        <ele>821.45</ele>
        <time>2020-06-06T12:13:02.000Z</time>
      </trkpt>
      <trkpt lat="45.17172" lon="5.8715">
        <ele>823.47</ele>
        <time>2020-06-06T12:13:07.000Z</time>
      </trkpt>
      <trkpt lat="45.1718" lon="5.87179">
        <ele>825.2</ele>
        <time>2020-06-06T12:13:12.000Z</time>
      </trkpt>
      <trkpt lat="45.17185" lon="5.8721">
        <ele>822.89</ele>
        <time>2020-06-06T12:13:17.000Z</time>
      </trkpt>
      <trkpt lat="45.17191" lon="5.87242">
        <ele>820.59</ele>
        <time>2020-06-06T12:13:22.000Z</time>
      </trkpt>
      <trkpt lat="45.17194" lon="5.87273">
        <ele>822.38</ele>
        <time>2020-06-06T12:13:27.000Z</time>
      </trkpt>
      <trkpt lat="45.17196" lon="5.87312">
        <ele>821.89</ele>
        <time>2020-06-06T12:13:32.000Z</time>
      </trkpt>
      <trkpt lat="45.17204" lon="5.87349">
        <ele>826.33</ele>
        <time>2020-06-06T12:13:37.000Z</time>
      </trkpt>
      <trkpt lat="45.17225" lon="5.87377">
        <ele>830.89</ele>
        <time>2020-06-06T12:13:42.000Z</time>
      </trkpt>
      <trkpt lat="45.17247" lon="5.87396">
        <ele>836.44</ele>
        <time>2020-06-06T12:13:47.000Z</time>
      </trkpt>
      <trkpt lat="45.17264" lon="5.87419">
        <ele>839.25</ele>
        <time>2020-06-06T12:13:52.000Z</time>
      </trkpt>
      <trkpt lat="45.17289" lon="5.87433">
        <ele>841.19</ele>
        <time>2020-06-06T12:13:57.000Z</time>
      </trkpt>
      <trkpt lat="45.17307" lon="5.87451">
        <ele>842.87</ele>
        <time>2020-06-06T12:14:02.000Z</time>
      </trkpt>
      <trkpt lat="45.17329" lon="5.87477">
        <ele>841.85</ele>
        <time>2020-06-06T12:14:07.000Z</time>
      </trkpt>
      <trkpt lat="45.17345" lon="5.87506">
        <ele>841.81</ele>
        <time>2020-06-06T12:14:12.000Z</time>
      </trkpt>
      <trkpt lat="45.17358" lon="5.87537">
        <ele>842.82</ele>
        <time>2020-06-06T12:14:17.000Z</time>
      </trkpt>
      <trkpt lat="45.17366" lon="5.8757">
        <ele>842.98</ele>
        <time>2020-06-06T12:14:22.000Z</time>
      </trkpt>
      <trkpt lat="45.17369" lon="5.87603">
        <ele>844.47</ele>
        <time>2020-06-06T12:14:27.000Z</time>
      </trkpt>
      <trkpt lat="45.17371" lon="5.87631">
        <ele>844.4</ele>
        <time>2020-06-06T12:14:32.000Z</time>
      </trkpt>
      <trkpt lat="45.17363" lon="5.87653">
        <ele>841.74</ele>
        <time>2020-06-06T12:14:37.000Z</time>
      </trkpt>
      <trkpt lat="45.17362" lon="5.87667">
        <ele>841.29</ele>
        <time>2020-06-06T12:16:19.000Z</time>
      </trkpt>
      <trkpt lat="45.17353" lon="5.87691">
        <ele>841.15</ele>
        <time>2020-06-06T12:16:24.000Z</time>
      </trkpt>
      <trkpt lat="45.17342" lon="5.87721">
        <ele>840.07</ele>
        <time>2020-06-06T12:16:29.000Z</time>
      </trkpt>
      <trkpt lat="45.17325" lon="5.87748">
        <ele>839.01</ele>
        <time>2020-06-06T12:16:34.000Z</time>
      </trkpt>
      <trkpt lat="45.17307" lon="5.87778">
        <ele>839.78</ele>
        <time>2020-06-06T12:16:39.000Z</time>
      </trkpt>
      <trkpt lat="45.17293" lon="5.878">
        <ele>838.3</ele>
        <time>2020-06-06T12:16:44.000Z</time>
      </trkpt>
      <trkpt lat="45.17279" lon="5.87827">
        <ele>837.73</ele>
        <time>2020-06-06T12:16:49.000Z</time>
      </trkpt>
      <trkpt lat="45.17265" lon="5.87852">
        <ele>836.98</ele>
        <time>2020-06-06T12:16:54.000Z</time>
      </trkpt>
      <trkpt lat="45.17254" lon="5.87871">
        <ele>836.03</ele>
        <time>2020-06-06T12:16:59.000Z</time>
      </trkpt>
      <trkpt lat="45.17242" lon="5.87892">
        <ele>836.57</ele>
        <time>2020-06-06T12:17:04.000Z</time>
      </trkpt>
      <trkpt lat="45.17214" lon="5.87923">
        <ele>836.72</ele>
        <time>2020-06-06T12:17:09.000Z</time>
      </trkpt>
      <trkpt lat="45.17184" lon="5.87972">
        <ele>835.86</ele>
        <time>2020-06-06T12:17:14.000Z</time>
      </trkpt>
      <trkpt lat="45.17147" lon="5.88024">
        <ele>834.96</ele>
        <time>2020-06-06T12:17:19.000Z</time>
      </trkpt>
      <trkpt lat="45.17123" lon="5.88086">
        <ele>833.34</ele>
        <time>2020-06-06T12:17:24.000Z</time>
      </trkpt>
      <trkpt lat="45.17074" lon="5.88138">
        <ele>832.82</ele>
        <time>2020-06-06T12:17:29.000Z</time>
      </trkpt>
      <trkpt lat="45.17017" lon="5.88181">
        <ele>832.01</ele>
        <time>2020-06-06T12:17:34.000Z</time>
      </trkpt>
      <trkpt lat="45.16959" lon="5.88224">
        <ele>825.13</ele>
        <time>2020-06-06T12:17:39.000Z</time>
      </trkpt>
      <trkpt lat="45.16887" lon="5.8827">
        <ele>817.89</ele>
        <time>2020-06-06T12:17:44.000Z</time>
      </trkpt>
      <trkpt lat="45.1683" lon="5.8833">
        <ele>811.85</ele>
        <time>2020-06-06T12:17:49.000Z</time>
      </trkpt>
      <trkpt lat="45.1678" lon="5.88408">
        <ele>805.41</ele>
        <time>2020-06-06T12:17:54.000Z</time>
      </trkpt>
      <trkpt lat="45.16753" lon="5.8847">
        <ele>800.5</ele>
        <time>2020-06-06T12:17:59.000Z</time>
      </trkpt>
      <trkpt lat="45.16709" lon="5.88462">
        <ele>798.04</ele>
        <time>2020-06-06T12:18:04.000Z</time>
      </trkpt>
      <trkpt lat="45.16672" lon="5.88462">
        <ele>794.01</ele>
        <time>2020-06-06T12:18:09.000Z</time>
      </trkpt>
      <trkpt lat="45.16635" lon="5.88475">
        <ele>791.48</ele>
        <time>2020-06-06T12:18:14.000Z</time>
      </trkpt>
      <trkpt lat="45.16593" lon="5.8849">
        <ele>788.62</ele>
        <time>2020-06-06T12:18:19.000Z</time>
      </trkpt>
      <trkpt lat="45.16558" lon="5.885">
        <ele>788.36</ele>
        <time>2020-06-06T12:18:24.000Z</time>
      </trkpt>
      <trkpt lat="45.16517" lon="5.88534">
        <ele>789.31</ele>
        <time>2020-06-06T12:18:29.000Z</time>
      </trkpt>
      <trkpt lat="45.16507" lon="5.886">
        <ele>792.15</ele>
        <time>2020-06-06T12:18:34.000Z</time>
      </trkpt>
      <trkpt lat="45.16516" lon="5.88651">
        <ele>792.15</ele>
        <time>2020-06-06T12:18:39.000Z</time>
      </trkpt>
      <trkpt lat="45.1653" lon="5.88699">
        <ele>792.65</ele>
        <time>2020-06-06T12:18:44.000Z</time>
      </trkpt>
      <trkpt lat="45.1656" lon="5.88723">
        <ele>793.55</ele>
        <time>2020-06-06T12:18:49.000Z</time>
      </trkpt>
      <trkpt lat="45.16579" lon="5.88722">
        <ele>791.53</ele>
        <time>2020-06-06T12:18:54.000Z</time>
      </trkpt>
      <trkpt lat="45.166" lon="5.88727">
        <ele>789.25</ele>
        <time>2020-06-06T12:18:59.000Z</time>
      </trkpt>
      <trkpt lat="45.16627" lon="5.88737">
        <ele>789.77</ele>
        <time>2020-06-06T12:19:04.000Z</time>
      </trkpt>
      <trkpt lat="45.16649" lon="5.88736">
        <ele>792.42</ele>
        <time>2020-06-06T12:19:09.000Z</time>
      </trkpt>
      <trkpt lat="45.16669" lon="5.88738">
        <ele>790.26</ele>
        <time>2020-06-06T12:19:14.000Z</time>
      </trkpt>
      <trkpt lat="45.16688" lon="5.8874">
        <ele>792.92</ele>
        <time>2020-06-06T12:19:19.000Z</time>
      </trkpt>
      <trkpt lat="45.16705" lon="5.88742">
        <ele>796.26</ele>
        <time>2020-06-06T12:19:24.000Z</time>
      </trkpt>
      <trkpt lat="45.16723" lon="5.88749">
        <ele>794.59</ele>
        <time>2020-06-06T12:19:29.000Z</time>
      </trkpt>
      <trkpt lat="45.16742" lon="5.88746">
        <ele>792.69</ele>
        <time>2020-06-06T12:19:34.000Z</time>
      </trkpt>
      <trkpt lat="45.16768" lon="5.88739">
        <ele>792.22</ele>
        <time>2020-06-06T12:19:39.000Z</time>
      </trkpt>
      <trkpt lat="45.16791" lon="5.8874">
        <ele>793.16</ele>
        <time>2020-06-06T12:19:44.000Z</time>
      </trkpt>
      <trkpt lat="45.16808" lon="5.88731">
        <ele>790.37</ele>
        <time>2020-06-06T12:19:49.000Z</time>
      </trkpt>
      <trkpt lat="45.16827" lon="5.8872">
        <ele>790.64</ele>
        <time>2020-06-06T12:19:54.000Z</time>
      </trkpt>
      <trkpt lat="45.16852" lon="5.88713">
        <ele>794.46</ele>
        <time>2020-06-06T12:19:59.000Z</time>
      </trkpt>
      <trkpt lat="45.16877" lon="5.88712">
        <ele>790.33</ele>
        <time>2020-06-06T12:20:04.000Z</time>
      </trkpt>
      <trkpt lat="45.16902" lon="5.88711">
        <ele>792.15</ele>
        <time>2020-06-06T12:20:09.000Z</time>
      </trkpt>
      <trkpt lat="45.16926" lon="5.887">
        <ele>793.87</ele>
        <time>2020-06-06T12:20:14.000Z</time>
      </trkpt>
      <trkpt lat="45.16952" lon="5.88688">
        <ele>796.54</ele>
        <time>2020-06-06T12:20:19.000Z</time>
      </trkpt>
      <trkpt lat="45.16978" lon="5.88677">
        <ele>795.67</ele>
        <time>2020-06-06T12:20:24.000Z</time>
      </trkpt>
      <trkpt lat="45.17009" lon="5.88668">
        <ele>793.45</ele>
        <time>2020-06-06T12:20:29.000Z</time>
      </trkpt>
      <trkpt lat="45.17037" lon="5.88671">
        <ele>792.25</ele>
        <time>2020-06-06T12:20:34.000Z</time>
      </trkpt>
      <trkpt lat="45.17065" lon="5.88694">
        <ele>792.66</ele>
        <time>2020-06-06T12:20:39.000Z</time>
      </trkpt>
      <trkpt lat="45.17092" lon="5.88717">
        <ele>792.04</ele>
        <time>2020-06-06T12:20:44.000Z</time>
      </trkpt>
      <trkpt lat="45.17123" lon="5.8871">
        <ele>790.46</ele>
        <time>2020-06-06T12:20:49.000Z</time>
      </trkpt>
      <trkpt lat="45.17154" lon="5.88683">
        <ele>789.55</ele>
        <time>2020-06-06T12:20:54.000Z</time>
      </trkpt>
      <trkpt lat="45.17183" lon="5.88656">
        <ele>789.83</ele>
        <time>2020-06-06T12:20:59.000Z</time>
      </trkpt>
      <trkpt lat="45.17205" lon="5.88617">
        <ele>788.94</ele>
        <time>2020-06-06T12:21:04.000Z</time>
      </trkpt>
      <trkpt lat="45.17233" lon="5.88589">
        <ele>786.14</ele>
        <time>2020-06-06T12:21:09.000Z</time>
      </trkpt>
      <trkpt lat="45.17261" lon="5.88576">
        <ele>783.31</ele>
        <time>2020-06-06T12:21:14.000Z</time>
      </trkpt>
      <trkpt lat="45.17293" lon="5.88574">
        <ele>782.37</ele>
        <time>2020-06-06T12:21:19.000Z</time>
      </trkpt>
      <trkpt lat="45.17328" lon="5.88574">
        <ele>782.6</ele>
        <time>2020-06-06T12:21:24.000Z</time>
      </trkpt>
      <trkpt lat="45.17365" lon="5.88577">
        <ele>783.29</ele>
        <time>2020-06-06T12:21:29.000Z</time>
      </trkpt>
      <trkpt lat="45.17401" lon="5.88579">
        <ele>781.24</ele>
        <time>2020-06-06T12:21:34.000Z</time>
      </trkpt>
      <trkpt lat="45.17439" lon="5.88582">
        <ele>780.53</ele>
        <time>2020-06-06T12:21:39.000Z</time>
      </trkpt>
      <trkpt lat="45.17469" lon="5.88583">
        <ele>779.82</ele>
        <time>2020-06-06T12:21:44.000Z</time>
      </trkpt>
      <trkpt lat="45.17505" lon="5.88577">
        <ele>778.83</ele>
        <time>2020-06-06T12:21:49.000Z</time>
      </trkpt>
      <trkpt lat="45.17538" lon="5.88549">
        <ele>772.53</ele>
        <time>2020-06-06T12:21:54.000Z</time>
      </trkpt>
      <trkpt lat="45.1757" lon="5.88501">
        <ele>773.65</ele>
        <time>2020-06-06T12:21:59.000Z</time>
      </trkpt>
      <trkpt lat="45.17615" lon="5.88476">
        <ele>772.81</ele>
        <time>2020-06-06T12:22:04.000Z</time>
      </trkpt>
      <trkpt lat="45.17661" lon="5.8849">
        <ele>772.29</ele>
        <time>2020-06-06T12:22:09.000Z</time>
      </trkpt>
      <trkpt lat="45.17708" lon="5.88516">
        <ele>768.88</ele>
        <time>2020-06-06T12:22:14.000Z</time>
      </trkpt>
      <trkpt lat="45.17748" lon="5.88535">
        <ele>767.99</ele>
        <time>2020-06-06T12:22:19.000Z</time>
      </trkpt>
      <trkpt lat="45.17786" lon="5.88539">
        <ele>764.66</ele>
        <time>2020-06-06T12:22:24.000Z</time>
      </trkpt>
      <trkpt lat="45.17821" lon="5.88537">
        <ele>766.49</ele>
        <time>2020-06-06T12:22:29.000Z</time>
      </trkpt>
      <trkpt lat="45.17859" lon="5.88523">
        <ele>766.08</ele>
        <time>2020-06-06T12:22:34.000Z</time>
      </trkpt>
      <trkpt lat="45.17895" lon="5.88506">
        <ele>763.18</ele>
        <time>2020-06-06T12:22:39.000Z</time>
      </trkpt>
      <trkpt lat="45.17932" lon="5.88485">
        <ele>761.03</ele>
        <time>2020-06-06T12:22:44.000Z</time>
      </trkpt>
      <trkpt lat="45.17962" lon="5.88459">
        <ele>756.86</ele>
        <time>2020-06-06T12:22:49.000Z</time>
      </trkpt>
      <trkpt lat="45.18004" lon="5.88441">
        <ele>754.04</ele>
        <time>2020-06-06T12:22:54.000Z</time>
      </trkpt>
      <trkpt lat="45.18036" lon="5.88409">
        <ele>755.56</ele>
        <time>2020-06-06T12:22:59.000Z</time>
      </trkpt>
      <trkpt lat="45.18054" lon="5.88357">
        <ele>754.29</ele>
        <time>2020-06-06T12:23:04.000Z</time>
      </trkpt>
      <trkpt lat="45.18073" lon="5.88294">
        <ele>751.87</ele>
        <time>2020-06-06T12:23:09.000Z</time>
      </trkpt>
      <trkpt lat="45.181" lon="5.8824">
        <ele>749.22</ele>
        <time>2020-06-06T12:23:14.000Z</time>
      </trkpt>
      <trkpt lat="45.18131" lon="5.88191">
        <ele>748.35</ele>
        <time>2020-06-06T12:23:19.000Z</time>
      </trkpt>
      <trkpt lat="45.18152" lon="5.88147">
        <ele>747.97</ele>
        <time>2020-06-06T12:23:24.000Z</time>
      </trkpt>
      <trkpt lat="45.18176" lon="5.88116">
        <ele>743.48</ele>
        <time>2020-06-06T12:23:29.000Z</time>
      </trkpt>
      <trkpt lat="45.18199" lon="5.88087">
        <ele>743.39</ele>
        <time>2020-06-06T12:23:34.000Z</time>
      </trkpt>
      <trkpt lat="45.18217" lon="5.88058">
        <ele>744.86</ele>
        <time>2020-06-06T12:23:39.000Z</time>
      </trkpt>
      <trkpt lat="45.18235" lon="5.88033">
        <ele>747.44</ele>
        <time>2020-06-06T12:23:44.000Z</time>
      </trkpt>
      <trkpt lat="45.18244" lon="5.88006">
        <ele>747.48</ele>
        <time>2020-06-06T12:23:49.000Z</time>
      </trkpt>
      <trkpt lat="45.18253" lon="5.87963">
        <ele>745.49</ele>
        <time>2020-06-06T12:23:54.000Z</time>
      </trkpt>
      <trkpt lat="45.18258" lon="5.879">
        <ele>743.38</ele>
        <time>2020-06-06T12:23:59.000Z</time>
      </trkpt>
      <trkpt lat="45.18266" lon="5.87828">
        <ele>738.43</ele>
        <time>2020-06-06T12:24:04.000Z</time>
      </trkpt>
      <trkpt lat="45.18278" lon="5.87755">
        <ele>736.51</ele>
        <time>2020-06-06T12:24:09.000Z</time>
      </trkpt>
      <trkpt lat="45.18292" lon="5.87701">
        <ele>726.34</ele>
        <time>2020-06-06T12:24:14.000Z</time>
      </trkpt>
      <trkpt lat="45.18295" lon="5.87681">
        <ele>722.98</ele>
        <time>2020-06-06T12:24:19.000Z</time>
      </trkpt>
      <trkpt lat="45.18301" lon="5.87643">
        <ele>717.55</ele>
        <time>2020-06-06T12:24:24.000Z</time>
      </trkpt>
      <trkpt lat="45.18314" lon="5.87606">
        <ele>713.45</ele>
        <time>2020-06-06T12:24:29.000Z</time>
      </trkpt>
      <trkpt lat="45.18326" lon="5.87567">
        <ele>710.31</ele>
        <time>2020-06-06T12:24:34.000Z</time>
      </trkpt>
      <trkpt lat="45.18333" lon="5.87538">
        <ele>708.23</ele>
        <time>2020-06-06T12:24:39.000Z</time>
      </trkpt>
      <trkpt lat="45.18342" lon="5.87504">
        <ele>705.54</ele>
        <time>2020-06-06T12:24:44.000Z</time>
      </trkpt>
      <trkpt lat="45.18352" lon="5.87478">
        <ele>704.3</ele>
        <time>2020-06-06T12:24:49.000Z</time>
      </trkpt>
      <trkpt lat="45.18364" lon="5.87448">
        <ele>698.25</ele>
        <time>2020-06-06T12:24:54.000Z</time>
      </trkpt>
      <trkpt lat="45.18375" lon="5.87415">
        <ele>694.02</ele>
        <time>2020-06-06T12:24:59.000Z</time>
      </trkpt>
      <trkpt lat="45.18383" lon="5.87395">
        <ele>690.65</ele>
        <time>2020-06-06T12:25:04.000Z</time>
      </trkpt>
      <trkpt lat="45.18381" lon="5.87384">
        <ele>690</ele>
        <time>2020-06-06T12:25:29.000Z</time>
      </trkpt>
    </trkseg>
  </trk>
</gpx>